[[{"header":{"parameterUnit":"m.s-1","parameterCategory":1,"la1":30.6,"la2":29.2853,"lo1":-89.7004,"lo2":-87.6739,"dy":0.0162,"dx":0.0183,"nx":112,"ny":82,"refTime":"2026-04-10T00:00:00:Z","depth":0,"parameterNumber":2,"parameterNumberName":"U-component_of_WINDS"},"data":[0.0,0.0,0.0,0.0,0.0,0.0,0.0,0.0,0.0,0.0,0.0,0.0,0.0,0.0,0.0,0.0,0.0,0.0,0.0,0.0,0.0,0.0,0.0,0.0,0.0,0.0,0.0,0.0,0.0,0.0,0.0,0.0,0.0,0.0,0.0,0.0,0.0,0.0,0.0,0.0,0.0,0.0,0.0,0.0,0.0,0.0,0.0,0.0,0.0,0.0,0.0,0.0,0.0,0.0,0.0,0.0,0.0,0.0,0.0,0.0,0.0,0.0,0.0,0.0,0.0,0.0,0.0,0.0,0.0,0.0,0.0,0.0,0.0,0.0,0.0,0.0,0.0,0.0,0.0,0.0,0.0,0.0,0.0,0.0,0.0,0.0,0.0,0.0,0.0,0.0,-5.332,-5.7812,-6.123,-6.248,-6.0742,-5.9062,-5.6971,-5.4362,0.0,0.0,0.0,0.0,0.0,0.0,0.0,0.0,0.0,0.0,0.0,0.0,0.0,0.0,0.0,0.0,0.0,0.0,0.0,0.0,0.0,0.0,0.0,0.0,0.0,0.0,0.0,0.0,0.0,0.0,0.0,0.0,0.0,0.0,0.0,0.0,0.0,0.0,0.0,0.0,0.0,0.0,0.0,0.0,0.0,0.0,0.0,0.0,0.0,0.0,0.0,0.0,0.0,0.0,0.0,0.0,0.0,0.0,0.0,0.0,0.0,0.0,0.0,0.0,0.0,0.0,0.0,0.0,0.0,0.0,0.0,0.0,0.0,0.0,0.0,0.0,0.0,0.0,0.0,0.0,0.0,0.0,0.0,0.0,0.0,0.0,0.0,0.0,0.0,0.0,0.0,0.0,0.0,0.0,0.0,0.0,0.0,0.0,0.0,0.0,0.0,0.0,0.0,0.0,-5.4433,-5.9473,-6.2461,-6.3398,-6.164,-5.9961,-5.789,-5.5266,0.0,0.0,0.0,0.0,0.0,0.0,0.0,0.0,0.0,0.0,0.0,0.0,0.0,0.0,0.0,0.0,0.0,0.0,0.0,0.0,0.0,0.0,0.0,0.0,0.0,0.0,0.0,0.0,0.0,0.0,0.0,0.0,0.0,0.0,0.0,0.0,0.0,0.0,0.0,0.0,0.0,0.0,0.0,0.0,0.0,0.0,0.0,0.0,0.0,0.0,0.0,0.0,0.0,0.0,0.0,0.0,0.0,0.0,0.0,0.0,0.0,0.0,0.0,0.0,0.0,0.0,0.0,0.0,0.0,0.0,0.0,0.0,0.0,0.0,0.0,0.0,0.0,0.0,0.0,0.0,0.0,0.0,0.0,0.0,0.0,0.0,0.0,0.0,0.0,0.0,0.0,0.0,0.0,0.0,0.0,0.0,0.0,0.0,0.0,0.0,0.0,0.0,0.0,-5.3219,-5.6072,-5.9394,-6.1621,-6.2207,-6.0488,-5.9219,-5.7187,-5.4098,-5.1441,0.0,0.0,0.0,0.0,0.0,0.0,0.0,0.0,0.0,0.0,0.0,0.0,0.0,0.0,0.0,0.0,0.0,0.0,0.0,0.0,0.0,0.0,0.0,0.0,0.0,0.0,0.0,0.0,0.0,0.0,0.0,0.0,0.0,0.0,0.0,0.0,0.0,0.0,0.0,0.0,0.0,0.0,0.0,0.0,0.0,0.0,0.0,0.0,0.0,0.0,0.0,0.0,0.0,0.0,0.0,0.0,0.0,0.0,0.0,0.0,0.0,0.0,0.0,0.0,0.0,0.0,0.0,0.0,0.0,0.0,0.0,0.0,0.0,0.0,0.0,0.0,0.0,0.0,0.0,0.0,0.0,0.0,0.0,0.0,0.0,0.0,0.0,0.0,0.0,0.0,0.0,0.0,0.0,0.0,0.0,0.0,0.0,0.0,0.0,0.0,0.0,0.0,-5.5232,-5.745,-5.9018,-6.0683,-6.1015,-5.9336,-5.8027,-5.5898,-5.2597,-5.0385,0.0,0.0,0.0,0.0,0.0,0.0,0.0,0.0,0.0,0.0,0.0,0.0,0.0,0.0,0.0,0.0,0.0,0.0,0.0,0.0,0.0,0.0,0.0,0.0,0.0,0.0,0.0,0.0,0.0,0.0,0.0,0.0,0.0,0.0,0.0,0.0,0.0,0.0,0.0,0.0,0.0,0.0,0.0,0.0,0.0,0.0,0.0,0.0,0.0,0.0,0.0,0.0,0.0,0.0,0.0,0.0,0.0,0.0,0.0,0.0,0.0,0.0,0.0,0.0,0.0,0.0,0.0,0.0,0.0,0.0,0.0,0.0,0.0,0.0,0.0,0.0,0.0,0.0,0.0,0.0,0.0,0.0,0.0,0.0,0.0,0.0,0.0,0.0,0.0,0.0,0.0,0.0,0.0,0.0,0.0,0.0,0.0,0.0,0.0,0.0,0.0,0.0,-5.5961,-5.8007,-5.9005,-6.0661,-6.1015,-5.9336,-5.6914,-5.4336,-5.166,-4.8398,0.0,0.0,0.0,0.0,0.0,0.0,0.0,0.0,0.0,0.0,0.0,0.0,0.0,0.0,0.0,0.0,0.0,0.0,0.0,0.0,0.0,0.0,0.0,0.0,0.0,0.0,0.0,0.0,0.0,0.0,0.0,0.0,0.0,0.0,0.0,0.0,0.0,0.0,0.0,0.0,0.0,0.0,0.0,0.0,0.0,0.0,0.0,0.0,0.0,0.0,0.0,0.0,0.0,0.0,0.0,0.0,0.0,0.0,0.0,0.0,0.0,0.0,0.0,0.0,0.0,0.0,0.0,0.0,0.0,0.0,0.0,0.0,0.0,0.0,0.0,0.0,0.0,0.0,0.0,0.0,0.0,0.0,0.0,0.0,0.0,0.0,0.0,0.0,0.0,0.0,0.0,0.0,0.0,0.0,0.0,0.0,0.0,0.0,0.0,0.0,0.0,0.0,-5.4717,-5.6588,0.0,-5.934,-5.9392,-5.7714,-5.5683,-5.3398,-5.0801,0.0,0.0,0.0,0.0,0.0,0.0,0.0,0.0,0.0,0.0,0.0,0.0,0.0,0.0,0.0,0.0,0.0,0.0,0.0,0.0,0.0,0.0,0.0,0.0,0.0,0.0,0.0,0.0,0.0,0.0,0.0,0.0,0.0,0.0,0.0,0.0,0.0,0.0,0.0,0.0,0.0,0.0,0.0,0.0,0.0,0.0,0.0,0.0,0.0,0.0,0.0,0.0,0.0,0.0,0.0,0.0,0.0,0.0,0.0,0.0,0.0,0.0,0.0,0.0,0.0,0.0,0.0,0.0,0.0,0.0,0.0,0.0,0.0,0.0,0.0,0.0,0.0,0.0,0.0,0.0,0.0,0.0,0.0,0.0,0.0,0.0,0.0,0.0,0.0,0.0,0.0,0.0,0.0,0.0,0.0,0.0,0.0,0.0,0.0,0.0,0.0,0.0,-5.1573,-5.3895,-5.5818,0.0,-5.8312,-5.8248,-5.6321,-5.4315,-5.209,-4.9531,0.0,0.0,0.0,0.0,0.0,0.0,0.0,0.0,0.0,0.0,0.0,0.0,0.0,0.0,0.0,0.0,0.0,0.0,0.0,0.0,0.0,0.0,0.0,0.0,0.0,0.0,0.0,0.0,0.0,0.0,0.0,0.0,0.0,0.0,0.0,0.0,0.0,0.0,0.0,0.0,0.0,0.0,0.0,0.0,0.0,0.0,0.0,0.0,0.0,0.0,0.0,0.0,0.0,0.0,0.0,0.0,0.0,0.0,0.0,0.0,0.0,0.0,0.0,0.0,0.0,0.0,0.0,0.0,0.0,0.0,0.0,0.0,0.0,0.0,0.0,0.0,0.0,0.0,0.0,0.0,0.0,0.0,0.0,0.0,0.0,0.0,0.0,0.0,0.0,0.0,0.0,0.0,0.0,0.0,0.0,0.0,0.0,0.0,0.0,0.0,0.0,0.0,-5.0552,-5.3815,-5.6015,-5.6152,-5.7779,-5.7846,-5.5388,-5.2848,-5.0312,0.0,0.0,0.0,0.0,0.0,0.0,0.0,0.0,0.0,0.0,0.0,0.0,0.0,0.0,0.0,0.0,0.0,0.0,0.0,0.0,0.0,0.0,0.0,0.0,0.0,0.0,0.0,0.0,0.0,0.0,0.0,0.0,0.0,0.0,0.0,0.0,0.0,0.0,0.0,0.0,0.0,0.0,0.0,0.0,0.0,0.0,0.0,0.0,0.0,0.0,0.0,0.0,0.0,0.0,0.0,0.0,0.0,0.0,0.0,0.0,0.0,0.0,0.0,0.0,0.0,0.0,0.0,0.0,0.0,0.0,0.0,0.0,0.0,0.0,0.0,0.0,0.0,0.0,0.0,0.0,0.0,0.0,0.0,0.0,0.0,0.0,0.0,0.0,0.0,0.0,0.0,0.0,0.0,0.0,0.0,0.0,0.0,0.0,0.0,0.0,0.0,0.0,0.0,-4.9669,-5.1837,-5.3526,-5.4213,-5.4903,-5.478,-5.3484,-5.159,-4.9909,-4.8526,0.0,0.0,0.0,0.0,0.0,0.0,0.0,0.0,0.0,0.0,0.0,0.0,0.0,0.0,0.0,0.0,0.0,0.0,0.0,0.0,0.0,0.0,0.0,0.0,0.0,0.0,0.0,0.0,0.0,0.0,0.0,0.0,0.0,0.0,0.0,0.0,0.0,0.0,0.0,0.0,0.0,0.0,0.0,0.0,0.0,0.0,0.0,0.0,0.0,0.0,0.0,0.0,0.0,0.0,0.0,0.0,0.0,0.0,0.0,0.0,0.0,0.0,0.0,0.0,0.0,0.0,0.0,0.0,0.0,0.0,0.0,0.0,0.0,0.0,0.0,0.0,0.0,0.0,0.0,0.0,0.0,0.0,0.0,0.0,0.0,0.0,0.0,0.0,0.0,0.0,0.0,0.0,0.0,0.0,0.0,0.0,0.0,0.0,0.0,0.0,0.0,0.0,-4.8671,-5.0729,-5.2264,-5.2883,-5.3353,-5.3325,-5.2558,-5.0949,-4.9466,-4.8274,0.0,0.0,0.0,0.0,0.0,0.0,0.0,0.0,0.0,0.0,0.0,0.0,0.0,0.0,0.0,0.0,0.0,0.0,0.0,0.0,0.0,0.0,0.0,0.0,0.0,0.0,0.0,0.0,0.0,0.0,0.0,0.0,0.0,0.0,0.0,0.0,0.0,0.0,0.0,0.0,0.0,0.0,0.0,0.0,0.0,0.0,0.0,0.0,0.0,0.0,0.0,0.0,0.0,0.0,0.0,0.0,0.0,0.0,0.0,0.0,0.0,0.0,0.0,0.0,0.0,0.0,0.0,0.0,0.0,0.0,0.0,0.0,0.0,0.0,0.0,0.0,0.0,0.0,0.0,0.0,0.0,0.0,0.0,0.0,0.0,0.0,0.0,0.0,0.0,0.0,0.0,0.0,0.0,0.0,0.0,0.0,0.0,0.0,0.0,0.0,0.0,0.0,-4.7548,-5.0019,-5.1607,-5.1729,-5.2445,-5.2669,-5.1994,-5.0478,-4.8874,-4.7276,0.0,0.0,0.0,0.0,0.0,0.0,0.0,0.0,0.0,0.0,0.0,0.0,0.0,0.0,0.0,0.0,0.0,0.0,0.0,0.0,0.0,0.0,0.0,0.0,0.0,0.0,0.0,0.0,0.0,0.0,0.0,0.0,0.0,0.0,0.0,0.0,0.0,0.0,0.0,0.0,0.0,0.0,0.0,0.0,0.0,0.0,0.0,0.0,0.0,0.0,0.0,0.0,0.0,0.0,0.0,0.0,0.0,0.0,0.0,0.0,-4.9029,0.0,0.0,0.0,0.0,0.0,0.0,0.0,0.0,0.0,0.0,0.0,0.0,0.0,0.0,0.0,0.0,0.0,0.0,0.0,0.0,0.0,0.0,0.0,0.0,0.0,0.0,0.0,0.0,0.0,0.0,0.0,0.0,0.0,0.0,0.0,0.0,0.0,0.0,0.0,0.0,0.0,-4.5893,-4.7759,-4.8932,-4.9024,-4.9252,-4.9351,-4.9236,-4.8322,-4.7326,-4.6329,-4.4363,0.0,0.0,0.0,0.0,0.0,0.0,0.0,0.0,0.0,0.0,0.0,0.0,0.0,0.0,0.0,0.0,0.0,0.0,0.0,0.0,0.0,0.0,0.0,0.0,0.0,0.0,0.0,0.0,0.0,0.0,0.0,0.0,0.0,0.0,0.0,0.0,0.0,0.0,0.0,0.0,0.0,0.0,0.0,0.0,0.0,0.0,0.0,0.0,0.0,0.0,0.0,0.0,0.0,0.0,0.0,0.0,0.0,0.0,0.0,0.0,-4.9866,0.0,0.0,0.0,0.0,0.0,0.0,0.0,0.0,0.0,0.0,0.0,0.0,0.0,0.0,0.0,0.0,0.0,0.0,0.0,0.0,0.0,0.0,0.0,0.0,0.0,0.0,0.0,0.0,0.0,0.0,0.0,0.0,0.0,0.0,0.0,0.0,0.0,0.0,0.0,0.0,-4.5325,-4.7067,-4.8115,-4.8142,-4.8186,-4.8229,-4.8254,-4.7523,-4.652,-4.5299,-4.3652,0.0,0.0,0.0,0.0,0.0,0.0,0.0,0.0,0.0,0.0,0.0,0.0,0.0,0.0,0.0,0.0,0.0,0.0,0.0,0.0,0.0,0.0,0.0,0.0,0.0,0.0,0.0,0.0,0.0,0.0,0.0,0.0,0.0,0.0,0.0,0.0,0.0,0.0,0.0,0.0,0.0,0.0,0.0,0.0,0.0,0.0,0.0,0.0,0.0,0.0,0.0,0.0,0.0,-5.599,-5.599,-5.5861,-5.6008,-5.599,-5.5752,-5.3902,-5.2462,-5.1426,0.0,0.0,0.0,0.0,0.0,0.0,0.0,0.0,0.0,0.0,0.0,0.0,0.0,0.0,0.0,0.0,0.0,0.0,0.0,0.0,0.0,0.0,0.0,0.0,0.0,-4.758,-4.7171,0.0,0.0,0.0,0.0,0.0,0.0,0.0,0.0,0.0,0.0,0.0,0.0,-4.4883,-4.6624,-4.7663,-4.7663,-4.7663,-4.7663,-4.7663,-4.7067,-4.5958,-4.4288,-4.289,-4.1324,0.0,0.0,0.0,0.0,0.0,0.0,0.0,0.0,0.0,0.0,0.0,0.0,0.0,0.0,0.0,0.0,0.0,0.0,0.0,0.0,0.0,0.0,0.0,0.0,0.0,0.0,0.0,0.0,0.0,0.0,0.0,0.0,-5.2514,-5.2779,0.0,0.0,0.0,0.0,0.0,0.0,0.0,0.0,0.0,0.0,0.0,0.0,0.0,-5.4864,-5.5789,-5.6416,-5.6797,-5.6905,-5.7601,-5.7583,-5.6924,-5.7619,-5.7565,-5.6905,-5.7311,0.0,-5.3867,-5.3188,0.0,0.0,0.0,0.0,0.0,0.0,0.0,0.0,0.0,0.0,0.0,0.0,0.0,0.0,0.0,0.0,0.0,0.0,0.0,0.0,0.0,0.0,-4.6719,-4.7623,-4.7452,-4.7219,0.0,-4.7507,-4.6895,-4.5385,-4.3635,0.0,0.0,0.0,0.0,0.0,0.0,0.0,-4.3297,-4.4893,-4.5941,-4.5941,-4.5941,-4.5941,-4.5941,-4.5825,-4.5054,-4.3389,-4.3118,-4.1937,-3.9501,-3.9254,0.0,0.0,0.0,0.0,0.0,0.0,0.0,0.0,0.0,0.0,0.0,0.0,0.0,0.0,0.0,0.0,0.0,0.0,0.0,0.0,0.0,0.0,0.0,0.0,0.0,0.0,0.0,0.0,0.0,-5.1336,-5.2712,-5.3435,-5.2787,-5.2288,0.0,0.0,0.0,0.0,0.0,0.0,0.0,0.0,0.0,-5.4634,-5.5464,-5.6676,-5.8335,-5.9131,-5.9552,-5.9581,-5.992,-5.9688,-5.8984,-5.9324,-5.9066,-5.8351,-5.8719,-5.7828,-5.6045,-5.482,-5.3376,-5.1807,0.0,0.0,0.0,0.0,-4.9303,-4.9145,-4.9571,-4.8948,0.0,-4.7829,0.0,0.0,0.0,0.0,0.0,0.0,0.0,0.0,0.0,0.0,0.0,-4.8228,-4.8314,-4.8152,-4.8052,-4.7951,-4.7529,0.0,-4.4862,-4.3073,-4.1026,0.0,0.0,0.0,0.0,-4.2104,-4.2989,-4.4547,-4.5594,-4.5594,-4.5594,-4.5594,-4.5594,-4.5594,-4.5084,-4.3849,-4.3805,-4.3115,-4.155,-4.1038,-4.041,0.0,0.0,0.0,0.0,0.0,0.0,0.0,0.0,0.0,0.0,0.0,0.0,0.0,0.0,0.0,0.0,0.0,0.0,0.0,0.0,0.0,0.0,0.0,0.0,0.0,0.0,0.0,0.0,-5.2469,-5.3483,-5.4343,-5.393,-5.3518,0.0,0.0,0.0,0.0,0.0,0.0,-5.3032,-5.353,-5.4478,-5.5894,-5.6889,-5.8237,-5.9991,-6.0797,-6.1234,-6.1266,-6.1086,-6.0699,-6.0153,-6.0153,-5.9761,-5.9051,-5.9051,-5.8367,-5.7181,-5.5869,-5.4394,-5.2795,-5.1158,-5.054,-5.0559,-5.054,-5.0754,-5.1161,-5.1566,-5.1059,-5.0143,-4.9701,0.0,-4.6874,-4.5682,0.0,0.0,0.0,0.0,-4.5483,-4.6245,-4.6907,-4.7643,-4.8528,-4.8818,-4.868,-4.7862,-4.7694,-4.7474,0.0,-4.5425,-4.3802,-4.1887,0.0,0.0,0.0,0.0,-4.226,-4.2921,-4.4285,-4.512,-4.4908,-4.487,-4.487,-4.487,-4.487,-4.4505,-4.3632,-4.3574,-4.3209,-4.2384,-4.1741,-4.113,-4.0561,0.0,0.0,0.0,0.0,0.0,0.0,0.0,0.0,0.0,0.0,0.0,0.0,0.0,0.0,0.0,0.0,0.0,0.0,0.0,0.0,0.0,0.0,0.0,0.0,0.0,0.0,0.0,0.0,0.0,-5.5858,-5.6696,0.0,0.0,0.0,0.0,-5.4618,-5.4652,-5.5,-5.5765,-5.5834,-5.6234,-5.7083,-5.8492,-5.9325,-5.9447,-6.0247,-6.0647,-6.063,-5.9932,-5.9582,-5.9547,-5.9547,-5.9147,-5.8432,-5.8432,-5.7751,-5.6599,-5.5928,-5.4747,-5.3195,-5.154,-5.0903,-5.0971,-5.0898,-5.1511,-5.2599,-5.3792,-5.3188,-5.1995,-5.2729,-5.0286,-4.7076,-4.7003,-4.5902,0.0,0.0,-4.5828,-4.6048,-4.6838,-4.7095,-4.7315,-4.8142,-4.8344,-4.8124,-4.7316,-4.715,-4.6836,0.0,-4.4853,-4.3984,-4.323,0.0,-4.1181,-4.209,-4.2463,-4.267,-4.2708,-4.3521,-4.3798,-4.3024,-4.2948,-4.2948,-4.2948,-4.2948,-4.2575,-4.1705,-4.1648,-4.1246,-4.0377,-4.0301,-4.0327,-4.0413,-3.8827,0.0,0.0,0.0,0.0,0.0,0.0,0.0,0.0,0.0,0.0,0.0,0.0,0.0,0.0,0.0,0.0,0.0,0.0,0.0,0.0,0.0,0.0,0.0,0.0,0.0,0.0,0.0,0.0,-5.7802,-5.825,0.0,-5.7817,-5.632,-5.5569,-5.6047,-5.6526,-5.6696,-5.6508,-5.7413,-5.8062,-5.8335,-5.8866,-5.9378,-5.984,-6.0113,-6.0027,-5.9549,-5.8816,-5.8201,-5.7739,-5.7261,-5.6662,-5.5944,-5.5944,-5.5561,-5.4862,-5.3894,-5.3492,-5.3289,-5.1812,-5.1494,-5.1917,-5.1965,-5.2368,-5.29,-5.3629,-5.3167,-5.2221,-5.1985,-4.9892,-4.7415,-4.7415,-4.6324,-4.5142,-4.5433,-4.5506,-4.5707,-4.6568,-4.6827,-4.6996,-4.7384,-4.7497,-4.7168,-4.5828,-4.5553,-4.5295,-4.4395,-4.4391,-4.4147,-4.2953,-4.242,-4.213,-4.2026,-4.2623,-4.2905,-4.2386,-4.3042,-4.3243,-4.2439,-4.2344,-4.2344,-4.2344,-4.2344,-4.2212,-4.1897,-4.1878,-4.1745,-4.1442,-4.1411,-4.1239,-4.086,-3.9308,-3.8312,0.0,0.0,0.0,0.0,0.0,0.0,0.0,0.0,0.0,0.0,0.0,0.0,0.0,0.0,0.0,0.0,0.0,0.0,0.0,0.0,0.0,0.0,0.0,0.0,0.0,0.0,-5.7915,-5.8896,-5.9471,-5.9674,-5.9404,-5.8051,-5.7391,-5.7881,-5.8372,-5.8321,-5.7594,-5.849,-5.8896,-5.8643,-5.8879,-5.9252,-5.9725,-5.9742,-5.9488,-5.8998,-5.8254,-5.7628,-5.7154,-5.6681,-5.5902,-5.4972,-5.4972,-5.4551,-5.3845,-5.2922,-5.2825,-5.3124,-5.1843,-5.1923,-5.2762,-5.2866,-5.3094,-5.3335,-5.3193,-5.2821,-5.2246,-5.1437,-4.9724,-4.7998,-4.7998,-4.6898,-4.5677,-4.5677,-4.5677,-4.5827,-4.6519,-4.6851,-4.6977,-4.6879,-4.6999,-4.6581,-4.4709,-4.4305,-4.3975,-4.2892,-4.3571,-4.3991,-4.3039,-4.2791,-4.2586,-4.2207,-4.2514,-4.2502,-4.1701,-4.2052,-4.2065,-4.1237,-4.1161,-4.1161,-4.1161,-4.1161,-4.1161,-4.1161,-4.1161,-4.1161,-4.1161,-4.1161,-4.0978,-4.0575,-3.9112,-3.8032,-3.7354,0.0,0.0,0.0,0.0,0.0,0.0,0.0,0.0,0.0,0.0,0.0,0.0,0.0,0.0,0.0,0.0,0.0,0.0,0.0,0.0,0.0,0.0,0.0,-5.4313,-5.7154,-5.9032,-5.9082,-6.0436,-6.1061,-6.0283,-6.0216,-6.0199,-6.0165,-6.0165,-5.9827,-5.9049,-5.9015,-5.866,-5.7898,-5.8575,-5.8964,-5.8981,-5.8981,-5.8981,-5.8981,-5.822,-5.7865,-5.7848,-5.7831,-5.7036,-5.5683,-5.5683,-5.4906,-5.3649,-5.319,-5.2914,-5.2731,-5.1632,-5.2122,-5.3454,-5.3463,-5.3669,-5.3748,-5.2633,-5.2236,-5.2113,-5.1334,-5.0042,-4.8785,-4.8785,-4.7645,-4.6348,-4.6348,-4.633,-4.6401,-4.6728,-4.7066,-4.7193,-4.664,-4.6792,-4.6379,-4.3994,-4.3461,-4.2985,-4.1445,-4.2398,-4.346,-4.3545,-4.3033,-4.2659,-4.2767,-4.2228,0.0,-4.0694,-4.0582,-4.0251,-3.9378,-3.9285,-3.9285,-3.9285,-3.9285,-3.9285,-3.9285,-3.9285,-3.9285,-3.9285,-3.9285,-3.9331,-3.9445,-3.8148,-3.7148,-3.6483,0.0,0.0,0.0,0.0,0.0,0.0,0.0,0.0,0.0,0.0,0.0,0.0,0.0,0.0,0.0,0.0,0.0,0.0,0.0,0.0,0.0,-5.2955,-5.4355,-5.5276,-5.7492,-5.9421,-6.0537,-6.1992,-6.2821,-6.2601,-6.2584,-6.2347,-6.1806,-6.1755,-6.096,-5.9116,-5.9015,-5.866,-5.7898,-5.7577,-5.7662,-5.8203,-5.8203,-5.8203,-5.8186,-5.7459,-5.7103,-5.7087,-5.6562,-5.5801,-5.4905,-5.4905,-5.4397,-5.3483,-5.2786,-5.2803,-5.3209,-5.2138,-5.1919,-5.2203,-5.2354,-5.2325,-5.2079,-5.1231,-5.0927,-5.0892,-5.0665,-4.9563,-4.8286,-4.8286,-4.6817,-4.5156,-4.5156,-4.4743,-4.4359,-4.4653,-4.5404,-4.5809,-4.4692,-4.5142,-4.5286,-4.345,-4.2614,-4.225,-4.2378,-4.2287,-4.2285,-4.2599,-4.2978,-4.3083,-4.2527,-4.2283,0.0,-4.0265,-4.008,-3.9785,-3.894,-3.8866,-3.8866,-3.8866,-3.8866,-3.8866,-3.8866,-3.8866,-3.8866,-3.8866,-3.8866,-3.8697,-3.835,-3.749,-3.6734,0.0,0.0,0.0,0.0,0.0,0.0,0.0,0.0,0.0,0.0,0.0,0.0,0.0,0.0,0.0,0.0,0.0,0.0,0.0,0.0,0.0,0.0,-5.4072,-5.5575,-5.6915,-5.8761,-6.03,-6.1197,-6.2618,-6.3514,-6.3514,-6.3785,-6.3666,-6.2922,-6.2854,-6.1873,-5.959,-5.9471,-5.8981,-5.7915,-5.7476,-5.7459,-5.7881,-5.7881,-5.7881,-5.7881,-5.7459,-5.7103,-5.6799,-5.6376,-5.5598,0.0,-5.4583,-5.4177,-5.3467,-5.301,-5.2892,0.0,0.0,0.0,0.0,0.0,-5.1093,-5.0806,-5.0083,-4.9825,-4.9825,-4.9825,-4.9017,-4.7967,-4.7657,-4.6195,-4.4604,-4.4234,-4.3605,-4.3061,-4.3332,-4.4235,-4.4782,-4.3448,-4.3982,-4.4271,-4.2348,-4.1559,-4.1272,-4.1398,-4.1326,0.0,-4.1252,-4.2156,-4.2606,-4.1783,-4.138,-4.0703,-3.9408,-3.9177,-3.8978,-3.8488,-3.8451,-3.8451,-3.8451,-3.8451,0.0,0.0,0.0,-3.8483,-3.8562,-3.8676,0.0,0.0,0.0,0.0,0.0,0.0,0.0,0.0,-3.5322,-3.5824,0.0,0.0,0.0,0.0,0.0,0.0,0.0,0.0,0.0,0.0,0.0,0.0,0.0,0.0,0.0,0.0,-5.43,-5.6099,-5.8714,-6.0415,-6.1402,-6.1434,-6.2736,-6.3632,-6.3632,-6.4377,-6.4512,-6.37,-6.3632,-6.2601,-6.0233,0.0,0.0,0.0,0.0,-5.7814,-5.7881,-5.7881,-5.7881,-5.7881,-5.7881,-5.7509,-5.6799,-5.6799,-5.5987,-5.4583,-5.4583,-5.4177,-5.3501,-5.3501,-5.3027,-5.2283,-5.2114,-5.2046,-5.1877,-5.0473,-4.9965,-4.9864,-4.9221,0.0,0.0,-4.89,-4.8392,-4.7648,-4.6904,-4.5568,-4.4209,-4.3487,-4.2675,-4.2112,-4.2355,-4.3253,-4.3794,-4.2602,-4.3119,-4.3315,-4.1135,-4.0605,-4.032,-3.9614,-3.9967,-4.0282,-3.9813,-4.0961,-4.163,-4.0756,-4.0009,-3.9211,-3.8348,-3.8103,-3.7999,-3.7999,0.0,0.0,-3.7999,-3.7999,-3.7999,-3.7999,-3.8034,-3.8135,-3.8332,-3.8546,-3.8747,-3.896,-3.8225,-3.7541,-3.6889,-3.6789,-3.6416,-3.5802,-3.5808,-3.6558,0.0,0.0,0.0,0.0,0.0,0.0,0.0,0.0,0.0,0.0,0.0,0.0,0.0,0.0,0.0,-5.3376,-5.4996,-5.6635,-5.8638,-6.0646,-6.2014,-6.2167,-6.348,-6.4394,-6.4394,-6.5595,-6.5831,-6.4495,-6.4394,-6.3142,-6.025,-5.9539,-5.8812,-5.7915,-5.7323,-5.7289,-5.7881,-5.7881,-5.7881,-5.7881,0.0,0.0,-5.6799,-5.6799,-5.5987,-5.4583,-5.4583,-5.4177,-5.3501,-5.3501,-5.3027,-5.2181,-5.098,-5.0524,-5.0405,-4.9543,-4.9221,-4.9187,-4.9052,-4.9001,-4.89,-4.8325,-4.7614,-4.687,-4.6143,-4.4418,0.0,-4.2557,-4.1542,-4.0561,-4.0713,-4.1517,-4.2098,-4.1304,-4.1969,-4.2416,-4.1328,-4.0572,-4.0079,-3.9988,-3.9565,-3.9266,-3.9376,-4.0565,-4.1053,-3.9715,-3.9334,-3.8831,-3.7863,-3.7524,-3.7377,-3.7377,-3.7377,-3.7377,-3.7377,-3.7377,-3.7377,-3.7377,-3.7542,-3.7738,-3.798,-3.8236,-3.8501,-3.875,-3.7989,-3.7521,-3.7366,-3.6707,-3.6652,-3.7127,-3.6639,-3.6909,0.0,0.0,0.0,0.0,0.0,0.0,0.0,0.0,0.0,0.0,0.0,-4.9194,-5.0857,0.0,-5.1509,-5.4066,-5.5395,-5.6683,-5.8518,-6.0299,-6.1606,-6.2181,-6.3568,-6.4304,-6.3936,-6.489,-6.494,-6.3484,-6.3073,-6.1843,-5.9617,-5.8796,-5.806,-5.7306,-5.6938,-5.6958,-5.7439,-5.7551,-5.7588,-5.7588,-5.7588,-5.6979,-5.5811,-5.5685,-5.4881,-5.3613,-5.3699,-5.3617,-5.3298,-5.2639,-5.2114,-5.1606,-5.0135,-4.9779,-4.9999,-4.9272,-4.9001,-4.9001,-4.9001,-4.9001,-4.8883,-4.8125,-4.7665,-4.7141,-4.6041,-4.4654,-4.3352,-4.2963,-4.2049,-4.1128,-4.0824,-4.1393,-4.1776,-4.0707,-4.1155,-4.1597,-4.0817,-4.0336,-3.9935,-3.9604,-3.9203,-3.8797,-3.8282,-3.8898,-3.9307,-3.8863,-3.8491,-3.8007,-3.7338,-3.7038,-3.69,-3.69,-3.69,-3.69,-3.69,-3.69,-3.69,-3.69,-3.6742,-3.6772,-3.7023,-3.6925,-3.6977,-3.7249,-3.7249,-3.7049,-3.6647,-3.7015,-3.7215,-3.7197,-3.7363,-3.7717,0.0,0.0,0.0,0.0,0.0,0.0,0.0,-4.7459,-4.7608,-4.9464,-4.9883,-5.0361,-5.2082,-5.1947,-5.2315,-5.4558,-5.5538,-5.6573,-5.8105,-5.9586,-6.0683,-6.1344,-6.2733,-6.3424,-6.2815,-6.3188,-6.2925,-6.1656,-6.0882,-5.9828,-5.8354,-5.7712,-5.7054,-5.6313,-5.628,-5.6414,-5.6647,-5.6954,-5.7105,-5.7122,-5.7105,-5.6188,-5.4551,-5.4253,-5.3445,-5.231,-5.2677,-5.3007,-5.3146,-5.1778,-5.1185,-5.1065,-4.9593,-4.9357,-4.9796,-4.9221,-4.9001,-4.8984,-4.8849,-4.8798,-4.8646,-4.7753,-4.7466,-4.7212,-4.5889,-4.4959,-4.4215,-4.3589,-4.2878,-4.2117,-4.139,-4.1644,-4.1745,-4.0417,-4.0544,-4.0815,-4.0231,-4.0096,-3.9842,-3.8954,-3.8785,-3.8367,-3.7064,-3.7067,-3.7401,-3.7948,-3.7556,-3.7094,-3.6781,-3.6536,-3.6409,-3.6409,-3.6409,-3.6409,-3.6409,-3.6409,-3.6409,-3.6409,-3.5904,-3.5757,-3.6003,-3.5509,-3.5356,-3.5618,-3.6268,-3.6324,-3.5836,-3.7083,-3.7426,-3.6977,-3.778,-3.8322,-4.834,-4.7797,-4.7967,-4.8825,-4.9309,-4.9713,0.0,-4.9989,-5.0151,-5.1588,-5.1872,-5.2112,-5.292,-5.301,-5.3331,-5.4466,-5.5579,-5.6429,-5.6873,-5.8472,-5.9454,-5.8955,-6.0293,-6.125,-6.1186,-6.0747,-6.0148,-5.9331,-5.8634,-5.7619,-5.615,-5.5963,-5.5593,-5.487,-5.4838,-5.5076,-5.5474,-5.6024,-5.637,-5.6397,-5.637,-5.5386,-5.3607,-5.3009,-5.2156,-5.1229,-5.2222,-5.2956,-5.3349,-5.181,-5.1185,-5.1065,-4.9593,-4.9052,-4.912,-4.9035,-4.9001,-4.8917,-4.8257,-4.8007,-4.777,-4.6413,-4.5957,-4.5788,-4.4987,-4.4164,-4.3511,-4.3426,-4.2878,-4.2117,-4.139,-4.1271,-4.1119,-4.0299,-4.0163,-4.0197,-4.013,-4.0096,-3.9706,-3.8294,-3.8024,-3.7574,-3.6186,-3.6122,-3.6362,-3.6669,-3.6606,-3.6437,-3.6224,-3.5898,-3.5694,-3.5694,-3.5694,-3.5694,-3.5694,-3.5694,-3.5694,-3.5694,-3.5275,-3.5122,-3.5392,-3.4893,-3.4729,-3.5011,-3.51,-3.542,-3.5972,-3.6149,-3.6558,-3.7161,-3.7452,-3.7896,-4.899,-4.8536,-4.8944,-5.0456,-5.1267,-5.1858,-5.2596,-5.2343,-5.2336,-5.3668,-5.4251,-5.47,-5.5344,-5.5164,-5.5185,0.0,-5.6449,-5.6819,-5.692,-5.7942,-5.8308,-5.7292,-5.7076,-5.7521,-5.8813,-5.8353,-5.7658,-5.6963,-5.6252,-5.5604,-5.5007,-5.4538,-5.4175,-5.3832,-5.3832,-5.4046,-5.4543,-5.5174,-5.5263,-5.477,-5.4881,-5.392,-5.2028,-5.1493,-5.1199,-5.1176,-5.149,-5.1958,-5.2404,-5.0742,-5.004,-4.9874,-4.8838,-4.8405,-4.8468,-4.8846,-4.9001,-4.89,-4.8173,-4.7889,-4.7652,-4.6194,-4.5703,-4.5568,-4.4835,-4.4378,-4.4096,-4.4096,-4.3876,-4.3379,-4.2151,-4.183,-4.1542,-4.0383,-4.0096,-4.0096,-4.0096,-4.0096,-3.9673,-3.8193,-3.7905,-3.7432,-3.5938,-3.5739,-3.5849,-3.5954,-3.6114,-3.6139,-3.5958,-3.5717,-3.56,-3.56,-3.56,-3.543,-3.5013,-3.4962,-3.4776,-3.4349,-3.3807,-3.3587,-3.3781,-3.3246,-3.3032,-3.3196,-3.367,-3.4056,-3.4372,-3.5266,-3.588,-3.6231,-3.6863,-3.7395,-4.9667,-4.956,-5.0125,-5.2137,-5.3022,-5.3596,-5.4467,-5.4195,-5.4012,-5.4985,-5.5568,-5.6047,-5.6496,-5.6062,-5.5837,-5.6466,-5.687,-5.6974,-5.6615,-5.7304,-5.7289,-5.5807,-5.4625,-5.4503,-5.5902,-5.558,-5.5086,-5.4653,-5.4097,-5.3697,-5.3557,-5.3018,-5.2711,-5.2711,-5.2711,-5.2934,-5.3418,-5.4105,-5.4009,-5.3216,-5.3159,-5.2238,-5.0545,-5.0071,-5.0271,-5.1064,-5.0798,-5.1022,-5.1427,-4.9709,-4.8843,-4.8524,-4.7784,-4.739,-4.7325,-4.8127,-4.8593,-4.8742,-4.7828,-4.7537,-4.7361,-4.5872,-4.5399,-4.5297,-4.4767,-4.4615,-4.4564,-4.4316,-4.4265,-4.391,-4.2388,-4.1999,-4.1677,-4.04,-4.0096,-4.0096,-4.0096,-4.0096,-3.9673,-3.8193,-3.7905,-3.7415,-3.587,-3.56,-3.56,-3.56,-3.5805,-3.5915,-3.5756,-3.5667,-3.56,-3.56,-3.5414,-3.5081,-3.4539,-3.4303,-3.3964,-3.344,-3.2812,-3.2488,-3.2596,-3.1972,-3.1673,-3.1786,-3.234,-3.2756,-3.2947,-3.4071,-3.4832,-3.5227,-3.6003,-3.6628,-5.0746,-5.1199,-5.1717,-5.3792,-5.4439,-5.4731,-5.5471,-5.5368,-5.5149,-5.5179,-5.5209,-5.5224,-5.5239,-5.4715,-5.4476,-5.5149,-5.6286,-5.666,-5.5418,-5.6331,-5.6421,-5.4506,-5.3638,-5.3013,0.0,-5.2357,-5.2342,-5.2312,-5.2297,-5.1965,-5.1321,-5.1276,-5.1261,-5.1261,-5.1261,-5.1494,-5.1972,-5.262,-5.2678,-5.2027,-5.134,-5.0403,-4.9346,-4.8886,-4.9309,-5.0403,-5.0209,-5.0435,-5.0808,-4.8975,-4.7883,-4.7289,-4.6532,-4.5878,-4.5417,-4.6484,-4.7572,-4.8346,-4.6992,-4.6684,-4.6583,-4.5122,-4.4632,-4.4632,-4.4615,-4.4615,-4.4445,-4.3673,-4.3426,-4.3088,-4.1627,-4.1238,-4.1035,-4.0282,-4.0096,-4.0096,-4.0096,-4.0096,-3.9673,-3.8193,-3.7905,-3.7415,-3.587,-3.56,-3.56,-3.56,-3.5622,-3.5622,-3.56,-3.56,-3.56,-3.56,-3.4962,-3.4523,-3.4489,-3.3846,-3.3423,-3.3406,-3.2716,-3.231,-3.2313,-3.1619,-3.121,-3.123,-3.1247,-3.1619,-3.2313,-3.2385,-3.3126,-3.4532,-3.4819,-3.5486,-5.206,-5.2866,-5.3742,-5.5539,-5.5911,-5.6015,-5.6669,-5.6313,-5.5718,-5.5284,-5.5194,-5.5194,-5.5194,-5.5014,-5.5074,-5.5733,-5.693,-5.7468,-5.657,-5.7214,-5.7049,-5.5089,-5.3862,0.0,0.0,0.0,0.0,-5.1558,-5.1558,-5.1454,-5.1229,-5.1214,-5.1214,-5.1214,-5.1214,-5.1144,-5.1061,-5.1558,-5.1214,-4.9996,-4.9121,-4.8422,-4.7968,-4.781,-4.8302,-4.924,-4.8312,-4.8007,-4.8009,-4.6512,-4.5365,-4.4563,-4.4311,-4.4075,-4.3971,-4.4694,-4.5486,-4.6188,-4.6165,-4.6441,-4.6549,-4.5089,-4.4231,-4.3809,-4.3809,-4.3809,-4.3656,-4.2878,-4.3031,-4.3054,-4.1593,-4.1204,-4.1018,-4.0282,-4.0096,-4.0096,-4.0096,-4.0096,-3.9673,-3.8193,-3.7905,-3.7415,-3.587,-3.56,-3.56,-3.56,-3.56,-3.56,-3.56,-3.56,-3.56,-3.56,-3.4945,-3.4303,-3.3812,-3.3085,-3.2459,-3.1968,-3.1698,-3.1582,-3.1582,-3.1326,-3.119,-3.119,-3.119,-3.1309,-3.1582,-3.2056,-3.2564,-3.3072,-3.4219,-3.5027,-5.3337,-5.4332,-5.5296,-5.697,-5.6967,-5.6658,-5.7277,-5.6781,-5.5912,-5.5029,-5.464,-5.4476,-5.4476,-5.4087,-5.4147,-5.5284,-5.657,-5.7274,-5.6825,-5.7543,-5.7393,-5.5418,-5.4221,-5.3189,0.0,0.0,0.0,-5.1214,-5.1214,-5.1214,-5.1214,-5.1214,-5.1214,-5.1214,-5.1214,-5.0947,-5.0471,-5.0774,-5.0077,-4.8386,-4.7792,-4.7304,-4.6935,-4.7118,-4.7654,-4.8279,-4.6787,-4.6103,-4.5925,-4.4456,-4.3329,-4.254,-4.254,-4.2386,-4.2309,-4.3165,-4.3813,-4.4448,-4.5243,-4.5905,-4.616,-4.4654,-4.3826,-4.3341,-4.3098,-4.3014,-4.2861,-4.2117,-4.2252,-4.2337,-4.1119,-4.0798,-4.0679,-4.0214,-4.0096,-4.0096,-4.0096,-4.0096,-3.9673,-3.8193,-3.7905,-3.7415,-3.587,-3.56,-3.56,-3.56,-3.56,-3.56,-3.56,-3.56,-3.56,-3.56,-3.4709,-3.3914,-3.344,-3.2476,-3.1698,-3.1224,-3.119,-3.119,-3.119,-3.119,-3.119,-3.119,-3.119,-3.119,-3.119,-3.1684,-3.2039,-3.2327,-3.3375,-3.4172,-5.4561,-5.5572,-5.6416,-5.8047,-5.7469,-5.6594,-5.7167,-5.6659,-5.5643,-5.4326,-5.3488,-5.298,-5.298,-5.1962,-5.1768,-5.3788,-5.5269,-5.6233,-5.6211,-5.7348,-5.7453,0.0,0.0,0.0,0.0,0.0,0.0,-5.1214,0.0,-5.1214,-5.1214,-5.1214,-5.1199,-5.1169,-5.1169,-5.0794,-5.0106,-5.0061,-4.9149,-4.7309,-4.7279,-4.6935,-4.6322,-4.6694,-4.7181,-4.7561,-4.5633,-4.4772,-4.4617,-4.2913,-4.1841,-4.128,-4.128,-4.0905,-4.0522,-4.1882,-4.2664,-4.3169,-4.4171,-4.5013,-4.5399,-4.3882,-4.3341,-4.3139,-4.2455,-4.2236,-4.2083,-4.1356,-4.117,-4.1035,-4.0299,-4.0096,-4.0096,-4.0096,-4.0096,-4.0096,-4.0096,-4.0096,-3.9673,-3.8193,-3.7838,-3.733,-3.5853,-3.56,-3.56,-3.56,-3.56,-3.56,-3.56,-3.56,-3.56,-3.56,-3.4264,-3.3406,-3.3406,-3.2053,-3.119,-3.119,-3.119,-3.119,-3.119,-3.119,-3.119,-3.119,-3.119,-3.119,-3.119,-3.119,-3.1546,-3.2242,-3.2276,-3.3072,-5.5913,-5.6855,-5.748,-5.7819,-5.6873,-5.5839,-5.5914,-5.4888,-5.3563,-5.2247,-5.1065,-5.0303,-5.0303,-4.9987,-5.0406,-5.2396,-5.4655,0.0,-5.6795,-5.8007,0.0,-5.678,0.0,-5.4416,-5.3069,-5.1454,0.0,0.0,-5.1214,-5.1214,-5.1214,-5.1214,-5.0943,-5.0465,-5.0435,-4.9942,-4.879,-4.8297,-4.7803,-4.7294,-4.68,-4.6486,-4.6292,-4.5548,-4.543,-4.5784,-4.4159,-4.3302,-4.2882,-4.1617,-4.0631,-3.9918,-3.9918,-3.9813,-3.9751,-4.0497,-4.1261,-4.1929,-4.2089,-4.3353,-4.4705,-4.3724,-4.2675,-4.1745,-4.1542,-4.1474,-4.1322,-4.0578,-4.0781,-4.1035,-4.0299,-4.0096,-4.0096,-4.0096,-4.0096,-4.0096,-4.0096,-4.0096,-3.9673,-3.8193,-3.6969,-3.6056,-3.5667,-3.56,-3.56,-3.56,-3.56,-3.56,-3.56,-3.56,-3.56,-3.56,-3.4264,-3.3406,-3.3406,-3.2053,-3.119,-3.119,-3.119,-3.119,-3.119,-3.119,-3.119,-3.119,-3.119,-3.119,-3.119,-3.119,-3.1292,-3.1478,-3.2039,-3.2801,-5.6494,-5.734,-5.7921,-5.7886,-5.6858,-5.5853,-5.5742,-5.4329,-5.2743,-5.1611,-5.0034,-4.897,-4.9269,-4.9075,-4.9479,-5.1454,0.0,0.0,-5.6166,-5.7393,-5.7842,0.0,-5.5807,0.0,-5.3309,-5.1917,-5.1124,0.0,-5.0945,-5.0868,-5.1199,-5.1214,-5.0868,-5.0211,-5.0196,-4.9613,-4.8297,-4.7638,-4.7309,-4.7294,-4.6636,-4.6172,-4.5828,-4.4603,-4.3997,-4.391,0.0,-4.1692,-4.1395,-4.051,-3.9862,-3.9388,-3.9388,-3.9388,-3.9445,-3.993,-4.0547,-4.1117,-4.0944,-4.161,-4.2497,-4.2183,-4.1506,-4.0785,-4.0433,-4.0316,-4.0232,-3.9813,-3.9998,-4.0258,-3.9908,-3.9884,-3.9935,-3.9986,-4.0062,-4.0096,-4.0096,-4.0096,-3.9673,-3.8193,-3.6648,-3.56,-3.56,-3.56,-3.56,-3.56,-3.5571,-3.5526,-3.5481,-3.5532,-3.56,-3.56,-3.4264,-3.3406,-3.3406,-3.2053,-3.119,-3.119,-3.119,-3.119,-3.119,-3.119,-3.119,-3.119,-3.119,-3.119,-3.119,-3.119,-3.119,-3.1207,-3.1633,-3.2374,-5.6748,-5.7408,-5.7941,-5.7979,-5.7056,-5.6069,-5.5847,-5.4106,-5.2245,-5.1379,-4.9419,-4.8087,-4.8805,-4.8416,-4.8701,-5.075,-5.277,-5.4296,-5.497,-5.6166,-5.6705,-5.6002,-5.5403,-5.4536,-5.3174,-5.2531,-5.1932,-5.1274,-5.0644,-5.0539,-5.1065,-5.1094,-5.0704,-4.9956,-4.9852,-4.9299,-4.8162,-4.7504,-4.7174,-4.7174,-4.6411,-4.5693,-4.499,-4.3763,-4.2851,-4.2201,-4.0935,0.0,-4.0352,-3.9694,-3.9388,-3.9388,-3.9388,-3.9388,-3.946,-3.9818,-4.0189,-4.0473,-4.0138,-3.9866,-3.9722,-4.0066,-4.0117,-3.9919,-3.9242,-3.9001,-3.9001,-3.9001,-3.9001,-3.9055,-3.9265,-3.9468,-3.9635,-3.9781,-3.9961,-4.0096,-4.0096,-3.996,-3.9436,-3.8159,-3.6648,-3.56,-3.56,-3.56,-3.56,-3.56,-3.5543,-3.5423,-3.5228,-3.5396,-3.5554,-3.5554,-3.4344,-3.3487,-3.3423,-3.2138,-3.1292,-3.1207,-3.1171,-3.1171,-3.1151,-3.1151,-3.1151,-3.1151,-3.1171,-3.1171,-3.119,-3.119,-3.119,-3.119,-3.119,-3.1985,-5.7509,-5.7797,-5.7842,-5.7532,-5.637,-5.5133,-5.4453,-5.2225,-5.0051,-4.9069,-4.7226,-4.6022,-4.6711,-4.6741,-4.7445,-4.9956,-5.2067,-5.3593,-5.4281,-5.5508,-5.5897,0.0,-5.4446,-5.3847,-5.2501,-5.2261,0.0,0.0,0.0,-5.0823,-5.039,-5.036,-4.9853,-4.8671,-4.8087,-4.7713,-4.7474,-4.683,-4.6444,-4.6444,-4.5244,-4.4317,-4.3604,-4.288,-4.2216,-4.1542,-4.0726,0.0,-4.0352,-3.9694,-3.9388,-3.9388,-3.9388,-3.9388,-3.9424,-3.9661,-3.9636,-3.937,-3.8895,-3.8541,-3.8417,-3.8983,-3.874,-3.8212,-3.8084,-3.8035,-3.8035,-3.8035,-3.8035,-3.8108,-3.8435,-3.8778,-3.9102,-3.9418,-3.9816,-4.0096,-4.0096,-3.914,-3.821,-3.7956,-3.6648,-3.56,-3.56,-3.56,-3.56,-3.56,-3.5435,-3.5205,-3.4776,-3.5102,-3.536,-3.536,-3.4628,-3.3941,-3.3436,-3.2594,-3.1853,-3.1241,-3.1092,-3.1012,-3.0952,-3.0952,-3.0952,-3.0952,-3.1012,-3.1092,-3.119,-3.119,-3.119,-3.119,-3.119,-3.1985,-5.849,-5.8473,-5.8298,-5.7614,-5.6479,-5.521,-5.4004,-5.1645,-4.9371,-4.8178,-4.6232,-4.499,-4.5663,-4.5783,-4.6426,-4.8386,-5.0361,-5.1887,-5.2561,-5.3488,-5.3997,-5.3713,-5.3668,-5.3294,-5.2291,-5.2516,-5.2157,-5.0764,0.0,-5.0524,-5.0211,-4.9598,-4.8775,-4.7803,-4.7474,-4.7145,-4.68,-4.6444,-4.6279,-4.6264,-4.4575,-4.3464,-4.2791,-4.1788,-4.098,-4.0337,-4.0023,0.0,-3.9858,-3.9508,-3.9388,-3.9388,-3.9388,-3.92,-3.8886,-3.8992,-3.8697,-3.819,-3.7607,-3.7332,-3.7208,-3.7141,-3.7216,-3.7324,-3.7324,-3.7324,-3.7324,-3.7324,-3.7324,-3.7413,-3.7838,-3.8306,-3.8805,-3.9189,-3.9722,-4.0096,-4.0096,-3.8937,-3.7905,-3.7905,-3.6648,-3.56,-3.56,-3.5571,-3.5526,-3.5458,-3.5251,-3.493,-3.4496,-3.4747,-3.4977,-3.4944,-3.4441,-3.4057,-3.3977,-3.3288,-3.2713,-3.2374,-3.1823,-3.1403,-3.1162,-3.0796,-3.0593,-3.0593,-3.0773,-3.114,-3.1769,-3.1769,-3.1968,-3.2341,-3.2341,-3.2933,-5.9404,-5.9133,-5.8792,-5.7884,-5.6613,-5.5201,-5.3693,-5.1029,-4.8537,-4.7329,-4.5272,-4.3883,-4.4556,-4.4661,-4.5155,-4.6636,-4.8372,-4.9792,-5.0496,-5.1274,-5.1977,-5.2486,-5.28,0.0,-5.2052,-5.271,0.0,0.0,0.0,0.0,-4.9777,-4.8716,-4.7833,-4.7324,-4.7174,-4.6845,-4.6337,-4.5995,-4.5846,-4.5831,-4.4112,-4.291,-4.2156,-4.1085,-4.0172,-3.9388,-3.9388,0.0,0.0,-3.9388,-3.9388,-3.9388,-3.9388,-3.899,-3.8392,-3.8392,-3.7883,-3.715,-3.6656,-3.6387,-3.6193,-3.5669,-3.6005,-3.6616,-3.6616,-3.6616,-3.6616,-3.6616,-3.6616,-3.6738,-3.7222,-3.7838,-3.8546,-3.9216,-3.9747,-4.0096,-4.0096,-3.8937,-3.7905,-3.7905,-3.6648,-3.56,-3.56,-3.5503,-3.54,-3.5165,-3.493,-3.4618,-3.4193,-3.4382,-3.4578,-3.4592,-3.4373,-3.4287,-3.4484,-3.3943,-3.3495,-3.3322,-3.2529,-3.1812,-3.1254,-3.0686,-3.0346,-3.0246,-3.068,-3.1374,-3.2293,-3.2462,-3.2831,-3.3406,-3.3406,-3.3795,-6.0013,-5.9522,-5.8829,-5.8084,-5.629,-5.4341,-5.2848,-4.9447,-4.6375,-4.5593,-4.3403,-4.1886,-4.2545,-4.2665,-4.3294,-4.517,-4.6666,-4.7803,-4.8461,-4.9628,-5.0405,-5.045,0.0,0.0,-5.1379,-5.2441,0.0,0.0,0.0,0.0,-4.8461,-4.7788,-4.7369,-4.7309,-4.6726,-4.6339,-4.6279,-4.511,-4.4496,-4.4481,-4.3663,-4.2686,-4.1512,-4.1339,-4.0606,-3.9388,-3.9388,0.0,0.0,-3.9388,-3.9388,-3.9388,-3.9388,-3.899,-3.8392,-3.8392,-3.7614,-3.6567,-3.6507,-3.6088,-3.5594,-3.5534,-3.5569,-3.5619,-3.5619,-3.5619,-3.5619,-3.5619,-3.5619,-3.578,-3.6414,-3.7237,-3.8234,-3.9679,-4.0045,-4.0096,-4.0096,-3.8937,-3.7905,-3.7905,-3.6648,-3.56,-3.56,-3.5435,-3.5165,-3.4728,-3.4472,-3.4193,-3.3726,-3.3951,-3.4267,-3.4568,-3.4925,-3.4997,-3.4535,-3.4334,-3.3866,-3.3081,-3.2557,-3.1805,-3.0819,-3.0709,-3.0445,-3.0027,-3.1011,-3.1775,-3.2293,-3.2966,-3.3339,-3.3406,-3.3406,-3.3795,-5.9455,-5.9235,-5.8727,-5.7526,-5.5902,-5.409,-5.2189,-4.8898,-4.5971,-4.4783,-4.2875,-4.1459,-4.1767,-4.1811,-4.2282,-4.3868,-4.5229,-4.6471,-4.7549,-4.8491,-4.9209,-4.9613,-5.0122,0.0,0.0,0.0,-5.1349,0.0,0.0,0.0,-4.7698,-4.7459,-4.713,-4.6726,-4.6456,-4.6127,-4.5708,-4.4781,-4.4317,-4.4302,-4.3254,-4.2267,-4.1407,-4.0965,-4.0292,-3.9388,-3.9388,0.0,0.0,-3.9388,-3.917,-3.8796,-3.8796,-3.8167,-3.7255,-3.7255,-3.6671,-3.5893,-3.5893,-3.5729,-3.5504,-3.5504,-3.5504,-3.5504,-3.5504,-3.5504,-3.5504,-3.5504,-3.5504,-3.5651,-3.6336,-3.7387,-3.8535,-3.9609,-3.9807,-3.9703,-3.9592,-3.843,-3.7402,-3.7402,-3.6272,-3.5321,-3.5412,-3.5228,-3.4906,-3.4439,-3.4193,-3.3908,-3.3455,-3.3806,-3.4234,-3.4634,-3.4977,-3.518,-3.5155,-3.5004,-3.4626,-3.4001,-3.3099,-3.2208,-3.1281,-3.1018,-3.0879,-3.0903,-3.1645,-3.2536,-3.363,-3.3914,-3.4303,-3.4721,-3.4721,-3.4873,-5.8896,-5.9015,-5.866,-5.7171,-5.553,-5.3702,-5.149,-4.8213,-4.5349,-4.4109,-4.2212,-4.0801,-4.0801,-4.0801,-4.122,-4.2551,-4.3688,-4.496,-4.6486,-4.7294,-4.7952,-4.8655,0.0,-4.9015,0.0,-4.9808,-5.0047,0.0,0.0,0.0,-4.7309,-4.7309,-4.71,-4.6636,-4.6232,-4.5783,-4.5289,-4.4451,-4.4018,-4.4003,-4.2895,-4.2051,-4.1392,-4.0696,-4.0038,-3.9388,-3.9388,0.0,0.0,-3.9388,-3.9005,-3.8392,-3.8392,-3.7614,-3.6492,-3.6492,-3.6073,-3.5504,-3.5504,-3.5504,-3.5504,-3.5504,-3.5504,-3.5504,-3.5504,-3.5504,-3.5504,-3.5504,-3.5619,-3.5957,-3.6693,-3.7695,-3.8678,-3.9312,-3.9329,-3.9131,-3.8838,-3.7695,-3.6694,-3.6694,-3.5638,-3.4842,-3.5055,-3.4883,-3.4554,-3.4095,-3.3841,-3.3565,-3.3145,-3.3549,-3.4093,-3.461,-3.493,-3.5228,-3.5577,-3.5389,-3.5008,-3.452,-3.3501,-3.2485,-3.1515,-3.1291,-3.1281,-3.151,-3.2203,-3.3158,-3.438,-3.4594,-3.4919,-3.5396,-3.5441,-3.5487,-5.8609,-5.9015,-5.866,-5.7171,-5.5141,-5.2944,-5.0724,-4.7088,-4.4024,-4.3361,-4.1209,-3.9403,-3.9403,-3.9403,-3.9873,-4.119,-4.1991,-4.3114,-4.5035,-4.5918,-4.6591,0.0,0.0,-4.8297,-4.8297,-4.8312,0.0,0.0,0.0,0.0,-4.7309,-4.7309,-4.7309,-4.7294,-4.6007,-4.5304,-4.5289,-4.4003,-4.3305,-4.329,-4.2671,-4.2051,-4.1392,-4.0696,-4.0038,0.0,0.0,0.0,0.0,-3.9388,-3.9005,-3.8392,-3.8392,-3.7614,-3.6492,-3.6492,-3.6073,-3.5504,-3.5504,-3.5504,-3.5504,-3.5504,-3.5504,-3.5504,-3.5504,-3.5504,-3.5504,-3.5504,-3.5972,-3.6693,-3.7576,-3.8039,-3.8395,-3.8816,-3.8707,-3.839,-3.7908,-3.6702,-3.5694,-3.5694,-3.4794,-3.4137,-3.4528,-3.4448,-3.4143,-3.3675,-3.3429,-3.3145,-3.2683,-3.3071,-3.3716,-3.452,-3.4897,-3.5228,-3.5577,-3.5281,-3.4859,-3.4235,-3.3578,-3.2613,-3.1267,-3.1451,-3.1565,-3.151,-3.2602,-3.3491,-3.4119,-3.4774,-3.5041,-3.4923,-3.5041,-3.5245,-5.5581,-5.6376,-5.6374,-5.4749,-5.333,-5.1714,-4.9383,-4.6255,-4.3664,-4.2936,-4.0978,-3.9388,-3.9388,-3.9388,-3.9843,-4.1175,-4.1976,-4.3084,-4.502,-4.5888,0.0,-4.7234,-4.7489,-4.7803,0.0,0.0,0.0,0.0,0.0,0.0,-4.7309,-4.6875,-4.6845,-4.7294,-4.5992,-4.5289,-4.5289,-4.3947,-4.3105,-4.2671,-4.25,-4.1826,-4.0711,-4.0502,-3.9783,0.0,0.0,0.0,0.0,-3.8048,-3.7674,-3.709,-3.709,-3.6567,-3.5818,-3.5818,-3.5684,-3.5504,-3.5504,-3.5504,-3.5504,-3.5504,-3.5504,-3.5504,-3.5504,-3.5504,-3.5504,-3.5504,-3.5972,-3.6708,-3.756,-3.7982,-3.8242,-3.8557,-3.8351,-3.7911,-3.731,-3.6106,-3.5147,-3.5147,-3.4232,-3.3604,-3.4027,-3.3908,-3.3652,-3.3381,-3.3044,-3.2699,-3.237,-3.2695,-3.3266,-3.4027,-3.4382,-3.4835,-3.5554,-3.5211,-3.4626,-3.3827,-3.3251,-3.2466,-3.1453,-3.1897,-3.2409,-3.2926,-3.3524,-3.4007,-3.4452,-3.4462,-3.4423,-3.4301,-3.4601,-3.492,-5.2401,-5.345,-5.3653,-5.2219,-5.1028,-4.9725,-4.7675,-4.5019,-4.282,-4.2212,-4.0652,-3.9388,-3.9388,-3.9388,-3.9768,-4.0846,-4.1354,-4.2312,-4.4272,0.0,0.0,-4.7174,0.0,0.0,0.0,0.0,0.0,0.0,0.0,0.0,-4.7309,-4.6681,-4.6396,-4.6546,-4.5484,-4.493,-4.493,-4.3828,-4.3015,-4.2396,-4.2141,-4.1467,-4.0382,-4.0142,-3.9439,0.0,0.0,0.0,0.0,-3.7404,-3.7045,-3.6492,-3.6492,-3.6088,-3.5504,-3.5504,-3.5504,-3.5504,-3.5504,-3.5504,-3.5504,-3.5504,-3.5504,-3.5504,-3.5504,-3.5504,-3.5504,-3.5504,-3.5972,-3.6708,-3.756,-3.7911,-3.8059,-3.8193,-3.7867,-3.7296,-3.6523,-3.5323,-3.437,-3.437,-3.3491,-3.2873,-3.3324,-3.3261,-3.3113,-3.3002,-3.2668,-3.2315,-3.1966,-3.2259,-3.2738,-3.3324,-3.3662,-3.4086,-3.4793,-3.4682,-3.4267,-3.3495,-3.2986,-3.241,-3.1726,-3.2203,-3.283,-3.3588,-3.3764,-3.4034,-3.4317,-3.3894,-3.3732,-3.3825,-3.4243,-3.4666,0.0,-5.0439,-5.0867,-4.9852,-4.8661,-4.7325,-4.5905,-4.3617,0.0,-4.1367,-4.0293,-3.9388,-3.9388,-3.9388,-3.9649,-4.0352,-4.0472,-4.116,0.0,-4.3977,0.0,0.0,-4.677,0.0,-4.8027,0.0,0.0,0.0,0.0,0.0,-4.716,-4.6531,-4.5858,-4.5185,-4.4511,-4.4197,-4.4242,-4.3559,-4.294,-4.2321,-4.1662,-4.0935,-4.0232,-3.9619,-3.8945,0.0,0.0,0.0,0.0,-3.727,-3.6971,-3.6492,-3.6432,-3.6073,-3.5564,-3.5519,-3.5504,-3.5504,-3.5504,-3.5504,-3.5504,-3.5504,-3.5504,-3.5504,-3.5504,-3.5504,-3.5504,-3.5504,-3.5957,-3.6693,-3.7546,-3.7812,-3.7844,-3.778,-3.7294,-3.6616,-3.5716,-3.4442,-3.3499,-3.3499,-3.2673,-3.2122,-3.2492,-3.2559,-3.2574,-3.2559,-3.2342,-3.201,-3.1568,-3.1783,-3.215,-3.252,-3.2788,-3.3119,-3.3521,-3.385,-3.379,-3.3198,-3.2815,-3.2437,-3.2066,-3.2425,-3.2938,-3.3578,-3.3497,-3.3539,-3.3771,-3.3044,-3.2953,-3.3435,-3.3926,-3.4399,-4.6447,0.0,-5.0257,-4.9736,-4.8662,-4.7358,0.0,-4.351,-4.167,-4.1183,-4.0164,-3.9388,-3.9388,-3.9388,-3.9798,-4.0965,-4.1145,-4.1833,-4.3808,-4.5053,0.0,-4.7189,-4.7174,-4.6995,-4.68,0.0,0.0,0.0,0.0,-4.5768,-4.5768,-4.514,-4.4496,-4.3853,-4.318,-4.306,-4.3514,-4.2925,-4.2291,-4.1647,-4.095,-4.0008,-3.8856,-3.8706,-3.8018,0.0,0.0,0.0,-3.5953,-3.5953,-3.6163,-3.6432,-3.5938,-3.5953,-3.6193,-3.5684,-3.5504,-3.5504,-3.5504,-3.5504,-3.5504,-3.5504,-3.5504,-3.5504,-3.5504,-3.5504,-3.5504,-3.5504,-3.5861,-3.6445,-3.728,-3.7431,-3.7387,-3.7458,-3.7027,-3.6383,-3.5666,-3.4442,-3.3499,-3.3499,-3.263,-3.194,-3.2247,-3.2219,-3.2178,-3.2274,-3.2066,-3.1813,-3.1524,-3.1683,-3.1968,-3.2274,-3.2437,-3.2668,-3.296,-3.3251,-3.3214,-3.2776,-3.2641,-3.2574,-3.2465,-3.2796,-3.3182,-3.3598,-3.3082,-3.2738,-3.259,-3.2064,-3.2092,-3.2672,-3.3407,-3.4061,-4.5906,-4.7124,-4.8095,-4.8092,-4.7166,-4.5913,-4.4719,-4.2819,-4.1175,-4.071,-3.9988,-3.9388,-3.9388,-3.9388,-3.9753,-4.0771,-4.0935,-4.1624,0.0,0.0,-4.5768,-4.6741,-4.6576,-4.6367,0.0,0.0,0.0,0.0,0.0,-4.517,-4.487,-4.4227,-4.3434,-4.2506,-4.2141,-4.2261,-4.288,-4.2276,-4.1767,-4.1407,-4.0711,-3.9694,-3.8392,-3.8392,-3.7689,0.0,0.0,0.0,-3.5504,-3.5504,-3.5893,-3.6417,-3.5759,-3.5908,-3.6417,-3.5744,-3.5504,-3.5504,-3.5504,-3.5504,-3.5504,-3.5504,-3.5504,-3.5504,-3.5504,-3.5504,-3.5504,-3.5504,-3.5797,-3.6258,-3.6874,-3.6996,-3.6967,-3.7025,-3.6692,-3.6195,-3.5619,-3.4442,-3.3499,-3.3499,-3.2511,-3.1712,-3.1868,-3.1811,-3.1798,-3.1868,-3.1769,-3.1626,-3.1511,-3.1597,-3.1712,-3.1868,-3.1938,-3.2035,-3.2188,-3.2339,-3.2422,-3.2425,-3.2425,-3.2465,-3.2586,-3.2769,-3.2915,-3.3039,-3.2641,-3.2287,-3.2025,-3.1683,-3.1783,-3.2315,-3.3066,-3.3707,-4.638,-4.6346,-4.6017,-4.6545,-4.5749,-4.4644,-4.3961,-4.24,-4.1016,-4.0646,-4.0051,-3.9568,-3.9709,-3.9634,-3.9843,-4.0711,-4.101,0.0,-4.3349,-4.4067,-4.4885,-4.5995,-4.5648,0.0,0.0,0.0,0.0,0.0,0.0,-4.4706,-4.4047,-4.3494,-4.2581,-4.1265,-4.1235,-4.1542,-4.2096,-4.1542,-4.1235,-4.122,-4.0561,-3.9544,-3.8242,-3.8242,-3.7539,-3.6342,0.0,0.0,-3.5504,-3.5504,-3.5953,-3.6552,-3.5804,-3.5968,-3.6537,-3.5789,-3.5504,-3.5504,-3.5504,-3.5504,-3.5504,-3.5504,-3.5504,-3.5504,-3.5504,-3.5504,-3.5504,-3.5504,-3.5701,-3.6038,-3.6446,-3.6585,-3.6585,-3.6554,-3.6321,-3.6022,-3.5587,-3.4442,-3.3499,-3.3499,-3.2437,-3.1511,-3.1511,-3.1511,-3.1511,-3.1511,-3.1511,-3.1511,-3.1511,-3.1511,-3.1511,-3.1511,-3.1511,-3.1511,-3.1511,-3.1511,-3.1668,-3.2051,-3.2135,-3.2287,-3.2602,-3.259,-3.2523,-3.237,-3.2191,-3.1981,-3.1756,-3.1568,-3.1726,-3.2191,-3.2815,-3.3345,-4.638,-4.6718,-4.6925,-4.8127,-4.7582,-4.659,-4.5849,-4.4234,-4.2778,-4.2325,-4.1173,-4.0427,-4.098,-4.0621,-4.0831,-4.2557,-4.3823,-4.4646,0.0,0.0,-4.5214,-4.5424,0.0,0.0,0.0,0.0,0.0,0.0,0.0,-4.3344,-4.2725,-4.2605,-4.1946,-4.0591,-4.0546,-4.0591,-4.0696,-4.0591,-4.0546,-4.0546,-3.9888,-3.8871,-3.7554,-3.7554,-3.6866,-3.5654,0.0,-3.5609,-3.5504,-3.5504,-3.6207,-3.715,-3.5968,-3.6222,-3.712,-3.5953,-3.5504,-3.5504,-3.5504,-3.5504,-3.5504,-3.5504,-3.5504,-3.5504,-3.5504,-3.5504,-3.5504,-3.5504,-3.5636,-3.5816,-3.6164,-3.6179,-3.6116,-3.6227,-3.6006,-3.5735,-3.5522,-3.4442,-3.3499,-3.3499,-3.2437,-3.1511,-3.1511,-3.1511,-3.1511,-3.1511,-3.1511,-3.1511,-3.1511,-3.1511,-3.1511,-3.1511,-3.1511,-3.1511,-3.1511,-3.1511,-3.1524,-3.1582,-3.1868,-3.2191,-3.2586,-3.2602,-3.2465,-3.2247,-3.1811,-3.1597,-3.1539,-3.1511,-3.1668,-3.2038,-3.2492,-3.2841,-4.5906,-4.621,-4.6536,-4.7824,-4.8166,-4.8082,-4.7787,-4.595,-4.4152,-4.3521,-4.1812,-4.0591,-4.1265,-4.113,-4.1579,-4.3499,0.0,-4.517,-4.4811,-4.4766,-4.4631,0.0,0.0,0.0,0.0,0.0,0.0,0.0,0.0,0.0,-4.1901,-4.1527,-4.0861,-3.9903,-3.9873,-3.9873,-3.9873,-3.9873,-4.0053,-4.0382,-3.9738,-3.8706,-3.7404,-3.7404,-3.6701,-3.5504,0.0,-3.5504,-3.5504,-3.5504,-3.6058,-3.6821,-3.5878,-3.6088,-3.6791,-3.5848,-3.5504,-3.5504,-3.5504,-3.5504,-3.5504,-3.5504,-3.5504,-3.5504,-3.5504,-3.5504,-3.5504,-3.5504,-3.5554,-3.5636,-3.5797,-3.5765,-3.5733,-3.5797,-3.5686,-3.5572,-3.5504,-3.4726,-3.4054,-3.4054,-3.3245,-3.2587,-3.2587,-3.2587,-3.2587,-3.2587,-3.2587,-3.2587,-3.2587,-3.2587,-3.2587,-3.2587,-3.2587,-3.2587,-3.2587,-3.2243,-3.1943,-3.1685,-3.1925,-3.2163,-3.2259,-3.2342,-3.2274,-3.1996,-3.1683,-3.1511,-3.1511,-3.1511,-3.1626,-3.1898,-3.2247,-3.2492,-4.55,-4.5703,-4.6,-4.7224,-4.8093,-4.8656,-4.8845,-4.7109,-4.5313,-4.4601,-4.2641,-4.125,-4.1743,-4.2087,-4.2791,-4.4302,-4.5229,-4.5484,-4.4661,-4.4541,-4.4242,-4.3394,-4.329,0.0,0.0,0.0,0.0,0.0,0.0,0.0,-4.1452,-4.0756,-4.0172,-3.9664,-3.9463,-3.9499,-3.9649,-3.9499,-3.9589,-3.9933,-3.9424,-3.8482,-3.7195,-3.7195,-3.6582,-3.5504,-3.5504,-3.5504,-3.5504,-3.5504,-3.5893,-3.6417,-3.5759,-3.5804,-3.6193,-3.5684,-3.5504,-3.5504,-3.5504,-3.5504,-3.5504,-3.5504,-3.5504,-3.5504,-3.5504,-3.5504,-3.5504,-3.5504,-3.5504,-3.5504,-3.5504,-3.5504,-3.5504,-3.5504,-3.5504,-3.5504,-3.5504,-3.4966,-3.4503,-3.4503,-3.3948,-3.3499,-3.3499,-3.3499,-3.3499,-3.3499,-3.3499,-3.3499,-3.3499,-3.3499,-3.3499,-3.3499,-3.3499,-3.344,-3.3275,-3.2811,-3.2272,-3.1772,-3.1925,-3.1981,-3.1883,-3.1981,-3.1925,-3.1727,-3.1568,-3.1511,-3.1511,-3.166,-3.1793,-3.1953,-3.2347,-3.2579,-4.55,-4.5703,-4.5971,-4.7133,-4.746,-4.7626,-4.8073,-4.7305,-4.6312,-4.565,-4.4191,-4.3095,-4.314,-4.4182,-4.5065,-4.52,-4.6307,-4.6696,-4.5409,0.0,-4.4751,-4.3439,0.0,0.0,0.0,0.0,0.0,0.0,0.0,0.0,-4.1452,-4.0756,-4.0382,-4.0337,-3.9738,-3.9709,-4.0322,-3.9723,-3.9125,-3.8527,-3.8482,-3.7793,-3.6552,-3.6552,-3.6178,-3.5504,-3.5504,-3.5504,-3.5504,-3.5504,-3.5893,-3.6417,-3.5759,-3.5534,-3.5564,-3.5519,-3.5504,-3.5504,-3.5504,-3.5504,-3.5504,-3.5504,-3.5504,-3.5504,-3.5504,-3.5504,-3.5504,-3.5504,-3.5504,-3.5504,-3.5504,-3.5504,-3.5504,-3.5504,-3.5504,-3.5504,-3.5504,-3.4966,-3.4503,-3.4503,-3.3948,-3.3499,-3.3499,-3.3499,-3.3499,-3.3499,-3.3499,-3.3499,-3.3499,-3.3499,-3.3499,-3.3499,-3.3499,-3.3245,-3.2632,-3.2542,-3.2228,-3.1569,-3.1539,-3.1568,-3.1539,-3.1568,-3.1539,-3.1511,-3.1511,-3.1511,-3.1511,-3.2108,-3.2452,-3.2467,-3.3096,-3.3411,-4.4925,-4.501,-4.5189,-4.5861,-4.6096,-4.6435,-4.758,-4.6986,-4.6142,-4.6041,-4.4582,-4.317,-4.2806,-4.3793,-4.4691,-4.4691,-4.5454,-4.5738,-4.4811,-4.4691,-4.4347,0.0,0.0,0.0,0.0,0.0,0.0,0.0,0.0,0.0,-4.2021,-4.1407,-4.101,-4.101,-4.0367,-4.0142,-4.0397,-3.932,-3.8437,-3.7778,-3.8197,-3.7719,-3.6492,-3.6492,-3.6133,-3.5504,-3.5504,-3.5504,-3.5504,-3.5504,-3.5654,-3.5848,-3.5609,-3.5504,-3.5504,-3.5504,-3.5504,-3.5504,-3.5504,-3.5504,-3.5504,-3.5504,-3.5504,-3.5504,-3.5504,-3.5504,-3.5504,-3.5504,-3.5504,-3.5504,-3.5504,-3.5504,-3.5504,-3.5504,-3.5504,-3.5504,-3.5504,-3.5295,-3.5115,-3.5115,-3.4921,-3.4741,-3.4741,-3.4741,-3.4741,-3.4741,-3.4741,-3.4741,-3.4741,-3.4741,-3.4741,-3.4741,-3.4741,-3.4307,-3.3215,-3.3125,-3.2677,-3.157,-3.1511,-3.1511,-3.1511,-3.1511,-3.1511,-3.1511,-3.1511,-3.1705,-3.2108,-3.2392,-3.2721,-3.3125,-3.338,-3.3499,-4.4615,-4.4615,-4.4649,-4.4792,-4.4978,-4.5356,-4.6435,-4.6408,-4.6206,-4.6186,-4.481,-4.3509,-4.306,-4.3703,0.0,0.0,-4.487,-4.5065,-4.4407,-4.4317,0.0,0.0,0.0,0.0,0.0,0.0,0.0,0.0,0.0,0.0,0.0,-4.1115,-4.0861,-4.107,-4.0427,-4.0187,-4.0397,-3.9275,-3.8272,-3.7419,-3.7868,-3.7419,-3.6178,-3.6178,-3.6043,-3.5818,-3.5818,-3.5923,-3.6088,-3.5893,-3.5684,-3.5504,-3.5504,-3.5504,-3.5504,-3.5504,-3.5504,-3.5504,-3.5504,-3.5504,-3.5504,-3.5504,-3.5504,-3.5504,-3.5504,-3.5504,-3.5504,-3.5504,-3.5504,-3.5504,-3.5504,-3.5504,-3.5504,-3.5504,-3.5504,-3.5504,-3.5504,-3.5504,-3.5504,-3.5504,-3.5504,-3.5504,-3.5504,-3.5504,-3.5504,-3.5504,-3.5504,-3.5504,-3.5504,-3.5504,-3.5504,-3.5504,-3.5504,-3.4966,-3.3604,-3.3499,-3.2931,-3.1585,-3.1511,-3.1511,-3.1511,-3.1705,-3.1809,-3.1809,-3.2019,-3.2348,-3.2826,-3.3036,-3.3365,-3.3814,-3.4023,-3.4128,-4.4615,-4.4615,-4.4514,-4.42,-4.4291,-4.4402,-4.4413,-4.563,-4.6652,-4.6082,-4.5122,-4.4317,-4.4302,-4.4302,0.0,-4.4287,-4.484,-4.505,-4.4392,0.0,0.0,0.0,0.0,0.0,0.0,0.0,0.0,0.0,0.0,0.0,0.0,-3.9783,-3.9738,-4.0382,-3.9768,-3.9738,-4.0382,-3.9738,-3.8736,-3.7404,-3.7404,-3.6731,-3.5504,-3.5504,-3.5863,-3.6492,-3.6492,-3.6836,-3.736,-3.6746,-3.6088,-3.5504,-3.5504,-3.5504,-3.5504,-3.5504,-3.5504,-3.5504,-3.5504,-3.5504,-3.5504,-3.5504,-3.5504,-3.5504,-3.5504,-3.5504,-3.5504,-3.5504,-3.5504,-3.5504,-3.5504,-3.5504,-3.5504,-3.5504,-3.5504,-3.5504,-3.5504,-3.5504,-3.5504,-3.5504,-3.5504,-3.5504,-3.5504,-3.5504,-3.5504,-3.5504,-3.5504,-3.5504,-3.5504,-3.5504,-3.5504,-3.5504,-3.5504,-3.4966,-3.3619,-3.3499,-3.2946,-3.16,-3.1525,-3.1511,-3.1511,-3.2138,-3.2512,-3.2497,-3.3155,-3.3484,-3.3499,-3.4174,-3.4503,-3.4533,-3.519,-3.5504,-4.4765,-4.4682,-4.4677,-4.4954,-4.5284,-4.5539,-4.5521,-4.5457,-4.5403,-4.5505,-4.5222,-4.4721,-4.3753,-4.3589,0.0,-4.3015,-4.3494,-4.3688,0.0,0.0,0.0,0.0,0.0,0.0,0.0,0.0,0.0,0.0,0.0,0.0,0.0,-4.0905,-4.0891,-4.1085,-4.0442,-4.0202,-4.0397,-3.9275,-3.8257,-3.7404,-3.6971,-3.6312,-3.5504,-3.5504,-3.5863,-3.6492,-3.6492,-3.6836,-3.736,-3.6746,-3.6088,-3.5504,-3.5504,-3.5504,-3.5504,-3.5504,-3.5504,-3.5504,-3.5504,-3.5504,-3.5504,-3.5504,-3.5504,-3.5504,-3.5504,-3.5504,-3.5504,-3.5504,-3.5504,-3.5504,-3.5504,-3.5504,-3.5504,-3.5504,-3.5504,-3.5504,-3.5504,-3.5504,-3.5504,-3.5504,-3.5504,-3.5504,-3.5504,-3.5504,-3.5504,-3.5504,-3.5504,-3.5504,-3.5504,-3.5504,-3.5504,-3.5504,-3.5504,-3.5145,-3.4294,-3.4219,-3.3829,-3.2961,-3.2916,-3.2467,-3.154,-3.2138,-3.2273,-3.1809,-3.2467,-3.3036,-3.3499,-3.3694,-3.4277,-3.5205,-3.5415,-3.5504,-4.5005,-4.4997,-4.5099,-4.5452,-4.6122,-4.6631,-4.6188,-4.557,-4.5194,-4.5631,-4.5274,-4.4751,-4.4212,-4.3648,0.0,-4.2821,-4.3075,-4.3105,0.0,0.0,0.0,0.0,0.0,0.0,0.0,0.0,0.0,0.0,0.0,0.0,0.0,-4.0442,-4.0517,-4.0606,-4.0217,-4.0008,-4.0008,-3.92,-3.8332,-3.7404,-3.703,-3.6387,-3.5504,-3.5504,-3.5998,-3.6881,-3.7419,-3.7569,-3.7375,-3.7,-3.6327,-3.5504,-3.5504,-3.5504,-3.5504,-3.5504,-3.5504,-3.5504,-3.5504,-3.5504,-3.5504,-3.5504,-3.5504,-3.5504,-3.5504,-3.5504,-3.5504,-3.5504,-3.5504,-3.5504,-3.5504,-3.5504,-3.5504,-3.5504,-3.5504,-3.5504,-3.5504,-3.5504,-3.5504,-3.5504,-3.5504,-3.5504,-3.5504,-3.5504,-3.5504,-3.5504,-3.5504,-3.5504,-3.5504,-3.5504,-3.5504,-3.5504,-3.5504,-3.5235,-3.4563,-3.4503,-3.4219,-3.3529,-3.3499,-3.314,-3.2318,-3.2946,-3.2976,-3.2303,-3.2961,-3.3365,-3.3499,-3.3754,-3.4307,-3.51,-3.5385,-3.5504,-4.5266,-4.5459,-4.572,-4.5788,-4.6862,-4.7646,-4.6498,-4.5866,-4.5607,-4.6025,0.0,-4.4496,-4.5095,-4.4182,-4.3275,-4.3215,-4.32,0.0,0.0,0.0,0.0,0.0,0.0,0.0,0.0,0.0,0.0,0.0,0.0,0.0,0.0,-3.8907,-3.9141,-3.9388,-3.9388,-3.9388,-3.9388,-3.9388,-3.8751,-3.7404,-3.7404,-3.6746,-3.5504,-3.5504,-3.6178,-3.7404,-3.8676,-3.8512,-3.733,-3.733,-3.6611,-3.5504,-3.5504,-3.5504,-3.5504,-3.5504,-3.5504,-3.5504,-3.5504,-3.5504,-3.5504,-3.5504,-3.5504,-3.5504,-3.5504,-3.5504,-3.5504,-3.5504,-3.5504,-3.5504,-3.5504,-3.5504,-3.5504,-3.5504,-3.5504,-3.5504,-3.5504,-3.5504,-3.5504,-3.5504,-3.5504,-3.5504,-3.5504,-3.5504,-3.5504,-3.5504,-3.5504,-3.5504,-3.5504,-3.5504,-3.5504,-3.5504,-3.5504,-3.525,-3.4653,-3.4593,-3.4339,-3.3724,-3.3679,-3.3679,-3.3679,-3.4219,-3.4174,-3.3425,-3.4084,-3.4129,-3.3499,-3.4129,-3.4474,-3.4623,-3.522,-3.5504,-4.545,-4.5514,-4.5838,-4.6413,-4.7362,-4.7882,-4.69,-4.6152,-4.5488,-4.484,-4.4511,-4.4362,-4.4496,-4.3828,-4.3125,-4.2656,0.0,0.0,0.0,0.0,0.0,0.0,0.0,0.0,0.0,0.0,0.0,0.0,0.0,0.0,-3.7994,-3.8412,-3.8863,-3.9388,-3.9388,-3.9388,-3.9388,-3.9388,-3.8751,0.0,-3.7404,-3.6746,-3.5504,-3.5504,-3.5938,-3.6731,-3.7509,-3.7404,-3.6686,-3.6686,-3.6222,-3.5504,-3.5504,-3.5504,-3.5504,-3.5504,-3.5504,-3.5504,-3.5504,-3.5504,-3.5504,-3.5504,-3.5504,-3.5504,-3.5504,-3.5504,-3.5504,-3.5504,-3.5504,-3.5504,-3.5504,-3.5504,-3.5504,-3.5504,-3.5504,-3.5504,-3.5504,-3.5504,-3.5504,-3.5504,-3.5504,-3.5504,-3.5504,-3.5504,-3.5504,-3.5504,-3.5504,-3.5504,-3.5504,-3.5504,-3.5504,-3.5504,-3.5504,-3.5444,-3.5295,-3.528,-3.522,-3.5085,-3.507,-3.507,-3.507,-3.4681,-3.3918,-3.2751,-3.3365,-3.3634,-3.3499,-3.3634,-3.4247,-3.5295,-3.5429,-3.5504,-4.5692,-4.5891,-4.6481,-4.7581,-4.8118,-4.8129,-4.7355,-4.6622,-4.5717,-4.4351,-4.405,-4.4078,-4.4257,-4.3738,-4.312,0.0,0.0,0.0,0.0,0.0,0.0,0.0,0.0,0.0,0.0,0.0,0.0,0.0,0.0,-3.6596,-3.7179,-3.7758,-3.8389,-3.9104,-3.9228,-3.9301,-3.9388,-3.9095,-3.8422,-3.7404,-3.7105,-3.6447,-3.5519,-3.5833,-3.6163,-3.6522,-3.715,-3.706,-3.6492,-3.6492,-3.6088,-3.5504,-3.5504,-3.5504,-3.5504,-3.5504,-3.5504,-3.5504,-3.5504,-3.5504,-3.5504,-3.5504,-3.5504,-3.5504,-3.5504,-3.5504,-3.5504,-3.5504,-3.5265,-3.5011,-3.5011,-3.4771,-3.4622,-3.4936,-3.5265,-3.5504,-3.5504,-3.5504,-3.5504,-3.5504,-3.5504,-3.5504,-3.5504,-3.5504,-3.5504,-3.5504,-3.5504,-3.5504,-3.5504,-3.5504,-3.5504,-3.5504,-3.5504,-3.5504,-3.5504,-3.5504,-3.5504,-3.5504,-3.5504,-3.5504,-3.5504,-3.516,-3.4487,-3.3469,-3.3784,-3.3814,-3.3499,-3.3814,-3.4322,-3.5026,-3.5355,-3.5504,-4.5676,-4.6172,-4.7141,-4.8629,-4.8784,-4.8403,-4.7836,-4.7171,-4.6134,-4.4355,-4.3783,-4.3684,-4.3773,-4.3374,-4.2821,0.0,0.0,0.0,0.0,0.0,0.0,0.0,0.0,0.0,0.0,0.0,0.0,0.0,0.0,-3.5574,-3.6089,-3.6866,-3.7706,-3.8583,-3.887,-3.906,-3.9245,-3.8676,-3.8003,-3.724,-3.6611,-3.6028,-3.5534,-3.6073,-3.6312,-3.6357,-3.6866,-3.6791,-3.6312,-3.6312,-3.5998,-3.5504,-3.5504,-3.5504,-3.5504,-3.5504,-3.5504,-3.5504,-3.5504,-3.5504,-3.5504,-3.5504,-3.5429,-3.5325,-3.5325,-3.525,-3.519,-3.5295,-3.4831,-3.4354,-3.4474,-3.3978,-3.3664,-3.4354,-3.4906,-3.5355,-3.5489,-3.5504,-3.5504,-3.5504,-3.5504,-3.5504,-3.5504,-3.5504,-3.5504,-3.5504,-3.5504,-3.5504,-3.5504,-3.5504,-3.5504,-3.5504,-3.5504,-3.5504,-3.5504,-3.5504,-3.5504,-3.5504,-3.5504,-3.5504,-3.5504,-3.5504,-3.5235,-3.4666,-3.4563,-3.4234,-3.3664,-3.4234,-3.4563,-3.4698,-3.5235,-3.5504,-4.4708,-4.575,-4.7141,-4.8629,-4.8894,-4.8658,-4.8226,-4.7688,-4.6804,0.0,-4.4029,-4.3031,-4.1978,-4.1698,0.0,0.0,0.0,0.0,0.0,0.0,0.0,0.0,0.0,0.0,0.0,0.0,0.0,0.0,-3.3431,-3.4053,-3.4193,-3.5477,-3.6727,-3.7919,-3.8337,-3.8568,-3.8527,-3.8437,-3.7793,-3.6596,-3.5953,-3.5594,-3.5504,-3.5594,-3.5639,-3.5639,-3.5729,-3.5714,-3.5639,-3.5639,-3.5579,-3.5504,-3.5504,-3.5504,-3.5504,-3.5504,-3.5504,-3.5504,-3.5504,-3.5504,-3.5504,-3.5504,-3.51,-3.4638,-3.4638,-3.4218,-3.3888,-3.4488,-3.4143,-3.3754,-3.4354,-3.3978,-3.3664,-3.4354,-3.4578,-3.4771,-3.537,-3.5504,-3.5504,-3.5504,-3.5504,-3.5504,-3.5504,-3.5504,-3.5504,-3.5504,-3.5504,-3.5504,-3.5504,-3.5504,-3.5504,-3.5504,-3.5504,-3.5504,-3.5504,-3.5504,-3.5504,-3.5504,-3.5504,-3.5504,-3.5504,-3.5504,-3.5459,-3.537,-3.4786,-3.4459,-3.4384,-3.4474,-3.4786,-3.537,-3.5459,-3.5504,-4.4518,-4.5375,-4.6447,-4.7496,-4.7706,-4.7646,-4.7477,-4.7089,-4.6366,-4.4903,-4.3946,-4.3009,-4.1886,0.0,0.0,0.0,0.0,0.0,0.0,0.0,0.0,0.0,0.0,0.0,0.0,0.0,0.0,0.0,-3.3266,-3.3624,-3.3468,-3.4861,-3.6229,-3.7448,-3.8023,-3.8341,-3.8392,-3.8018,-3.7195,-3.5938,-3.5639,-3.5504,-3.5504,-3.5504,-3.5504,-3.5504,-3.5504,-3.5504,-3.5504,-3.5504,-3.5504,-3.5504,-3.5504,-3.5504,-3.5504,-3.5504,-3.5504,-3.5504,-3.5504,-3.5504,-3.5504,-3.5504,-3.504,-3.4503,-3.4503,-3.4023,-3.3634,-3.4324,-3.4039,-3.3559,-3.3844,-3.3709,-3.3559,-3.3858,-3.4234,-3.4666,-3.5355,-3.5504,-3.5504,-3.5504,-3.5504,-3.5504,-3.5504,-3.5504,-3.5504,-3.5504,-3.5504,-3.5504,-3.5504,-3.5504,-3.5504,-3.5504,-3.5504,-3.5504,-3.5504,-3.5504,-3.5504,-3.5504,-3.5504,-3.5504,-3.5504,-3.5504,-3.5504,-3.5504,-3.5205,-3.5055,-3.5055,-3.5055,-3.5205,-3.5504,-3.5504,-3.5504,-4.4065,-4.4637,-4.5376,-4.6278,-4.6515,-4.6566,-4.6752,0.0,-4.5995,0.0,-4.4003,-4.318,-4.1945,0.0,0.0,0.0,0.0,0.0,0.0,0.0,0.0,0.0,0.0,0.0,0.0,0.0,0.0,0.0,-3.3222,-3.3293,-3.2757,-3.428,-3.5709,-3.6919,-3.7668,-3.8069,-3.8153,-3.733,-3.6447,-3.5504,-3.5504,-3.5504,-3.5504,-3.5504,-3.5504,-3.5504,-3.5504,-3.5504,-3.5504,-3.5504,-3.5504,-3.5504,-3.5504,-3.5504,-3.5504,-3.5504,-3.5504,-3.5504,-3.5504,-3.5504,-3.5504,-3.5504,-3.4921,-3.4264,-3.4264,-3.3649,-3.317,-3.3993,-3.3754,-3.332,-3.3664,-3.3619,-3.3529,-3.3709,-3.4159,-3.4666,-3.5355,-3.5504,-3.5504,-3.5504,-3.5504,-3.5504,-3.5504,-3.5504,-3.5504,-3.5504,-3.5504,-3.5504,-3.5504,-3.5504,-3.5504,-3.5504,-3.5504,-3.5504,-3.5504,-3.5504,-3.5504,-3.5504,-3.5504,-3.5504,-3.5504,-3.5504,-3.5504,-3.5504,-3.5504,-3.5504,-3.5504,-3.5504,-3.5504,-3.5504,-3.5504,-3.5504,-4.2783,-4.324,-4.4041,-4.541,-4.5771,-4.594,0.0,0.0,-4.6189,-4.5107,-4.4346,-4.3331,0.0,0.0,0.0,0.0,0.0,0.0,0.0,0.0,0.0,0.0,0.0,0.0,0.0,0.0,0.0,0.0,-3.2708,-3.2662,-3.1543,-3.3372,-3.5006,-3.6212,-3.7141,-3.7564,-3.743,-3.6222,-3.5579,-3.5504,-3.5504,-3.5504,-3.5504,-3.5504,-3.5504,-3.5504,-3.5504,-3.5504,-3.5504,-3.5504,-3.5504,-3.5504,-3.5504,-3.5504,-3.5504,-3.5504,-3.5504,-3.5504,-3.5504,-3.5504,-3.5504,-3.5504,-3.4622,-3.3544,-3.3544,-3.2647,-3.1869,-3.3185,-3.308,-3.2856,-3.4129,-3.3994,-3.3649,-3.4309,-3.4474,-3.4666,-3.5355,-3.5504,-3.5504,-3.5504,-3.5504,-3.5504,-3.5504,-3.5504,-3.5504,-3.5504,-3.5504,-3.5504,-3.5504,-3.5504,-3.5504,-3.5504,-3.5504,-3.5504,-3.5504,-3.5504,-3.5504,-3.5504,-3.5504,-3.5504,-3.5504,-3.5504,-3.5504,-3.5504,-3.5504,-3.5504,-3.5504,-3.5504,-3.5504,-3.5504,-3.5504,-3.5504,-4.1041,-4.1557,-4.2467,-4.2756,-4.3538,-4.4299,-4.457,-4.4964,-4.5166,-4.4793,-4.4168,-4.3428,0.0,0.0,0.0,0.0,0.0,0.0,0.0,0.0,0.0,0.0,0.0,0.0,0.0,0.0,0.0,0.0,0.0,-3.2143,-3.1439,-3.2834,-3.4294,-3.5788,-3.6297,-3.6574,-3.6637,-3.5872,-3.5504,-3.5504,-3.5504,-3.5504,-3.5504,-3.5504,-3.5504,-3.5504,-3.5504,-3.5504,-3.5504,-3.5504,-3.5504,-3.5504,-3.5504,-3.5504,-3.5504,-3.5504,-3.5504,-3.5504,-3.5504,-3.5504,-3.5504,-3.5504,-3.4876,-3.4159,-3.4159,-3.3499,-3.2976,-3.3873,-3.3963,-3.3888,-3.4384,-3.4622,-3.4846,-3.507,-3.4801,-3.4666,-3.5355,-3.5504,-3.5504,-3.5504,-3.5504,-3.5504,-3.5504,-3.5504,-3.5504,-3.5504,-3.5504,-3.5504,-3.5504,-3.5504,-3.5504,-3.5504,-3.5504,-3.5504,-3.5504,-3.5504,-3.5504,-3.5504,-3.5504,-3.5504,-3.5504,-3.5504,-3.5504,-3.5504,-3.5504,-3.5504,-3.5504,-3.5504,-3.5504,-3.5504,-3.5504,-3.5504,-3.9698,-3.9932,-4.0571,-4.0773,-4.1576,-4.2479,-4.3223,-4.3809,-4.4265,-4.4547,-4.4109,-4.3484,0.0,0.0,0.0,0.0,0.0,0.0,0.0,0.0,0.0,0.0,0.0,0.0,0.0,0.0,0.0,0.0,0.0,0.0,-3.1427,-3.2478,-3.3828,-3.5356,-3.5781,-3.5992,-3.601,-3.5911,-3.5729,-3.5504,-3.5729,-3.5714,-3.5504,-3.5504,-3.5504,-3.5504,-3.5504,-3.5504,-3.5504,-3.5504,-3.5504,-3.5504,-3.5504,-3.5504,-3.5504,-3.5504,-3.5504,-3.5504,-3.5504,-3.5504,-3.5504,-3.5504,-3.504,-3.4503,-3.4503,-3.4023,-3.3634,-3.4324,-3.4503,-3.4563,-3.4788,-3.4996,-3.51,-3.4876,-3.4651,-3.4638,-3.5055,-3.534,-3.5504,-3.5504,-3.5504,-3.5504,-3.5504,-3.5504,-3.5504,-3.5504,-3.5504,-3.5504,-3.5504,-3.5504,-3.5504,-3.5504,-3.5504,-3.5504,-3.5504,-3.5504,-3.5504,-3.5504,-3.5504,-3.5504,-3.5504,-3.5504,-3.5504,-3.5504,-3.5504,-3.5504,-3.5504,-3.5504,-3.5504,-3.5504,-3.5504,-3.5504,0.0,0.0,0.0,-3.9688,0.0,0.0,-4.2801,0.0,-4.3639,-4.4412,-4.415,0.0,0.0,0.0,0.0,0.0,0.0,0.0,0.0,0.0,0.0,0.0,0.0,0.0,0.0,0.0,0.0,0.0,-3.1407,-3.1484,-3.1402,-3.2367,-3.3577,-3.4993,-3.5586,-3.5767,-3.559,-3.6164,-3.6133,-3.5519,-3.6148,-3.6118,-3.5504,-3.5504,-3.5504,-3.5504,-3.5504,-3.5504,-3.5504,-3.5504,-3.5504,-3.5504,-3.5504,-3.5504,-3.5504,-3.5504,-3.5504,-3.5504,-3.5504,-3.5504,-3.5504,-3.5504,-3.5055,-3.4533,-3.4533,-3.4099,-3.3679,-3.4354,-3.4533,-3.4651,-3.531,-3.4951,-3.4294,-3.3649,-3.3963,-3.4459,-3.4503,-3.4996,-3.5489,-3.5504,-3.5504,-3.5504,-3.5504,-3.5504,-3.5504,-3.5504,-3.5504,-3.5504,-3.5504,-3.5504,-3.5504,-3.5504,-3.5504,-3.5504,-3.5504,-3.5504,-3.5504,-3.5504,-3.5504,-3.5504,-3.5504,-3.5504,-3.5504,-3.5504,-3.5504,-3.5504,-3.5504,-3.5504,-3.5504,-3.5504,-3.5504,-3.5504,-3.7301,0.0,0.0,0.0,0.0,0.0,0.0,0.0,0.0,-4.369,-4.3883,0.0,0.0,0.0,0.0,0.0,0.0,0.0,0.0,0.0,0.0,0.0,0.0,0.0,0.0,0.0,0.0,0.0,-3.1915,-3.1773,-3.1427,-3.2478,-3.321,-3.3349,-3.431,-3.4802,-3.4743,-3.5429,-3.5684,-3.5504,-3.5684,-3.5684,-3.5504,-3.5504,-3.5504,-3.5504,-3.5504,-3.5504,-3.5504,-3.5504,-3.5504,-3.5504,-3.5504,-3.5504,-3.5504,-3.5504,-3.5504,-3.5504,-3.5504,-3.5504,-3.5504,-3.5504,-3.537,-3.522,-3.522,-3.51,-3.4996,-3.5175,-3.522,-3.5145,-3.4846,-3.3918,-3.3125,-3.3425,-3.3275,-3.332,-3.4294,-3.4653,-3.4906,-3.5415,-3.5504,-3.5504,-3.5504,-3.5504,-3.5504,-3.5504,-3.5504,-3.5504,-3.5504,-3.5504,-3.5504,-3.5504,-3.5504,-3.5504,-3.5504,-3.5504,-3.5504,-3.5504,-3.5504,-3.5504,-3.5504,-3.5504,-3.5504,-3.5504,-3.5504,-3.5504,-3.5504,-3.5504,-3.5504,-3.5504,-3.5504,-3.5504,-3.6475,-3.6423,-3.6666,-3.6757,0.0,0.0,-3.9884,-4.1102,0.0,0.0,0.0,0.0,0.0,0.0,0.0,0.0,0.0,0.0,0.0,0.0,0.0,0.0,0.0,0.0,0.0,-3.6753,-3.4742,-3.2629,-3.2319,-3.1966,-3.1427,-3.2272,-3.2625,-3.2309,-3.3399,-3.4059,-3.4147,-3.5315,-3.5774,-3.5504,-3.5789,-3.5774,-3.5504,-3.5504,-3.5504,-3.5504,-3.5504,-3.5504,-3.5504,-3.5504,-3.5504,-3.5504,-3.5504,-3.5504,-3.5504,-3.5504,-3.5504,-3.5504,-3.5504,-3.5504,-3.5504,-3.5504,-3.5504,-3.5504,-3.5504,-3.5504,-3.5504,-3.5504,-3.5504,-3.5355,-3.4651,-3.3709,-3.2961,-3.3066,-3.2796,-3.2796,-3.3844,-3.4309,-3.4713,-3.537,-3.5504,-3.5504,-3.5504,-3.5504,-3.5504,-3.5504,-3.5504,-3.5504,-3.5504,-3.5504,-3.5504,-3.5504,-3.5504,-3.5504,-3.5504,-3.5504,-3.5504,-3.5504,-3.5504,-3.5504,-3.5504,-3.5504,-3.5504,-3.5504,-3.5504,-3.5504,-3.5504,-3.5504,-3.5504,-3.5504,-3.5504,-3.5504,-3.6092,-3.5915,-3.592,-3.653,-3.6745,0.0,-3.9283,-3.9859,-4.035,0.0,0.0,0.0,0.0,0.0,0.0,0.0,0.0,0.0,0.0,0.0,0.0,0.0,0.0,0.0,-3.8324,-3.6855,-3.5203,-3.3301,-3.2686,-3.2182,-3.159,-3.2016,-3.2143,-3.1847,-3.2861,-3.3533,-3.3865,-3.5543,-3.6088,-3.5519,-3.6088,-3.6073,-3.5504,-3.5504,-3.5504,-3.5504,-3.5504,-3.5504,-3.5504,-3.5504,-3.5504,-3.5504,-3.5504,-3.5504,-3.5504,-3.5504,-3.5504,-3.5504,-3.5504,-3.5504,-3.5504,-3.5504,-3.5504,-3.5504,-3.5504,-3.5504,-3.5504,-3.5504,-3.5444,-3.525,-3.4668,-3.3978,-3.335,-3.2766,-3.2617,-3.2796,-3.3469,-3.4099,-3.4713,-3.537,-3.5504,-3.5504,-3.5504,-3.5504,-3.5504,-3.5504,-3.5504,-3.5504,-3.5504,-3.5504,-3.5504,-3.5504,-3.5504,-3.5504,-3.5504,-3.5504,-3.5504,-3.5504,-3.5504,-3.5504,-3.5504,-3.5504,-3.5504,-3.5504,-3.5504,-3.5504,-3.5504,-3.5504,-3.5504,-3.5504,-3.5504,-3.5504,-3.5694,-3.5667,-3.5656,-3.5808,0.0,0.0,-3.7354,-3.8369,-3.9292,0.0,0.0,0.0,0.0,0.0,0.0,0.0,0.0,0.0,0.0,0.0,0.0,0.0,0.0,0.0,-3.9253,-3.8021,-3.6366,-3.4203,-3.317,-3.2566,-3.2447,-3.2551,-3.2437,-3.2051,-3.2842,-3.3564,-3.4264,-3.5215,-3.5624,-3.5504,-3.5639,-3.5624,-3.5504,-3.5504,-3.5504,-3.5504,-3.5504,-3.5504,-3.5504,-3.5504,-3.5504,-3.5504,-3.5504,-3.5504,-3.5504,-3.5504,-3.5504,-3.5504,-3.5504,-3.5504,-3.5504,-3.5504,-3.5504,-3.5504,-3.5504,-3.5504,-3.5504,-3.5504,-3.51,-3.4668,-3.4533,-3.3978,-3.3469,-3.3335,-3.3305,-3.3484,-3.4174,-3.4414,-3.4713,-3.537,-3.5504,-3.5504,-3.5504,-3.5504,-3.5504,-3.5504,-3.5504,-3.5504,-3.5504,-3.5504,-3.5504,-3.5504,-3.5504,-3.5504,-3.5504,-3.5504,-3.5504,-3.5504,-3.5504,-3.5504,-3.5504,-3.5504,-3.5504,-3.5504,-3.5504,-3.5504,-3.5504,-3.5504,-3.5504,-3.5504,-3.5504,-3.5504,-3.6197,-3.591,-3.56,-3.56,0.0,0.0,0.0,-3.7371,-3.8007,-3.8379,-3.8751,-3.8988,0.0,0.0,0.0,0.0,0.0,0.0,0.0,0.0,0.0,0.0,0.0,0.0,-3.9491,-3.8676,-3.7523,-3.5885,-3.4669,-3.388,-3.3557,-3.3544,-3.3271,-3.2682,-3.3283,-3.3885,-3.4505,-3.5148,-3.5504,-3.5504,-3.5504,-3.5504,-3.5504,-3.5504,-3.5504,-3.5504,-3.5504,-3.5504,-3.5504,-3.5504,-3.5504,-3.5504,-3.5504,-3.5504,-3.5504,-3.5504,-3.5504,-3.5504,-3.5504,-3.5504,-3.5504,-3.5504,-3.5504,-3.5504,-3.5504,-3.5504,-3.5504,-3.5504,-3.525,-3.4996,-3.4996,-3.4487,-3.3978,-3.3978,-3.3724,-3.3679,-3.4369,-3.4503,-3.4713,-3.537,-3.5504,-3.5504,-3.5504,-3.5504,-3.5504,-3.5504,-3.5504,-3.5504,-3.5504,-3.5504,-3.5504,-3.5504,-3.5504,-3.5504,-3.5504,-3.5504,-3.5504,-3.5504,-3.5504,-3.5504,-3.5504,-3.5504,-3.5504,-3.5504,-3.5504,-3.5504,-3.5504,-3.5504,-3.5504,-3.5504,-3.5504,-3.5504,0.0,0.0,0.0,0.0,0.0,-3.5769,0.0,0.0,0.0,-3.733,0.0,0.0,0.0,0.0,0.0,0.0,0.0,0.0,0.0,0.0,0.0,0.0,0.0,0.0,0.0,-3.8794,-3.8039,-3.7263,-3.6073,-3.5103,-3.4502,-3.4585,-3.4282,-3.3444,-3.3871,-3.4312,-3.471,-3.5246,-3.5504,-3.5504,-3.5504,-3.5504,-3.5504,-3.5504,-3.5504,-3.5504,-3.5504,-3.5504,-3.5504,-3.5504,-3.5504,-3.5504,-3.5504,-3.5504,-3.5504,-3.5504,-3.5504,-3.5504,-3.5504,-3.5504,-3.5504,-3.5504,-3.5504,-3.5504,-3.5504,-3.5504,-3.5504,-3.5504,-3.5504,-3.5504,-3.5504,-3.51,-3.4698,-3.4698,-3.4262,-3.4023,-3.4593,-3.4698,-3.4846,-3.54,-3.5504,-3.5504,-3.5504,-3.5504,-3.5504,-3.5504,-3.5504,-3.5504,-3.5504,-3.5504,-3.5504,-3.5504,-3.5504,-3.5504,-3.5504,-3.5504,-3.5504,-3.5504,-3.5504,-3.5504,-3.5504,-3.5504,-3.5504,-3.5504,-3.5504,-3.5504,-3.5504,-3.5504,-3.5504,-3.5504,-3.5504,-3.5504,0.0,0.0,0.0,0.0,-3.56,0.0,0.0,0.0,-3.5752,-3.5836,0.0,0.0,0.0,0.0,0.0,0.0,0.0,0.0,0.0,0.0,0.0,0.0,0.0,0.0,0.0,-3.7857,-3.6952,-3.7192,-3.6227,-3.538,-3.4683,-3.5238,-3.5161,-3.4307,-3.4457,-3.4725,-3.5148,-3.5359,-3.5504,-3.5504,-3.5504,-3.5504,-3.5504,-3.5504,-3.5504,-3.5504,-3.5504,-3.5504,-3.5504,-3.5504,-3.5504,-3.5504,-3.5504,-3.5504,-3.5504,-3.5504,-3.5504,-3.5504,-3.5504,-3.5504,-3.5504,-3.5504,-3.5504,-3.5504,-3.5504,-3.5504,-3.5504,-3.5504,-3.5504,-3.5504,-3.5504,-3.5444,-3.5385,-3.5385,-3.5325,-3.5295,-3.537,-3.5385,-3.5415,-3.5489,-3.5504,-3.5504,-3.5504,-3.5504,-3.5504,-3.5504,-3.5504,-3.5504,-3.5504,-3.5504,-3.5504,-3.5504,-3.5504,-3.5504,-3.5504,-3.5504,-3.5504,-3.5504,-3.5504,-3.5504,-3.5504,-3.5504,-3.5504,-3.5504,-3.5504,-3.5504,-3.5504,-3.5504,-3.5504,-3.5504,-3.5504,-3.5504,0.0,0.0,0.0,0.0,0.0,0.0,-3.56,0.0,-3.5718,0.0,0.0,0.0,0.0,0.0,0.0,0.0,0.0,0.0,0.0,0.0,0.0,0.0,0.0,0.0,0.0,0.0,0.0,0.0,-3.681,-3.605,-3.5751,-3.6021,-3.5825,-3.506,-3.51,-3.5198,-3.5359,-3.5472,-3.5504,-3.5504,-3.5504,-3.5504,-3.5504,-3.5504,-3.5504,-3.5504,-3.5504,-3.5504,-3.5504,-3.5504,-3.5504,-3.5504,-3.5504,-3.5504,-3.5504,-3.5504,-3.5504,-3.5504,-3.5504,-3.5504,-3.5504,-3.5504,-3.5504,-3.5504,-3.5504,-3.5504,-3.5504,-3.5504,-3.5504,-3.5504,-3.5504,-3.5504,-3.5504,-3.5504,-3.5504,-3.5504,-3.5504,-3.5504,-3.5504,-3.5504,-3.5504,-3.5504,-3.5504,-3.5504,-3.5504,-3.5504,-3.5504,-3.5504,-3.5504,-3.5504,-3.5504,-3.5504,-3.5504,-3.5504,-3.5504,-3.5504,-3.5504,-3.5504,-3.5504,-3.5504,-3.5504,-3.5504,-3.5504,-3.5504,-3.5504,-3.5504,-3.5504,-3.5504,-3.5504,-3.5504,-3.5504,-3.5504,-3.7652,0.0,0.0,0.0,0.0,0.0,0.0,0.0,0.0,0.0,0.0,0.0,0.0,0.0,0.0,0.0,0.0,0.0,0.0,0.0,0.0,0.0,0.0,0.0,0.0,0.0,0.0,0.0,0.0,-3.6417,-3.6237,-3.6387,-3.6178,-3.5534,-3.5504,-3.5504,-3.5504,-3.5504,-3.5504,-3.5504,-3.5504,-3.5504,-3.5504,-3.5504,-3.5504,-3.5504,-3.5504,-3.5504,-3.5504,-3.5504,-3.5504,-3.5504,-3.5504,-3.5504,-3.5504,-3.5504,-3.5504,-3.5504,-3.5504,-3.5504,-3.5504,-3.5504,-3.5504,-3.5504,-3.5504,-3.5504,-3.5504,-3.5504,-3.5504,-3.5504,-3.5504,-3.5504,-3.5504,-3.5504,-3.5504,-3.5504,-3.5504,-3.5504,-3.5504,-3.5504,-3.5504,-3.5504,-3.5504,-3.5504,-3.5504,-3.5504,-3.5504,-3.5504,-3.5504,-3.5504,-3.5504,-3.5504,-3.5504,-3.5504,-3.5504,-3.5504,-3.5504,-3.5504,-3.5504,-3.5504,-3.5504,-3.5504,-3.5504,-3.5504,-3.5504,-3.5504,-3.5504,-3.5504,-3.5504,-3.5504,-3.5504,-3.5609,0.0,0.0,0.0,-3.5785,0.0,0.0,0.0,0.0,-3.6778,0.0,0.0,0.0,0.0,0.0,0.0,0.0,0.0,0.0,0.0,0.0,0.0,0.0,0.0,0.0,0.0,0.0,0.0,0.0,0.0,0.0,-3.5564,-3.6148,-3.6178,-3.5534,-3.5504,-3.5504,-3.5504,-3.5504,-3.5504,-3.5504,-3.5504,-3.5504,-3.5504,-3.5504,-3.5504,-3.5504,-3.5504,-3.5504,-3.5504,-3.5504,-3.5504,-3.5504,-3.5504,-3.5504,-3.5504,-3.5504,-3.5504,-3.5504,-3.5504,-3.5504,-3.5504,-3.5504,-3.5504,-3.5504,-3.5504,-3.5504,-3.5504,-3.5504,-3.5504,-3.5504,-3.5504,-3.5504,-3.5504,-3.5504,-3.5504,-3.5504,-3.5504,-3.5504,-3.5504,-3.5504,-3.5504,-3.5504,-3.5504,-3.5504,-3.5504,-3.5504,-3.5504,-3.5504,-3.5504,-3.5504,-3.5504,-3.5504,-3.5504,-3.5504,-3.5504,-3.5504,-3.5504,-3.5504,-3.5504,-3.5504,-3.5504,-3.5504,-3.5504,-3.5504,-3.5504,-3.5504,-3.5504,-3.5504,-3.5504,-3.5504,-3.5504,-3.5848,0.0,0.0,-3.5943,-3.5667,0.0,0.0,0.0,0.0,0.0,0.0,0.0,0.0,0.0,0.0,0.0,0.0,0.0,0.0,0.0,0.0,0.0,0.0,0.0,0.0,0.0,0.0,0.0,0.0,-3.6088,0.0,0.0,-3.5714,-3.5938,-3.6148,-3.6148,-3.6148,-3.6148,-3.6148,-3.5938,-3.5504,-3.5504,-3.5504,-3.5504,-3.5504,-3.5504,-3.5504,-3.5504,-3.5504,-3.5504,-3.5504,-3.5504,-3.5504,-3.5504,-3.5504,-3.5504,-3.5504,-3.5504,-3.5504,-3.5504,-3.5504,-3.5504,-3.5504,-3.5504,-3.5504,-3.5504,-3.5504,-3.5504,-3.5504,-3.5504,-3.5504,-3.5504,-3.5504,-3.5504,-3.5504,-3.5504,-3.5504,-3.5504,-3.5504,-3.5504,-3.5504,-3.5504,-3.5504,-3.5504,-3.5504,-3.5504,-3.5504,-3.5504,-3.5504,-3.5504,-3.5504,-3.5504,-3.5504,-3.5504,-3.5504,-3.5504,-3.5504,-3.5504,-3.5504,-3.5504,-3.5504,-3.5504,-3.5504,-3.5504,-3.5504,-3.5504,-3.5504,-3.5504,-3.5504,-3.5729,-3.6148,-3.6148,-3.6267,-3.6366,-3.5994,0.0,-3.56,-3.5802,0.0,-3.6694,0.0,0.0,0.0,0.0,0.0,0.0,0.0,0.0,0.0,0.0,0.0,0.0,-3.7142,0.0,0.0,0.0,0.0,0.0,0.0,-3.6553,-3.6232,-3.5761,0.0,0.0,0.0,-3.5804,-3.6462,-3.6492,-3.6492,-3.6492,-3.6492,-3.6148,-3.5504,-3.5504,-3.5504,-3.5504,-3.5504,-3.5504,-3.5504,-3.5504,-3.5504,-3.5504,-3.5504,-3.5504,-3.5504,-3.5504,-3.5504,-3.5504,-3.5504,-3.5504,-3.5504,-3.5504,-3.5504,-3.5504,-3.5504,-3.5504,-3.5504,-3.5504,-3.5504,-3.5504,-3.5504,-3.5504,-3.5504,-3.5504,-3.5504,-3.5504,-3.5504,-3.5504,-3.5504,-3.5504,-3.5504,-3.5504,-3.5504,-3.531,-3.522,-3.5459,-3.5295,-3.522,-3.5474,-3.5504,-3.5504,-3.5504,-3.5504,-3.5504,-3.5504,-3.5504,-3.5504,-3.5504,-3.5504,-3.5504,-3.5504,-3.5504,-3.5504,-3.5504,-3.5504,-3.5504,-3.5504,-3.5504,-3.5504,-3.5504,-3.5744,-3.6073,-3.6492,-3.6956,-3.7165]},{"header":{"parameterUnit":"m.s-1","parameterCategory":1,"la1":30.6,"la2":29.2853,"lo1":-89.7004,"lo2":-87.6739,"dy":0.0162,"dx":0.0183,"nx":112,"ny":82,"refTime":"2026-04-10T00:00:00:Z","depth":0,"parameterNumber":3,"parameterNumberName":"V-component_of_WINDS"},"data":[0.0,0.0,0.0,0.0,0.0,0.0,0.0,0.0,0.0,0.0,0.0,0.0,0.0,0.0,0.0,0.0,0.0,0.0,0.0,0.0,0.0,0.0,0.0,0.0,0.0,0.0,0.0,0.0,0.0,0.0,0.0,0.0,0.0,0.0,0.0,0.0,0.0,0.0,0.0,0.0,0.0,0.0,0.0,0.0,0.0,0.0,0.0,0.0,0.0,0.0,0.0,0.0,0.0,0.0,0.0,0.0,0.0,0.0,0.0,0.0,0.0,0.0,0.0,0.0,0.0,0.0,0.0,0.0,0.0,0.0,0.0,0.0,0.0,0.0,0.0,0.0,0.0,0.0,0.0,0.0,0.0,0.0,0.0,0.0,0.0,0.0,0.0,0.0,0.0,0.0,0.0,0.0,0.0,0.0,0.0,0.0,-0.0373,-0.1186,0.0,0.0,0.0,0.0,0.0,0.0,0.0,0.0,0.0,0.0,0.0,0.0,0.0,0.0,0.0,0.0,0.0,0.0,0.0,0.0,0.0,0.0,0.0,0.0,0.0,0.0,0.0,0.0,0.0,0.0,0.0,0.0,0.0,0.0,0.0,0.0,0.0,0.0,0.0,0.0,0.0,0.0,0.0,0.0,0.0,0.0,0.0,0.0,0.0,0.0,0.0,0.0,0.0,0.0,0.0,0.0,0.0,0.0,0.0,0.0,0.0,0.0,0.0,0.0,0.0,0.0,0.0,0.0,0.0,0.0,0.0,0.0,0.0,0.0,0.0,0.0,0.0,0.0,0.0,0.0,0.0,0.0,0.0,0.0,0.0,0.0,0.0,0.0,0.0,0.0,0.0,0.0,0.0,0.0,0.0,0.0,0.0,0.0,0.0,0.0,0.0,0.0,0.0,0.0,0.0,0.0,0.0,0.0,0.0,0.0,-0.0253,-0.0904,0.0,0.0,0.0,0.0,0.0,0.0,0.0,0.0,0.0,0.0,0.0,0.0,0.0,0.0,0.0,0.0,0.0,0.0,0.0,0.0,0.0,0.0,0.0,0.0,0.0,0.0,0.0,0.0,0.0,0.0,0.0,0.0,0.0,0.0,0.0,0.0,0.0,0.0,0.0,0.0,0.0,0.0,0.0,0.0,0.0,0.0,0.0,0.0,0.0,0.0,0.0,0.0,0.0,0.0,0.0,0.0,0.0,0.0,0.0,0.0,0.0,0.0,0.0,0.0,0.0,0.0,0.0,0.0,0.0,0.0,0.0,0.0,0.0,0.0,0.0,0.0,0.0,0.0,0.0,0.0,0.0,0.0,0.0,0.0,0.0,0.0,0.0,0.0,0.0,0.0,0.0,0.0,0.0,0.0,0.0,0.0,0.0,0.0,0.0,0.0,0.0,0.0,0.0,0.0581,0.0428,0.0259,0.0134,0.0,0.0,0.0,-0.0187,-0.059,-0.1572,0.0,0.0,0.0,0.0,0.0,0.0,0.0,0.0,0.0,0.0,0.0,0.0,0.0,0.0,0.0,0.0,0.0,0.0,0.0,0.0,0.0,0.0,0.0,0.0,0.0,0.0,0.0,0.0,0.0,0.0,0.0,0.0,0.0,0.0,0.0,0.0,0.0,0.0,0.0,0.0,0.0,0.0,0.0,0.0,0.0,0.0,0.0,0.0,0.0,0.0,0.0,0.0,0.0,0.0,0.0,0.0,0.0,0.0,0.0,0.0,0.0,0.0,0.0,0.0,0.0,0.0,0.0,0.0,0.0,0.0,0.0,0.0,0.0,0.0,0.0,0.0,0.0,0.0,0.0,0.0,0.0,0.0,0.0,0.0,0.0,0.0,0.0,0.0,0.0,0.0,0.0,0.0,0.0,0.0,0.0,0.0,0.0,0.0,0.0,0.0,0.0,0.0,0.1567,0.1128,0.0773,0.0265,0.0,0.0,0.0,-0.0061,-0.0287,-0.0715,0.0,0.0,0.0,0.0,0.0,0.0,0.0,0.0,0.0,0.0,0.0,0.0,0.0,0.0,0.0,0.0,0.0,0.0,0.0,0.0,0.0,0.0,0.0,0.0,0.0,0.0,0.0,0.0,0.0,0.0,0.0,0.0,0.0,0.0,0.0,0.0,0.0,0.0,0.0,0.0,0.0,0.0,0.0,0.0,0.0,0.0,0.0,0.0,0.0,0.0,0.0,0.0,0.0,0.0,0.0,0.0,0.0,0.0,0.0,0.0,0.0,0.0,0.0,0.0,0.0,0.0,0.0,0.0,0.0,0.0,0.0,0.0,0.0,0.0,0.0,0.0,0.0,0.0,0.0,0.0,0.0,0.0,0.0,0.0,0.0,0.0,0.0,0.0,0.0,0.0,0.0,0.0,0.0,0.0,0.0,0.0,0.0,0.0,0.0,0.0,0.0,0.0,0.2872,0.2152,0.1481,0.0596,0.0,0.0,0.0,0.0,0.0,-0.0053,0.0,0.0,0.0,0.0,0.0,0.0,0.0,0.0,0.0,0.0,0.0,0.0,0.0,0.0,0.0,0.0,0.0,0.0,0.0,0.0,0.0,0.0,0.0,0.0,0.0,0.0,0.0,0.0,0.0,0.0,0.0,0.0,0.0,0.0,0.0,0.0,0.0,0.0,0.0,0.0,0.0,0.0,0.0,0.0,0.0,0.0,0.0,0.0,0.0,0.0,0.0,0.0,0.0,0.0,0.0,0.0,0.0,0.0,0.0,0.0,0.0,0.0,0.0,0.0,0.0,0.0,0.0,0.0,0.0,0.0,0.0,0.0,0.0,0.0,0.0,0.0,0.0,0.0,0.0,0.0,0.0,0.0,0.0,0.0,0.0,0.0,0.0,0.0,0.0,0.0,0.0,0.0,0.0,0.0,0.0,0.0,0.0,0.0,0.0,0.0,0.0,0.0,0.4006,0.3213,0.0,0.136,0.0518,0.0315,0.0121,0.0,0.0,0.0,0.0,0.0,0.0,0.0,0.0,0.0,0.0,0.0,0.0,0.0,0.0,0.0,0.0,0.0,0.0,0.0,0.0,0.0,0.0,0.0,0.0,0.0,0.0,0.0,0.0,0.0,0.0,0.0,0.0,0.0,0.0,0.0,0.0,0.0,0.0,0.0,0.0,0.0,0.0,0.0,0.0,0.0,0.0,0.0,0.0,0.0,0.0,0.0,0.0,0.0,0.0,0.0,0.0,0.0,0.0,0.0,0.0,0.0,0.0,0.0,0.0,0.0,0.0,0.0,0.0,0.0,0.0,0.0,0.0,0.0,0.0,0.0,0.0,0.0,0.0,0.0,0.0,0.0,0.0,0.0,0.0,0.0,0.0,0.0,0.0,0.0,0.0,0.0,0.0,0.0,0.0,0.0,0.0,0.0,0.0,0.0,0.0,0.0,0.0,0.0,0.0,0.6275,0.5546,0.4699,0.0,0.2355,0.1271,0.086,0.0296,0.0,0.0,0.0,0.0,0.0,0.0,0.0,0.0,0.0,0.0,0.0,0.0,0.0,0.0,0.0,0.0,0.0,0.0,0.0,0.0,0.0,0.0,0.0,0.0,0.0,0.0,0.0,0.0,0.0,0.0,0.0,0.0,0.0,0.0,0.0,0.0,0.0,0.0,0.0,0.0,0.0,0.0,0.0,0.0,0.0,0.0,0.0,0.0,0.0,0.0,0.0,0.0,0.0,0.0,0.0,0.0,0.0,0.0,0.0,0.0,0.0,0.0,0.0,0.0,0.0,0.0,0.0,0.0,0.0,0.0,0.0,0.0,0.0,0.0,0.0,0.0,0.0,0.0,0.0,0.0,0.0,0.0,0.0,0.0,0.0,0.0,0.0,0.0,0.0,0.0,0.0,0.0,0.0,0.0,0.0,0.0,0.0,0.0,0.0,0.0,0.0,0.0,0.0,0.0,0.8063,0.7503,0.663,0.5345,0.3597,0.2273,0.1571,0.0577,0.0,0.0,0.0,0.0,0.0,0.0,0.0,0.0,0.0,0.0,0.0,0.0,0.0,0.0,0.0,0.0,0.0,0.0,0.0,0.0,0.0,0.0,0.0,0.0,0.0,0.0,0.0,0.0,0.0,0.0,0.0,0.0,0.0,0.0,0.0,0.0,0.0,0.0,0.0,0.0,0.0,0.0,0.0,0.0,0.0,0.0,0.0,0.0,0.0,0.0,0.0,0.0,0.0,0.0,0.0,0.0,0.0,0.0,0.0,0.0,0.0,0.0,0.0,0.0,0.0,0.0,0.0,0.0,0.0,0.0,0.0,0.0,0.0,0.0,0.0,0.0,0.0,0.0,0.0,0.0,0.0,0.0,0.0,0.0,0.0,0.0,0.0,0.0,0.0,0.0,0.0,0.0,0.0,0.0,0.0,0.0,0.0,0.0,0.0,0.0,0.0,0.0,0.0,0.0,0.8145,0.7805,0.7166,0.6237,0.4622,0.3351,0.2744,0.1802,0.1143,0.0953,0.0,0.0,0.0,0.0,0.0,0.0,0.0,0.0,0.0,0.0,0.0,0.0,0.0,0.0,0.0,0.0,0.0,0.0,0.0,0.0,0.0,0.0,0.0,0.0,0.0,0.0,0.0,0.0,0.0,0.0,0.0,0.0,0.0,0.0,0.0,0.0,0.0,0.0,0.0,0.0,0.0,0.0,0.0,0.0,0.0,0.0,0.0,0.0,0.0,0.0,0.0,0.0,0.0,0.0,0.0,0.0,0.0,0.0,0.0,0.0,0.0,0.0,0.0,0.0,0.0,0.0,0.0,0.0,0.0,0.0,0.0,0.0,0.0,0.0,0.0,0.0,0.0,0.0,0.0,0.0,0.0,0.0,0.0,0.0,0.0,0.0,0.0,0.0,0.0,0.0,0.0,0.0,0.0,0.0,0.0,0.0,0.0,0.0,0.0,0.0,0.0,0.0,0.8309,0.8318,0.7986,0.7256,0.602,0.4959,0.4309,0.3284,0.2538,0.2108,0.0,0.0,0.0,0.0,0.0,0.0,0.0,0.0,0.0,0.0,0.0,0.0,0.0,0.0,0.0,0.0,0.0,0.0,0.0,0.0,0.0,0.0,0.0,0.0,0.0,0.0,0.0,0.0,0.0,0.0,0.0,0.0,0.0,0.0,0.0,0.0,0.0,0.0,0.0,0.0,0.0,0.0,0.0,0.0,0.0,0.0,0.0,0.0,0.0,0.0,0.0,0.0,0.0,0.0,0.0,0.0,0.0,0.0,0.0,0.0,0.0,0.0,0.0,0.0,0.0,0.0,0.0,0.0,0.0,0.0,0.0,0.0,0.0,0.0,0.0,0.0,0.0,0.0,0.0,0.0,0.0,0.0,0.0,0.0,0.0,0.0,0.0,0.0,0.0,0.0,0.0,0.0,0.0,0.0,0.0,0.0,0.0,0.0,0.0,0.0,0.0,0.0,0.8384,0.8876,0.8868,0.8251,0.7429,0.6642,0.6039,0.4972,0.4061,0.3461,0.0,0.0,0.0,0.0,0.0,0.0,0.0,0.0,0.0,0.0,0.0,0.0,0.0,0.0,0.0,0.0,0.0,0.0,0.0,0.0,0.0,0.0,0.0,0.0,0.0,0.0,0.0,0.0,0.0,0.0,0.0,0.0,0.0,0.0,0.0,0.0,0.0,0.0,0.0,0.0,0.0,0.0,0.0,0.0,0.0,0.0,0.0,0.0,0.0,0.0,0.0,0.0,0.0,0.0,0.0,0.0,0.0,0.0,0.0,0.0,1.7302,0.0,0.0,0.0,0.0,0.0,0.0,0.0,0.0,0.0,0.0,0.0,0.0,0.0,0.0,0.0,0.0,0.0,0.0,0.0,0.0,0.0,0.0,0.0,0.0,0.0,0.0,0.0,0.0,0.0,0.0,0.0,0.0,0.0,0.0,0.0,0.0,0.0,0.0,0.0,0.0,0.0,0.8092,0.8421,0.8518,0.8094,0.7526,0.6991,0.6537,0.5826,0.5079,0.4461,0.3638,0.0,0.0,0.0,0.0,0.0,0.0,0.0,0.0,0.0,0.0,0.0,0.0,0.0,0.0,0.0,0.0,0.0,0.0,0.0,0.0,0.0,0.0,0.0,0.0,0.0,0.0,0.0,0.0,0.0,0.0,0.0,0.0,0.0,0.0,0.0,0.0,0.0,0.0,0.0,0.0,0.0,0.0,0.0,0.0,0.0,0.0,0.0,0.0,0.0,0.0,0.0,0.0,0.0,0.0,0.0,0.0,0.0,0.0,0.0,0.0,1.815,0.0,0.0,0.0,0.0,0.0,0.0,0.0,0.0,0.0,0.0,0.0,0.0,0.0,0.0,0.0,0.0,0.0,0.0,0.0,0.0,0.0,0.0,0.0,0.0,0.0,0.0,0.0,0.0,0.0,0.0,0.0,0.0,0.0,0.0,0.0,0.0,0.0,0.0,0.0,0.0,0.7941,0.8299,0.843,0.8272,0.801,0.7747,0.7589,0.7208,0.6642,0.5913,0.507,0.0,0.0,0.0,0.0,0.0,0.0,0.0,0.0,0.0,0.0,0.0,0.0,0.0,0.0,0.0,0.0,0.0,0.0,0.0,0.0,0.0,0.0,0.0,0.0,0.0,0.0,0.0,0.0,0.0,0.0,0.0,0.0,0.0,0.0,0.0,0.0,0.0,0.0,0.0,0.0,0.0,0.0,0.0,0.0,0.0,0.0,0.0,0.0,0.0,0.0,0.0,0.0,0.0,2.0795,2.0795,2.0747,2.0801,2.0795,2.0706,2.0019,1.9354,1.8718,0.0,0.0,0.0,0.0,0.0,0.0,0.0,0.0,0.0,0.0,0.0,0.0,0.0,0.0,0.0,0.0,0.0,0.0,0.0,0.0,0.0,0.0,0.0,0.0,0.0,1.1313,1.0296,0.0,0.0,0.0,0.0,0.0,0.0,0.0,0.0,0.0,0.0,0.0,0.0,0.7864,0.8221,0.8404,0.8404,0.8404,0.8404,0.8404,0.8299,0.7949,0.7163,0.6362,0.5578,0.0,0.0,0.0,0.0,0.0,0.0,0.0,0.0,0.0,0.0,0.0,0.0,0.0,0.0,0.0,0.0,0.0,0.0,0.0,0.0,0.0,0.0,0.0,0.0,0.0,0.0,0.0,0.0,0.0,0.0,0.0,0.0,2.6254,2.5671,0.0,0.0,0.0,0.0,0.0,0.0,0.0,0.0,0.0,0.0,0.0,0.0,0.0,2.2027,2.2399,2.2722,2.2875,2.2919,2.3126,2.3119,2.2926,2.3134,2.3112,2.2919,2.301,0.0,1.9606,1.9359,0.0,0.0,0.0,0.0,0.0,0.0,0.0,0.0,0.0,0.0,0.0,0.0,0.0,0.0,0.0,0.0,0.0,0.0,0.0,0.0,0.0,0.0,1.4395,1.4106,1.3215,1.2432,0.0,1.1023,0.9808,0.9492,0.9176,0.0,0.0,0.0,0.0,0.0,0.0,0.0,0.7634,0.7916,0.8049,0.8049,0.8049,0.8049,0.8049,0.8029,0.7792,0.7212,0.6685,0.6127,0.5508,0.4994,0.0,0.0,0.0,0.0,0.0,0.0,0.0,0.0,0.0,0.0,0.0,0.0,0.0,0.0,0.0,0.0,0.0,0.0,0.0,0.0,0.0,0.0,0.0,0.0,0.0,0.0,0.0,0.0,0.0,2.8164,2.862,2.8263,2.6969,2.5786,0.0,0.0,0.0,0.0,0.0,0.0,0.0,0.0,0.0,2.4468,2.4767,2.5308,2.6049,2.6327,2.6436,2.6371,2.6522,2.6419,2.603,2.618,2.599,2.5675,2.576,2.477,2.2857,2.1181,2.0089,1.9434,0.0,0.0,0.0,0.0,1.8434,1.8131,1.8104,1.7816,0.0,1.7408,0.0,0.0,0.0,0.0,0.0,0.0,0.0,0.0,0.0,0.0,0.0,1.5264,1.4656,1.4035,1.3892,1.3242,1.2403,0.0,1.1082,1.059,0.966,0.0,0.0,0.0,0.0,0.7424,0.758,0.7855,0.7988,0.7988,0.7988,0.7988,0.7988,0.7988,0.7848,0.7535,0.733,0.707,0.672,0.6454,0.6039,0.0,0.0,0.0,0.0,0.0,0.0,0.0,0.0,0.0,0.0,0.0,0.0,0.0,0.0,0.0,0.0,0.0,0.0,0.0,0.0,0.0,0.0,0.0,0.0,0.0,0.0,0.0,0.0,3.0293,3.0645,3.0434,2.9282,2.8232,0.0,0.0,0.0,0.0,0.0,0.0,2.5866,2.6181,2.6644,2.7261,2.767,2.8247,2.9017,2.9325,2.9453,2.9387,2.9219,2.9033,2.8772,2.8772,2.8504,2.8087,2.8087,2.7294,2.5758,2.2928,2.1358,2.073,2.0087,1.9845,1.9852,1.9845,1.9673,1.9319,1.896,1.8584,1.8189,1.809,0.0,1.7119,1.6683,0.0,0.0,0.0,0.0,1.5606,1.6093,1.6209,1.6231,1.6296,1.598,1.5583,1.5321,1.5267,1.4798,0.0,1.2704,1.2199,1.1126,0.0,0.0,0.0,0.0,0.788,0.7955,0.8208,0.8312,0.8273,0.8266,0.8266,0.8266,0.8266,0.8198,0.8087,0.8076,0.8008,0.7855,0.7783,0.7437,0.6833,0.0,0.0,0.0,0.0,0.0,0.0,0.0,0.0,0.0,0.0,0.0,0.0,0.0,0.0,0.0,0.0,0.0,0.0,0.0,0.0,0.0,0.0,0.0,0.0,0.0,0.0,0.0,0.0,0.0,3.1684,3.1427,0.0,0.0,0.0,0.0,2.7979,2.7997,2.8175,2.8567,2.8603,2.8807,2.9164,2.9883,3.0228,3.029,3.0697,3.0901,3.0893,3.0455,3.0195,3.0178,3.0178,2.9974,2.9612,2.9612,2.8794,2.7148,2.4246,2.2677,2.2034,2.1283,2.1085,2.1178,2.1148,2.0943,2.0587,1.9979,1.9359,1.8925,1.9192,1.8365,1.7192,1.7166,1.6707,0.0,0.0,1.6623,1.6703,1.7048,1.7141,1.7221,1.7463,1.7477,1.7397,1.7105,1.7045,1.6413,0.0,1.3552,1.3185,1.2498,0.0,1.0506,1.0251,0.9511,0.9021,0.9029,0.9151,0.916,0.8949,0.8933,0.8933,0.8933,0.8933,0.8904,0.877,0.8758,0.8673,0.8536,0.852,0.8296,0.7764,0.689,0.0,0.0,0.0,0.0,0.0,0.0,0.0,0.0,0.0,0.0,0.0,0.0,0.0,0.0,0.0,0.0,0.0,0.0,0.0,0.0,0.0,0.0,0.0,0.0,0.0,0.0,0.0,0.0,3.3204,3.3208,0.0,3.2545,3.146,3.0882,3.1148,3.1413,3.1508,3.1404,3.1907,3.2267,3.2419,3.263,3.2914,3.317,3.3321,3.3274,3.3009,3.2518,3.2178,3.1923,3.1658,3.1247,3.0851,3.0851,3.0167,2.8864,2.6724,2.5086,2.3935,2.2933,2.2927,2.3319,2.3068,2.2635,2.2183,2.1328,2.0742,2.0373,2.0281,1.9465,1.8558,1.8558,1.8131,1.7668,1.7782,1.7811,1.7832,1.7934,1.7858,1.7688,1.7599,1.7464,1.7226,1.6737,1.6636,1.6318,1.5286,1.5177,1.4986,1.406,1.3223,1.243,1.1803,1.1172,1.0697,1.0519,1.0632,1.0632,1.0385,1.0362,1.0362,1.0362,1.0362,1.0329,1.0301,1.0296,1.0263,1.0189,1.0229,0.9948,0.9339,0.84,0.7621,0.0,0.0,0.0,0.0,0.0,0.0,0.0,0.0,0.0,0.0,0.0,0.0,0.0,0.0,0.0,0.0,0.0,0.0,0.0,0.0,0.0,0.0,0.0,0.0,0.0,0.0,3.3437,3.4004,3.4336,3.4453,3.4297,3.3516,3.3135,3.3418,3.3701,3.3672,3.3252,3.3769,3.4004,3.3857,3.3994,3.4209,3.4482,3.4492,3.4346,3.4062,3.3633,3.3271,3.2998,3.2725,3.2275,3.1738,3.1738,3.1099,2.9924,2.8436,2.728,2.6342,2.5006,2.4975,2.5662,2.5357,2.4829,2.4166,2.2991,2.2421,2.2177,2.1834,2.117,2.0436,2.0436,2.0028,1.9506,1.9506,1.9506,1.9453,1.9269,1.8869,1.8446,1.7995,1.7514,1.7012,1.6273,1.6126,1.6005,1.5611,1.5858,1.5903,1.5083,1.4422,1.3734,1.3055,1.2442,1.1987,1.1663,1.1711,1.1666,1.1436,1.1415,1.1415,1.1415,1.1415,1.1415,1.1415,1.1415,1.1415,1.1415,1.1415,1.1124,1.0588,0.9435,0.8475,0.7727,0.0,0.0,0.0,0.0,0.0,0.0,0.0,0.0,0.0,0.0,0.0,0.0,0.0,0.0,0.0,0.0,0.0,0.0,0.0,0.0,0.0,0.0,0.0,3.1357,3.2998,3.4082,3.4111,3.4892,3.5254,3.4805,3.4766,3.4756,3.4736,3.4736,3.4541,3.4092,3.4072,3.3867,3.3428,3.3818,3.4043,3.4053,3.4053,3.4053,3.4053,3.3613,3.3408,3.3398,3.3389,3.293,3.2148,3.2148,3.154,3.0353,2.9332,2.9105,2.9154,2.7453,2.7278,2.7975,2.7831,2.7346,2.6579,2.4893,2.4358,2.43,2.3937,2.3335,2.2749,2.2749,2.2281,2.1736,2.1736,2.1727,2.1576,2.1049,2.0282,1.9427,1.8607,1.7786,1.6995,1.6067,1.5818,1.5698,1.5187,1.5484,1.5764,1.5527,1.4922,1.4325,1.3999,1.3314,0.0,1.2393,1.2359,1.2306,1.2086,1.2057,1.2057,1.2057,1.2057,1.2057,1.2057,1.2057,1.2057,1.2057,1.2057,1.1837,1.1311,0.991,0.8747,0.788,0.0,0.0,0.0,0.0,0.0,0.0,0.0,0.0,0.0,0.0,0.0,0.0,0.0,0.0,0.0,0.0,0.0,0.0,0.0,0.0,0.0,3.174,3.2098,3.1994,3.3193,3.4307,3.4951,3.5791,3.6269,3.6142,3.6133,3.5996,3.5684,3.5654,3.5195,3.4131,3.4072,3.3867,3.3428,3.3242,3.3291,3.3603,3.3603,3.3603,3.3594,3.3174,3.2969,3.2959,3.2656,3.2217,3.1699,3.1699,3.1327,3.0723,3.0093,3.0103,3.0258,2.853,2.8116,2.8492,2.8131,2.7311,2.625,2.5543,2.5322,2.5305,2.5191,2.4644,2.4009,2.4009,2.3278,2.2452,2.2452,2.2186,2.1815,2.1298,2.0752,2.0037,1.9028,1.8353,1.7782,1.7061,1.6679,1.6536,1.664,1.6604,1.6285,1.5558,1.5431,1.531,1.5007,1.4818,0.0,1.3963,1.3899,1.3796,1.3551,1.3525,1.3525,1.3525,1.3525,1.3525,1.3525,1.3525,1.3525,1.3525,1.3525,1.2995,1.1908,1.0972,1.0058,0.0,0.0,0.0,0.0,0.0,0.0,0.0,0.0,0.0,0.0,0.0,0.0,0.0,0.0,0.0,0.0,0.0,0.0,0.0,0.0,0.0,0.0,3.3952,3.3973,3.3945,3.4354,3.4814,3.5332,3.6152,3.667,3.667,3.6826,3.6758,3.6328,3.6289,3.5723,3.4404,3.4336,3.4053,3.3437,3.3184,3.3174,3.3418,3.3418,3.3418,3.3418,3.3174,3.2969,3.2793,3.2549,3.21,0.0,3.1514,3.1279,3.0869,3.0605,3.0537,0.0,0.0,0.0,0.0,0.0,2.7958,2.7299,2.6911,2.6772,2.6772,2.6772,2.6338,2.5774,2.5607,2.4821,2.3904,2.3768,2.3369,2.2896,2.2378,2.1935,2.13,2.0145,1.9582,1.902,1.8249,1.7909,1.7785,1.7839,1.7809,0.0,1.6562,1.613,1.5824,1.557,1.542,1.5168,1.4783,1.4843,1.4816,1.4678,1.4664,1.4664,1.4664,1.4664,0.0,0.0,0.0,1.458,1.437,1.4173,0.0,0.0,0.0,0.0,0.0,0.0,0.0,0.0,0.9135,0.9683,0.0,0.0,0.0,0.0,0.0,0.0,0.0,0.0,0.0,0.0,0.0,0.0,0.0,0.0,0.0,0.0,3.5941,3.5825,3.6511,3.6122,3.5719,3.5469,3.6221,3.6738,3.6738,3.7168,3.7246,3.6777,3.6738,3.6142,3.4775,0.0,0.0,0.0,0.0,3.3379,3.3418,3.3418,3.3418,3.3418,3.3418,3.3203,3.2793,3.2793,3.2324,3.1514,3.1514,3.1279,3.0889,3.0889,3.0615,3.0185,3.0088,3.0049,2.9951,2.9141,2.8848,2.8789,2.8418,0.0,0.0,2.8232,2.7939,2.751,2.708,2.6309,2.546,2.5107,2.4639,2.413,2.366,2.3241,2.2676,2.1532,2.0972,2.0429,1.951,1.9259,1.9178,1.8842,1.901,1.8891,1.8091,1.6967,1.6137,1.5798,1.5509,1.5298,1.5251,1.5443,1.5594,1.5594,0.0,0.0,1.5594,1.5594,1.5594,1.5594,1.556,1.5311,1.481,1.4412,1.3864,1.313,1.2743,1.2198,1.1543,1.1599,1.1482,1.1288,1.0735,1.109,0.0,0.0,0.0,0.0,0.0,0.0,0.0,0.0,0.0,0.0,0.0,0.0,0.0,0.0,0.0,3.8514,3.8152,3.7932,3.8445,3.8357,3.7631,3.6073,3.665,3.7178,3.7178,3.7871,3.8008,3.7236,3.7178,3.6455,3.4785,3.4375,3.3955,3.3437,3.3096,3.3076,3.3418,3.3418,3.3418,3.3418,0.0,0.0,3.2793,3.2793,3.2324,3.1514,3.1514,3.1279,3.0889,3.0889,3.0615,3.0127,2.9434,2.917,2.9101,2.8603,2.8418,2.8398,2.832,2.8291,2.8232,2.79,2.749,2.706,2.6641,2.5644,0.0,2.457,2.3984,2.33,2.3034,2.2836,2.2502,2.1789,2.1442,2.1206,2.0718,2.0395,2.0202,1.9992,1.9834,1.947,1.8887,1.7796,1.6795,1.6197,1.5992,1.5985,1.6121,1.6609,1.6935,1.6935,1.6935,1.6935,1.6935,1.6935,1.6935,1.6935,1.6617,1.6165,1.5538,1.511,1.4587,1.3913,1.3546,1.3287,1.314,1.2954,1.2934,1.3056,1.2126,1.1992,0.0,0.0,0.0,0.0,0.0,0.0,0.0,0.0,0.0,0.0,0.0,3.9306,4.0635,0.0,4.0789,4.1768,4.1178,4.0806,4.1261,4.1056,4.0007,3.7733,3.8195,3.8638,3.8417,3.899,3.902,3.8145,3.7805,3.7159,3.5821,3.5328,3.4886,3.4433,3.4212,3.414,3.4173,3.3985,3.3922,3.3922,3.3922,3.3647,3.3204,3.3376,3.2894,3.1817,3.171,3.1426,3.1082,3.0468,3.0088,2.9795,2.8945,2.874,2.8867,2.8447,2.8291,2.8291,2.8291,2.8291,2.8223,2.7855,2.7519,2.7217,2.6582,2.5781,2.5029,2.4805,2.4277,2.3686,2.3392,2.3419,2.3336,2.2564,2.252,2.2526,2.2162,2.1901,2.1739,2.1448,2.1286,2.0846,1.9982,1.9024,1.8069,1.7202,1.6786,1.6723,1.7164,1.7666,1.7997,1.7997,1.7997,1.7997,1.7997,1.7997,1.7997,1.7997,1.7378,1.6758,1.6146,1.5531,1.4893,1.4252,1.4252,1.4175,1.4022,1.4209,1.4286,1.4279,1.3784,1.3495,0.0,0.0,0.0,0.0,0.0,0.0,0.0,3.9823,3.9948,4.1505,4.1764,4.2258,4.3702,4.3589,4.3606,4.4477,4.3881,4.341,4.3686,4.3391,4.2392,4.0123,4.0351,4.0503,4.0114,4.0255,4.0087,3.9279,3.8786,3.8115,3.7265,3.6855,3.6435,3.5962,3.5941,3.5767,3.5397,3.4901,3.4652,3.4662,3.4652,3.4432,3.3922,3.4397,3.3884,3.2607,3.2123,3.1614,3.1149,3.0045,2.9626,2.9482,2.8633,2.8496,2.875,2.8418,2.8291,2.8281,2.8203,2.8174,2.8086,2.764,2.7474,2.7327,2.6494,2.5957,2.5527,2.5166,2.4756,2.4316,2.3896,2.4043,2.4102,2.3276,2.3408,2.3564,2.3169,2.3091,2.2945,2.249,2.2393,2.1984,2.0757,2.0021,1.9263,1.8253,1.7713,1.7594,1.8238,1.8767,1.9054,1.9054,1.9054,1.9054,1.9054,1.9054,1.9054,1.9054,1.8245,1.7488,1.6884,1.6042,1.5327,1.4708,1.4976,1.5046,1.4844,1.5408,1.5598,1.5458,1.5408,1.4999,3.1317,3.3858,3.6723,3.8577,3.9663,4.0437,0.0,4.1668,4.2175,4.3288,4.3526,4.3727,4.4405,4.448,4.4552,4.4898,4.4707,4.4485,4.4235,4.4463,4.4295,4.3525,4.2809,4.2293,4.2249,4.175,4.1242,4.0777,4.0204,3.9508,3.8681,3.8642,3.8387,3.7887,3.7865,3.7588,3.7067,3.6122,3.5653,3.5756,3.5653,3.5455,3.5146,3.6008,3.5595,3.4069,3.2711,3.1662,3.0878,2.9988,2.9626,2.9482,2.8633,2.832,2.8359,2.831,2.8291,2.8242,2.7861,2.7787,2.765,2.6797,2.6533,2.6435,2.5908,2.5498,2.5184,2.5135,2.4756,2.4316,2.3896,2.3828,2.374,2.3208,2.313,2.3149,2.311,2.3091,2.2867,2.2109,2.1953,2.1639,2.0525,1.992,1.9436,1.8936,1.8803,1.8917,1.9362,2.0001,2.0401,2.0401,2.0401,2.0401,2.0401,2.0401,2.0401,2.0401,1.9553,1.8773,1.813,1.7254,1.6518,1.5817,1.5857,1.6049,1.6441,1.6522,1.6709,1.7033,1.6675,1.5842,3.3512,3.5506,3.7471,3.9156,4.0054,4.0882,4.2213,4.3052,4.3915,4.5033,4.5522,4.5899,4.6439,4.6288,4.6203,0.0,4.6637,4.6526,4.6402,4.6816,4.6797,4.5879,4.4895,4.3938,4.3025,4.2396,4.1891,4.1386,4.0869,4.0399,4.0057,3.9806,3.9541,3.9381,3.9381,3.9087,3.8458,3.7478,3.6926,3.6856,3.6584,3.6369,3.6262,3.6984,3.6184,3.4114,3.2882,3.184,3.0946,3.0264,3.0067,3.0116,2.949,2.93,2.9195,2.8558,2.8291,2.8232,2.7812,2.7718,2.7581,2.667,2.6387,2.6309,2.582,2.5557,2.5459,2.5459,2.5332,2.4982,2.4336,2.415,2.3984,2.3257,2.3091,2.3091,2.3091,2.3091,2.2847,2.2051,2.1885,2.1611,2.0644,2.0323,2.0128,1.9981,1.9608,1.952,1.9932,2.0362,2.0605,2.0605,2.0605,2.0507,2.0215,2.0185,2.0078,1.9881,1.9176,1.857,1.8009,1.7307,1.6695,1.6191,1.6376,1.6564,1.6764,1.7248,1.7548,1.772,1.7533,1.6944,3.4696,3.609,3.743,3.911,4.0046,4.1033,4.2842,4.4181,4.5321,4.6137,4.6627,4.7029,4.7405,4.7041,4.6853,4.738,4.7719,4.7807,4.7506,4.8083,4.8071,4.6828,4.5836,4.473,4.3479,4.3034,4.2652,4.2222,4.1887,4.167,4.1468,4.1143,4.0997,4.0997,4.0997,4.0709,4.0071,3.9039,3.8435,3.8134,3.7743,3.752,3.7487,3.7731,3.6608,3.4281,3.3304,3.227,3.136,3.0836,3.0892,3.1212,3.0809,3.0555,3.0295,2.9493,2.891,2.8426,2.7823,2.7584,2.7344,2.6484,2.6211,2.6152,2.5781,2.5693,2.5664,2.5586,2.5557,2.5352,2.4473,2.4248,2.4062,2.3266,2.3091,2.3091,2.3091,2.3091,2.2847,2.2051,2.1885,2.1602,2.0762,2.0605,2.0605,2.0605,2.0206,2.001,2.0333,2.0489,2.0605,2.0605,2.0498,2.0254,1.9941,1.9805,1.9609,1.9307,1.8753,1.8334,1.8022,1.7495,1.7063,1.6768,1.7015,1.7188,1.7288,1.7878,1.8277,1.8534,1.8394,1.8063,3.4229,3.5435,3.6805,3.8369,3.9643,4.1056,4.3047,4.4936,4.6276,4.6301,4.6326,4.6338,4.6351,4.5912,4.5711,4.6276,4.723,4.7544,4.6502,4.7267,4.7343,4.5736,4.5008,4.4385,0.0,4.3738,4.3726,4.3701,4.3688,4.3507,4.2968,4.293,4.2918,4.2918,4.2918,4.2638,4.1992,4.1019,4.0239,3.9741,3.9128,3.8938,3.8989,3.828,3.6989,3.5211,3.4186,3.3145,3.2135,3.1881,3.2221,3.2882,3.2431,3.1901,3.1434,3.1501,3.0453,2.8906,2.7819,2.7225,2.6894,2.5986,2.5703,2.5703,2.5693,2.5693,2.5596,2.5215,2.5135,2.494,2.4033,2.3809,2.3691,2.3198,2.3091,2.3091,2.3091,2.3091,2.2847,2.2051,2.1885,2.1602,2.0762,2.0605,2.0605,2.0605,2.0566,2.0566,2.0605,2.0605,2.0605,2.0605,2.0185,1.9932,1.9912,1.9541,1.9297,1.9287,1.8841,1.8607,1.8562,1.8163,1.7974,1.794,1.7949,1.8163,1.8562,1.8556,1.9029,1.9837,1.945,1.9167,3.3728,3.4496,3.5403,3.7461,3.9059,4.0697,4.2897,4.5196,4.6753,4.6389,4.6313,4.6313,4.6313,4.6163,4.6213,4.6765,4.777,4.8222,4.7468,4.8008,4.787,4.6225,4.5196,0.0,0.0,0.0,0.0,4.3263,4.3263,4.3175,4.2986,4.2974,4.2974,4.2974,4.2974,4.2631,4.1812,4.1103,4.0374,3.9679,3.9336,3.9299,3.9454,3.8286,3.6896,3.5366,3.4381,3.3149,3.1927,3.2117,3.2358,3.26,3.2416,3.2243,3.202,3.1514,3.0536,2.9354,2.8359,2.7561,2.6875,2.5966,2.5537,2.5293,2.5293,2.5293,2.5205,2.4756,2.4844,2.492,2.4014,2.3789,2.3682,2.3198,2.3091,2.3091,2.3091,2.3091,2.2847,2.2051,2.1885,2.1602,2.0762,2.0605,2.0605,2.0605,2.0605,2.0605,2.0605,2.0605,2.0605,2.0605,2.0176,1.9805,1.9521,1.9102,1.874,1.8457,1.8301,1.8188,1.8188,1.8086,1.8008,1.8008,1.8008,1.8076,1.8188,1.8461,1.8754,1.9046,1.936,1.9316,3.3248,3.3868,3.4721,3.6997,3.8697,4.0507,4.2771,4.5267,4.6916,4.6175,4.5849,4.5711,4.5711,4.5384,4.5434,4.6389,4.7468,4.8058,4.7682,4.8284,4.8159,4.6502,4.5497,4.4631,0.0,0.0,0.0,4.2974,4.2974,4.2974,4.2974,4.2974,4.2974,4.2974,4.2974,4.2655,4.1883,4.1484,4.0732,3.9622,3.9484,3.9429,3.9383,3.8241,3.7064,3.5888,3.462,3.3572,3.2682,3.2746,3.2948,3.3236,3.3236,3.3116,3.2833,3.216,3.1035,2.9629,2.8546,2.7583,2.665,2.5781,2.5303,2.5086,2.4883,2.4834,2.4746,2.4316,2.4394,2.4443,2.374,2.3555,2.3486,2.3159,2.3091,2.3091,2.3091,2.3091,2.2847,2.2051,2.1885,2.1602,2.0762,2.0605,2.0605,2.0605,2.0605,2.0605,2.0605,2.0605,2.0605,2.0605,2.0039,1.958,1.9307,1.875,1.8301,1.8027,1.8008,1.8008,1.8008,1.8008,1.8008,1.8008,1.8008,1.8008,1.8008,1.8247,1.8451,1.8617,1.9027,1.9285,3.2783,3.3639,3.4657,3.6802,3.8581,4.0461,4.2689,4.517,4.669,4.5585,4.4882,4.4455,4.4455,4.3601,4.3438,4.5133,4.6376,4.7081,4.7167,4.8121,4.8209,0.0,0.0,0.0,0.0,0.0,0.0,4.2974,0.0,4.2974,4.2974,4.2974,4.2961,4.2936,4.2936,4.2715,4.2137,4.2099,4.1241,3.9697,3.9672,3.9383,3.8868,3.8236,3.7445,3.6578,3.5016,3.4277,3.4158,3.3678,3.3958,3.4638,3.4638,3.4324,3.3777,3.3314,3.1786,2.9808,2.8412,2.7247,2.6211,2.5399,2.5086,2.4969,2.4512,2.4385,2.4297,2.3877,2.3769,2.3691,2.3208,2.3091,2.3091,2.3091,2.3091,2.3091,2.3091,2.3091,2.2847,2.2051,2.1846,2.1553,2.0752,2.0605,2.0605,2.0605,2.0605,2.0605,2.0605,2.0605,2.0605,2.0605,1.9832,1.9287,1.9287,1.8506,1.8008,1.8008,1.8008,1.8008,1.8008,1.8008,1.8008,1.8008,1.8008,1.8008,1.8008,1.8008,1.8213,1.8568,1.8588,1.9046,3.2607,3.324,3.4027,3.5954,3.7822,3.9738,4.1658,4.3757,4.4945,4.384,4.2848,4.2115,4.2115,4.1944,4.2296,4.3966,4.5861,0.0,4.7657,4.8673,0.0,4.7644,0.0,4.566,4.4531,4.3175,0.0,0.0,4.2974,4.2974,4.2974,4.2974,4.2841,4.2439,4.2414,4.1907,4.094,4.0526,4.0111,3.9685,3.927,3.9007,3.8843,3.763,3.6788,3.6094,3.5126,3.429,3.3654,3.3551,3.3493,3.3495,3.3495,3.3407,3.3208,3.2575,3.1376,2.9977,2.8725,2.7222,2.581,2.5244,2.4639,2.4102,2.3984,2.3945,2.3857,2.3428,2.3545,2.3691,2.3208,2.3091,2.3091,2.3091,2.3091,2.3091,2.3091,2.3091,2.2847,2.2051,2.1398,2.0869,2.0644,2.0605,2.0605,2.0605,2.0605,2.0605,2.0605,2.0605,2.0605,2.0605,1.9832,1.9287,1.9287,1.8506,1.8008,1.8008,1.8008,1.8008,1.8008,1.8008,1.8008,1.8008,1.8008,1.8008,1.8008,1.8008,1.8066,1.8174,1.8451,1.889,3.2617,3.3105,3.3778,3.5473,3.7277,3.9108,4.0872,4.2638,4.3672,4.2925,4.1798,4.1,4.125,4.1087,4.1517,4.3175,0.0,0.0,4.7129,4.8159,4.8535,0.0,4.6828,0.0,4.4731,4.3564,4.2898,0.0,4.2748,4.2778,4.2961,4.2974,4.2778,4.2225,4.2213,4.163,4.0526,3.9973,3.9697,3.9685,3.9132,3.8743,3.8454,3.7179,3.6349,3.5716,0.0,3.414,3.367,3.3394,3.3227,3.3124,3.3124,3.3124,3.3025,3.2407,3.1536,3.0495,2.934,2.7934,2.6491,2.5472,2.4816,2.4385,2.4175,2.4105,2.4055,2.3804,2.3914,2.4011,2.3684,2.3493,2.3406,2.3319,2.3188,2.3091,2.3091,2.3091,2.2847,2.2051,2.1212,2.0605,2.0605,2.0605,2.0605,2.0605,2.0693,2.077,2.0848,2.0722,2.0605,2.0605,1.9832,1.9287,1.9287,1.8506,1.8008,1.8008,1.8008,1.8008,1.8008,1.8008,1.8008,1.8008,1.8008,1.8008,1.8008,1.8008,1.8008,1.8018,1.8217,1.8691,3.2764,3.3144,3.3705,3.5096,3.6612,3.8176,3.9927,4.133,4.2213,4.1978,4.101,4.035,4.0862,4.0626,4.0865,4.2585,4.4279,4.556,4.6125,4.7129,4.7581,4.6991,4.6489,4.5761,4.4618,4.4079,4.3576,4.3024,4.259,4.2502,4.2848,4.2873,4.264,4.2011,4.1923,4.1367,4.0413,3.986,3.9584,3.9584,3.8944,3.8341,3.7751,3.6722,3.5956,3.5332,3.4349,0.0,3.3859,3.3307,3.3124,3.3124,3.3124,3.3124,3.3038,3.2605,3.1896,3.1056,3.0109,2.8964,2.7685,2.6019,2.5434,2.5309,2.488,2.4787,2.4787,2.4787,2.4787,2.4701,2.4476,2.4186,2.3874,2.3667,2.3363,2.3091,2.3091,2.3013,2.2711,2.2031,2.1212,2.0605,2.0605,2.0605,2.0605,2.0605,2.078,2.1022,2.1272,2.0954,2.0683,2.0683,1.9928,1.9382,1.9297,1.8555,1.8066,1.8018,1.8042,1.8042,1.8076,1.8076,1.8076,1.8076,1.8042,1.8042,1.8008,1.8008,1.8008,1.8008,1.8008,1.8467,3.3203,3.3369,3.3564,3.4398,3.5139,3.6061,3.7425,3.8468,3.9104,3.9119,3.8757,3.8617,3.9195,3.922,3.9899,4.2011,4.3689,4.497,4.5547,4.6577,4.6903,0.0,4.5686,4.5183,4.4053,4.3853,0.0,0.0,0.0,4.274,4.2376,4.2351,4.1831,4.084,4.035,4.0036,3.9835,3.9295,3.9057,3.9057,3.7965,3.7186,3.6669,3.5981,3.5345,3.4781,3.4173,0.0,3.3859,3.3307,3.3124,3.3124,3.3124,3.3124,3.3081,3.2766,3.2025,3.1106,3.032,2.9307,2.8233,2.7106,2.6563,2.6263,2.6174,2.6141,2.6141,2.6141,2.6141,2.6069,2.5621,2.5062,2.4553,2.4155,2.357,2.3091,2.3091,2.2598,2.206,2.1914,2.1212,2.0605,2.0605,2.0605,2.0605,2.0605,2.0925,2.131,2.1783,2.1405,2.1089,2.1089,2.0448,1.9844,1.9353,1.8818,1.8344,1.8037,1.8178,1.8313,1.8414,1.8414,1.8414,1.8414,1.8313,1.8178,1.8008,1.8008,1.8008,1.8008,1.8008,1.8467,3.3769,3.376,3.3828,3.4107,3.4441,3.5003,3.5999,3.6838,3.7458,3.7726,3.7689,3.7751,3.8316,3.8417,3.8956,4.0601,4.2258,4.3539,4.4104,4.4882,4.5309,4.507,4.5033,4.4719,4.3878,4.4066,4.3765,4.269,0.0,4.2489,4.2225,4.1618,4.0927,4.0111,3.9835,3.9559,3.927,3.9057,3.8919,3.8906,3.7486,3.6471,3.5906,3.5064,3.4387,3.3847,3.3583,0.0,3.3445,3.3224,3.3124,3.3124,3.3124,3.2893,3.2629,3.2502,3.197,3.1203,3.0589,3.0029,2.9464,2.8757,2.7917,2.718,2.718,2.718,2.718,2.718,2.718,2.7058,2.6494,2.5777,2.502,2.4488,2.3691,2.3091,2.3091,2.248,2.1885,2.1885,2.1212,2.0605,2.0605,2.0693,2.077,2.0886,2.1233,2.1721,2.2295,2.1977,2.1645,2.1624,2.0951,2.0262,1.9666,1.9219,1.8887,1.8691,1.8745,1.8916,1.9237,1.9011,1.8931,1.8931,1.8674,1.848,1.8295,1.8295,1.8457,1.8672,1.8672,1.9014,3.4297,3.4141,3.4029,3.3842,3.3765,3.391,3.462,3.5235,3.5834,3.6399,3.6579,3.6822,3.7387,3.7475,3.7889,3.9132,4.0679,4.1873,4.2371,4.3024,4.3614,4.4041,4.4305,0.0,4.3677,4.4229,0.0,0.0,0.0,0.0,4.1861,4.0877,4.0136,3.971,3.9584,3.9308,3.8881,3.868,3.8554,3.8542,3.7096,3.6006,3.5295,3.4474,3.3709,3.3124,3.3124,0.0,0.0,3.3124,3.3124,3.3124,3.3124,3.2717,3.2215,3.2215,3.1788,3.1173,3.0758,3.0532,3.0369,2.993,2.9091,2.8223,2.8223,2.8223,2.8223,2.8223,2.8223,2.8063,2.7418,2.6494,2.5453,2.4445,2.3647,2.3091,2.3091,2.248,2.1885,2.1885,2.1212,2.0605,2.0605,2.0809,2.1061,2.1339,2.1721,2.2214,2.2793,2.2542,2.2241,2.2038,2.1322,2.0601,1.9959,1.9646,1.9485,1.9433,1.9545,1.9782,2.0152,1.988,1.9613,1.9408,1.9124,1.8851,1.8598,1.8695,1.8955,1.9287,1.9287,1.9512,3.4648,3.4365,3.3965,3.3535,3.2581,3.1929,3.2703,3.2728,3.2926,3.3968,3.4602,3.5069,3.5621,3.5721,3.6248,3.7902,3.9157,4.0111,4.0664,4.1643,4.2389,4.2426,0.0,0.0,4.3112,4.4003,0.0,0.0,0.0,0.0,4.0664,4.0099,3.9747,3.9697,3.9207,3.8969,3.8919,3.7852,3.7337,3.7324,3.6719,3.5818,3.4756,3.4688,3.4073,3.3124,3.3124,0.0,0.0,3.3124,3.3124,3.3124,3.3124,3.2717,3.2215,3.2215,3.1562,3.0683,3.0633,3.0281,2.9867,2.9817,2.9714,2.9624,2.9624,2.9624,2.9624,2.9624,2.9624,2.9429,2.8578,2.7366,2.585,2.3724,2.3178,2.3091,2.3091,2.248,2.1885,2.1885,2.1212,2.0605,2.0605,2.0925,2.1339,2.1859,2.2333,2.2793,2.3342,2.3117,2.2681,2.2075,2.1507,2.0821,1.9989,2.0023,2.0048,1.9877,2.0542,2.0952,2.0984,2.1007,2.0632,1.9781,1.9661,1.9282,1.8598,1.9033,1.9248,1.9287,1.9287,1.9512,3.4326,3.4199,3.3906,3.3213,3.2275,3.1624,3.206,3.2212,3.2414,3.3289,3.4104,3.4788,3.4969,3.5006,3.5479,3.681,3.7952,3.8994,3.9898,4.0689,4.1291,4.163,4.2057,0.0,0.0,0.0,4.3087,0.0,0.0,0.0,4.0023,3.9823,3.9546,3.9207,3.8981,3.8705,3.8354,3.7575,3.7186,3.7174,3.6295,3.5466,3.4668,3.4374,3.3809,3.3124,3.3124,0.0,0.0,3.3124,3.2867,3.2554,3.2554,3.2026,3.126,3.126,3.0771,3.0118,3.0118,2.998,2.9792,2.9792,2.9792,2.9792,2.9792,2.9792,2.9792,2.9792,2.9792,2.9585,2.8709,2.7226,2.5505,2.3917,2.3624,2.3797,2.3907,2.3262,2.2696,2.2696,2.1848,2.1118,2.0964,2.1272,2.1759,2.2312,2.2793,2.325,2.3863,2.3398,2.2767,2.2117,2.1645,2.1086,2.0399,2.0619,2.0908,2.1143,2.1649,2.224,2.2936,2.2536,2.1924,2.114,2.0698,2.0134,1.9368,1.958,1.9805,2.0096,2.0096,2.0184,3.4004,3.4072,3.3867,3.3008,3.206,3.1397,3.1631,3.1761,3.1975,3.2788,3.3652,3.4236,3.4236,3.4236,3.4587,3.5705,3.6659,3.7726,3.9007,3.9685,4.0237,4.0736,0.0,4.1037,0.0,4.1794,4.1995,0.0,0.0,0.0,3.9697,3.9697,3.9521,3.9132,3.8793,3.8417,3.8002,3.7299,3.6935,3.6923,3.5994,3.5207,3.4655,3.4148,3.3596,3.3124,3.3124,0.0,0.0,3.3124,3.2729,3.2215,3.2215,3.1562,3.062,3.062,3.0269,2.9792,2.9792,2.9792,2.9792,2.9792,2.9792,2.9792,2.9792,2.9792,2.9792,2.9792,2.9624,2.9182,2.8155,2.6764,2.5359,2.4327,2.4337,2.469,2.5041,2.4363,2.3716,2.3716,2.2759,2.1825,2.1482,2.1797,2.2279,2.2835,2.3313,2.3776,2.4358,2.3765,2.2942,2.2155,2.1721,2.1272,2.0644,2.1002,2.1558,2.2151,2.2703,2.344,2.4347,2.374,2.2936,2.2012,2.1517,2.0871,2.01,2.0276,2.0569,2.0954,2.0876,2.0799,3.3838,3.4072,3.3867,3.3008,3.1836,3.0953,3.1236,3.1019,3.1041,3.2158,3.2779,3.3136,3.3136,3.3136,3.3458,3.4562,3.5157,3.6097,3.7789,3.853,3.9094,0.0,0.0,4.0526,4.0526,4.0538,0.0,0.0,0.0,0.0,3.9697,3.9697,3.9697,3.9685,3.8605,3.8015,3.8002,3.6923,3.6417,3.6405,3.5805,3.5207,3.4655,3.4148,3.3596,0.0,0.0,0.0,0.0,3.3124,3.2729,3.2215,3.2215,3.1562,3.062,3.062,3.0269,2.9792,2.9792,2.9792,2.9792,2.9792,2.9792,2.9792,2.9792,2.9792,2.9792,2.9792,2.9194,2.8219,2.6864,2.6205,2.5715,2.4967,2.5136,2.5652,2.6359,2.5699,2.4993,2.4993,2.3857,2.2702,2.2103,2.2371,2.2868,2.3415,2.39,2.4358,2.4909,2.436,2.339,2.2151,2.17,2.1272,2.0644,2.1146,2.1835,2.266,2.3621,2.4354,2.4759,2.4462,2.3571,2.2012,2.1939,2.1439,2.0501,2.1154,2.1578,2.1769,2.1578,2.1282,3.209,3.2549,3.263,3.1929,3.1414,3.115,3.1536,3.142,3.1579,3.2723,3.3036,3.3124,3.3124,3.3124,3.3432,3.455,3.5144,3.6072,3.7776,3.8504,0.0,3.9634,3.9848,4.0111,0.0,0.0,0.0,0.0,0.0,0.0,3.9697,3.9333,3.9308,3.9685,3.8592,3.8002,3.8002,3.6958,3.6169,3.5805,3.5583,3.5019,3.4161,3.3985,3.3382,0.0,0.0,0.0,0.0,3.1926,3.1612,3.1122,3.1122,3.0683,3.0055,3.0055,2.9942,2.9792,2.9792,2.9792,2.9792,2.9792,2.9792,2.9792,2.9792,2.9792,2.9792,2.9792,2.9194,2.8167,2.6853,2.6287,2.5977,2.54,2.5746,2.6423,2.7232,2.6595,2.5889,2.5889,2.4757,2.3585,2.3005,2.325,2.3618,2.3866,2.4396,2.4921,2.5347,2.4862,2.4059,2.3005,2.2542,2.1873,2.0683,2.1262,2.2166,2.3195,2.4047,2.4968,2.5928,2.5316,2.4366,2.3055,2.2772,2.2296,2.1528,2.206,2.2408,2.2596,2.2096,2.1662,3.0254,3.0859,3.1133,3.076,3.0737,3.0846,3.1406,3.1596,3.1903,3.2831,3.3067,3.3124,3.3124,3.3124,3.337,3.4274,3.47,3.5504,3.7149,0.0,0.0,3.9584,0.0,0.0,0.0,0.0,0.0,0.0,0.0,0.0,3.9697,3.917,3.8931,3.9057,3.8165,3.7701,3.7701,3.6857,3.6094,3.5495,3.5282,3.4718,3.3884,3.3684,3.3093,0.0,0.0,0.0,0.0,3.1386,3.1085,3.062,3.062,3.0281,2.9792,2.9792,2.9792,2.9792,2.9792,2.9792,2.9792,2.9792,2.9792,2.9792,2.9792,2.9792,2.9792,2.9792,2.9194,2.8167,2.6853,2.6423,2.6279,2.5944,2.6453,2.7284,2.8343,2.7722,2.6974,2.6974,2.5815,2.4659,2.4045,2.4166,2.4335,2.442,2.4898,2.5418,2.5886,2.5488,2.4838,2.4045,2.357,2.2883,2.1794,2.2042,2.2681,2.3672,2.4409,2.5264,2.6211,2.5558,2.4683,2.3573,2.3423,2.3065,2.2499,2.3132,2.3401,2.3302,2.2611,2.2031,0.0,2.9121,2.959,2.9659,2.9893,3.0295,3.0963,3.1544,0.0,3.2611,3.292,3.3124,3.3124,3.3124,3.3269,3.3859,3.396,3.4537,0.0,3.6983,0.0,0.0,3.9245,0.0,4.03,0.0,0.0,0.0,0.0,0.0,3.9572,3.9044,3.8479,3.7914,3.7349,3.7086,3.7123,3.6631,3.6031,3.5433,3.4881,3.4349,3.3759,3.3244,3.2679,0.0,0.0,0.0,0.0,3.1273,3.1022,3.062,3.057,3.0269,2.9842,2.9804,2.9792,2.9792,2.9792,2.9792,2.9792,2.9792,2.9792,2.9792,2.9792,2.9792,2.9792,2.9792,2.9182,2.8219,2.6905,2.6599,2.6622,2.6577,2.7221,2.8223,2.9507,2.89,2.8109,2.8109,2.6934,2.5723,2.5158,2.504,2.5052,2.504,2.5382,2.5863,2.643,2.6141,2.5688,2.5123,2.4707,2.4228,2.3635,2.3265,2.3386,2.412,2.4671,2.5229,2.5793,2.5276,2.454,2.3621,2.3838,2.3813,2.3482,2.4396,2.4551,2.3959,2.3154,2.2446,2.6816,0.0,2.9162,2.9663,3.004,3.0461,0.0,3.1757,3.2192,3.2906,3.3108,3.3124,3.3124,3.3124,3.3395,3.4374,3.4525,3.5102,3.6759,3.7888,0.0,3.9597,3.9584,3.9433,3.927,0.0,0.0,0.0,0.0,3.8404,3.8404,3.7877,3.7337,3.6797,3.6232,3.6132,3.6593,3.6019,3.5408,3.4868,3.4361,3.3571,3.2604,3.2478,3.1901,0.0,0.0,0.0,3.0168,3.0168,3.0344,3.057,3.0156,3.0168,3.0369,2.9942,2.9792,2.9792,2.9792,2.9792,2.9792,2.9792,2.9792,2.9792,2.9792,2.9792,2.9792,2.9792,2.93,2.8474,2.7273,2.7133,2.7226,2.7028,2.7649,2.8618,2.9598,2.89,2.8109,2.8109,2.7018,2.598,2.5535,2.5571,2.5653,2.55,2.5793,2.6166,2.6452,2.6292,2.5945,2.55,2.5229,2.4898,2.4445,2.4047,2.4131,2.4755,2.4933,2.5052,2.5194,2.4826,2.4274,2.3526,2.4312,2.4838,2.5064,2.5734,2.5699,2.4957,2.3829,2.292,2.6504,2.7207,2.7908,2.8683,2.9116,2.9603,3.0519,3.1181,3.1809,3.2528,3.2891,3.3124,3.3124,3.3124,3.3357,3.4211,3.4349,3.4926,0.0,0.0,3.8404,3.922,3.9082,3.8906,0.0,0.0,0.0,0.0,0.0,3.7902,3.7651,3.7111,3.6445,3.5667,3.5282,3.5382,3.5981,3.5395,3.4969,3.4668,3.4161,3.3307,3.2215,3.2215,3.1625,0.0,0.0,0.0,2.9792,2.9792,3.0118,3.0557,3.0005,3.0131,3.0557,2.9993,2.9792,2.9792,2.9792,2.9792,2.9792,2.9792,2.9792,2.9792,2.9792,2.9792,2.9792,2.9792,2.9378,2.8712,2.7787,2.7689,2.7794,2.7585,2.8091,2.8855,2.9624,2.89,2.8109,2.8109,2.716,2.6258,2.6037,2.6107,2.6154,2.6037,2.6188,2.6361,2.6499,2.6396,2.6258,2.6037,2.5921,2.5769,2.5546,2.5323,2.5217,2.5276,2.5276,2.5194,2.5004,2.4862,2.4635,2.4337,2.4933,2.5453,2.5875,2.6292,2.6141,2.5418,2.4301,2.3438,2.6777,2.6758,2.6702,2.7692,2.8104,2.8578,2.9583,3.0594,3.1472,3.2043,3.2723,3.3275,3.3319,3.3257,3.3432,3.4161,3.4412,0.0,3.6455,3.7059,3.7663,3.868,3.8304,0.0,0.0,0.0,0.0,0.0,0.0,3.7513,3.696,3.6496,3.573,3.4625,3.46,3.4781,3.5245,3.4781,3.46,3.4587,3.4035,3.3181,3.2089,3.2089,3.1499,3.0495,0.0,0.0,2.9792,2.9792,3.0168,3.067,3.0043,3.0181,3.0658,3.003,2.9792,2.9792,2.9792,2.9792,2.9792,2.9792,2.9792,2.9792,2.9792,2.9792,2.9792,2.9792,2.9495,2.8988,2.8347,2.8263,2.8327,2.8239,2.8569,2.904,2.9663,2.89,2.8109,2.8109,2.7218,2.6499,2.6499,2.6499,2.6499,2.6499,2.6499,2.6499,2.6499,2.6499,2.6499,2.6499,2.6499,2.6499,2.6499,2.6499,2.628,2.5781,2.5676,2.5453,2.5016,2.5064,2.5182,2.5347,2.5606,2.5898,2.6236,2.643,2.6211,2.5606,2.4671,2.395,2.6777,2.6973,2.7161,2.8278,2.8661,2.8971,3.006,3.1117,3.209,3.2845,3.3416,3.3922,3.4387,3.4085,3.4261,3.5789,3.6772,3.7462,0.0,0.0,3.7939,3.8115,0.0,0.0,0.0,0.0,0.0,0.0,0.0,3.637,3.5771,3.5671,3.5119,3.406,3.4022,3.406,3.4148,3.406,3.4022,3.4022,3.347,3.2616,3.1512,3.1512,3.0934,2.9917,0.0,2.988,2.9792,2.9792,3.0382,3.1173,3.0181,3.0394,3.1148,3.0168,2.9792,2.9792,2.9792,2.9792,2.9792,2.9792,2.9792,2.9792,2.9792,2.9792,2.9792,2.9792,2.9573,2.9263,2.8831,2.8843,2.8922,2.8752,2.9028,2.9392,2.974,2.89,2.8109,2.8109,2.7218,2.6499,2.6499,2.6499,2.6499,2.6499,2.6499,2.6499,2.6499,2.6499,2.6499,2.6499,2.6499,2.6499,2.6499,2.6499,2.6452,2.6383,2.6037,2.5606,2.5004,2.5016,2.5194,2.5535,2.6107,2.6396,2.6465,2.6499,2.628,2.5828,2.5158,2.4636,2.6504,2.668,2.6935,2.81,2.8443,2.889,3.0224,3.114,3.2004,3.3019,3.3558,3.406,3.4625,3.4512,3.4889,3.6581,0.0,3.7902,3.76,3.7563,3.745,0.0,0.0,0.0,0.0,0.0,0.0,0.0,0.0,0.0,3.5082,3.4768,3.4286,3.3483,3.3458,3.3458,3.3458,3.3458,3.3608,3.3884,3.3345,3.2478,3.1386,3.1386,3.0796,2.9792,0.0,2.9792,2.9792,2.9792,3.0256,3.0896,3.0105,3.0281,3.0871,3.008,2.9792,2.9792,2.9792,2.9792,2.9792,2.9792,2.9792,2.9792,2.9792,2.9792,2.9792,2.9792,2.9702,2.9573,2.9378,2.9417,2.9456,2.9378,2.9482,2.965,2.9792,2.9139,2.8512,2.8512,2.7896,2.7344,2.7344,2.7344,2.7344,2.7344,2.7344,2.7344,2.7344,2.7344,2.7344,2.7344,2.7344,2.7344,2.7344,2.7115,2.6744,2.6352,2.5968,2.5641,2.5488,2.5382,2.55,2.591,2.6292,2.6499,2.6499,2.6499,2.6361,2.6062,2.5535,2.5158,2.6269,2.6387,2.6692,2.7887,2.8259,2.8804,3.0522,3.1552,3.2396,3.3533,3.4147,3.4613,3.5027,3.5316,3.5906,3.7174,3.7952,3.8165,3.7475,3.7374,3.7123,3.6493,3.6405,0.0,0.0,0.0,0.0,0.0,0.0,0.0,3.4705,3.4198,3.3709,3.3282,3.3187,3.3144,3.3269,3.3144,3.3219,3.3508,3.3081,3.229,3.121,3.121,3.0696,2.9792,2.9792,2.9792,2.9792,2.9792,3.0118,3.0557,3.0005,3.0043,3.0369,2.9942,2.9792,2.9792,2.9792,2.9792,2.9792,2.9792,2.9792,2.9792,2.9792,2.9792,2.9792,2.9792,2.9792,2.9792,2.9792,2.9792,2.9792,2.9792,2.9792,2.9792,2.9792,2.934,2.8888,2.8888,2.8486,2.8109,2.8109,2.8109,2.8109,2.8109,2.8109,2.8109,2.8109,2.8109,2.8109,2.8109,2.8109,2.8059,2.7921,2.7532,2.702,2.6308,2.5968,2.5898,2.605,2.5898,2.5968,2.627,2.643,2.6499,2.6499,2.6625,2.6618,2.6457,2.6253,2.6089,2.6269,2.6387,2.6742,2.8041,2.8446,2.9114,3.1368,3.2893,3.4113,3.5187,3.5865,3.6241,3.6279,3.7073,3.7814,3.7927,3.8856,3.9182,3.8103,0.0,3.755,3.6531,0.0,0.0,0.0,0.0,0.0,0.0,0.0,0.0,3.4705,3.4198,3.3884,3.3847,3.3345,3.3319,3.3834,3.3332,3.283,3.2328,3.229,3.1712,3.067,3.067,3.0357,2.9792,2.9792,2.9792,2.9792,2.9792,3.0118,3.0557,3.0005,2.9817,2.9842,2.9804,2.9792,2.9792,2.9792,2.9792,2.9792,2.9792,2.9792,2.9792,2.9792,2.9792,2.9792,2.9792,2.9792,2.9792,2.9792,2.9792,2.9792,2.9792,2.9792,2.9792,2.9792,2.934,2.8888,2.8888,2.8486,2.8109,2.8109,2.8109,2.8109,2.8109,2.8109,2.8109,2.8109,2.8109,2.8109,2.8109,2.8109,2.7896,2.7381,2.7306,2.7042,2.649,2.6465,2.643,2.6465,2.643,2.6465,2.6499,2.6499,2.6499,2.6499,2.7002,2.7231,2.7243,2.7709,2.7911,2.5937,2.5986,2.6222,2.7352,2.8248,2.9511,3.1867,3.3515,3.4928,3.6052,3.6344,3.6304,3.5918,3.6747,3.75,3.75,3.814,3.8379,3.76,3.75,3.7211,0.0,0.0,0.0,0.0,0.0,0.0,0.0,0.0,0.0,3.5182,3.4668,3.4412,3.4412,3.3872,3.3684,3.3897,3.2993,3.2252,3.17,3.2051,3.165,3.062,3.062,3.0319,2.9792,2.9792,2.9792,2.9792,2.9792,2.9917,3.008,2.988,2.9792,2.9792,2.9792,2.9792,2.9792,2.9792,2.9792,2.9792,2.9792,2.9792,2.9792,2.9792,2.9792,2.9792,2.9792,2.9792,2.9792,2.9792,2.9792,2.9792,2.9792,2.9792,2.9792,2.9792,2.9616,2.9465,2.9465,2.9302,2.9151,2.9151,2.9151,2.9151,2.9151,2.9151,2.9151,2.9151,2.9151,2.9151,2.9151,2.9151,2.8787,2.7871,2.7795,2.7419,2.6549,2.6499,2.6499,2.6499,2.6499,2.6499,2.6499,2.6499,2.6663,2.7002,2.718,2.7457,2.7795,2.8009,2.8109,2.5693,2.5693,2.5908,2.6781,2.7901,2.9384,3.1469,3.3717,3.5616,3.6656,3.6775,3.6508,3.6132,3.6671,0.0,0.0,3.7651,3.7814,3.7262,3.7186,0.0,0.0,0.0,0.0,0.0,0.0,0.0,0.0,0.0,0.0,0.0,3.45,3.4286,3.4462,3.3922,3.3721,3.3897,3.2955,3.2114,3.1399,3.1775,3.1399,3.0357,3.0357,3.0244,3.0055,3.0055,3.0143,3.0281,3.0118,2.9942,2.9792,2.9792,2.9792,2.9792,2.9792,2.9792,2.9792,2.9792,2.9792,2.9792,2.9792,2.9792,2.9792,2.9792,2.9792,2.9792,2.9792,2.9792,2.9792,2.9792,2.9792,2.9792,2.9792,2.9792,2.9792,2.9792,2.9792,2.9792,2.9792,2.9792,2.9792,2.9792,2.9792,2.9792,2.9792,2.9792,2.9792,2.9792,2.9792,2.9792,2.9792,2.9792,2.934,2.8197,2.8109,2.7632,2.6562,2.6499,2.6499,2.6499,2.6663,2.6751,2.6751,2.6927,2.7203,2.7544,2.772,2.7996,2.8373,2.8549,2.8637,2.5693,2.5693,2.583,2.6362,2.7341,2.8629,3.024,3.3457,3.6285,3.7068,3.7196,3.7186,3.7174,3.7174,0.0,3.7161,3.7626,3.7801,3.7249,0.0,0.0,0.0,0.0,0.0,0.0,0.0,0.0,0.0,0.0,0.0,0.0,3.3382,3.3345,3.3884,3.337,3.3345,3.3884,3.3345,3.2503,3.1386,3.1386,3.0821,2.9792,2.9792,3.0093,3.062,3.062,3.0909,3.1348,3.0834,3.0281,2.9792,2.9792,2.9792,2.9792,2.9792,2.9792,2.9792,2.9792,2.9792,2.9792,2.9792,2.9792,2.9792,2.9792,2.9792,2.9792,2.9792,2.9792,2.9792,2.9792,2.9792,2.9792,2.9792,2.9792,2.9792,2.9792,2.9792,2.9792,2.9792,2.9792,2.9792,2.9792,2.9792,2.9792,2.9792,2.9792,2.9792,2.9792,2.9792,2.9792,2.9792,2.9792,2.934,2.821,2.8109,2.7645,2.6575,2.6512,2.6499,2.6499,2.7027,2.7281,2.7268,2.7821,2.8097,2.8109,2.8612,2.8888,2.8913,2.9528,2.9792,2.5391,2.5538,2.5859,2.6546,2.7479,2.8663,3.0201,3.2799,3.5473,3.7345,3.7778,3.7525,3.6795,3.6656,0.0,3.6094,3.6496,3.6659,0.0,0.0,0.0,0.0,0.0,0.0,0.0,0.0,0.0,0.0,0.0,0.0,0.0,3.4324,3.4311,3.4474,3.3935,3.3734,3.3897,3.2955,3.2102,3.1386,3.1022,3.047,2.9792,2.9792,3.0093,3.062,3.062,3.0909,3.1348,3.0834,3.0281,2.9792,2.9792,2.9792,2.9792,2.9792,2.9792,2.9792,2.9792,2.9792,2.9792,2.9792,2.9792,2.9792,2.9792,2.9792,2.9792,2.9792,2.9792,2.9792,2.9792,2.9792,2.9792,2.9792,2.9792,2.9792,2.9792,2.9792,2.9792,2.9792,2.9792,2.9792,2.9792,2.9792,2.9792,2.9792,2.9792,2.9792,2.9792,2.9792,2.9792,2.9792,2.9792,2.949,2.8712,2.865,2.8386,2.7657,2.762,2.7304,2.6524,2.7027,2.714,2.6751,2.7243,2.772,2.8109,2.8273,2.8762,2.9541,2.9716,2.9792,2.4883,2.5458,2.6104,2.6507,2.7372,2.8645,3.0716,3.3109,3.5549,3.7867,3.799,3.755,3.7098,3.6707,0.0,3.5931,3.6144,3.6169,0.0,0.0,0.0,0.0,0.0,0.0,0.0,0.0,0.0,0.0,0.0,0.0,0.0,3.4237,3.4149,3.4073,3.3746,3.3571,3.3571,3.2893,3.2164,3.1386,3.1072,3.0532,2.9792,2.9792,3.0206,3.0947,3.1399,3.1524,3.1361,3.1047,3.0482,2.9792,2.9792,2.9792,2.9792,2.9792,2.9792,2.9792,2.9792,2.9792,2.9792,2.9792,2.9792,2.9792,2.9792,2.9792,2.9792,2.9792,2.9792,2.9792,2.9792,2.9792,2.9792,2.9792,2.9792,2.9792,2.9792,2.9792,2.9792,2.9792,2.9792,2.9792,2.9792,2.9792,2.9792,2.9792,2.9792,2.9792,2.9792,2.9792,2.9792,2.9792,2.9792,2.9566,2.8938,2.8888,2.865,2.8134,2.8109,2.7808,2.7178,2.7645,2.767,2.7165,2.7657,2.7996,2.8109,2.8323,2.8787,2.9453,2.9691,2.9792,2.4322,2.5393,2.6396,2.6435,2.7192,2.8629,3.1585,3.3862,3.6035,3.8279,0.0,3.7337,3.7839,3.7073,3.6392,3.6342,3.6329,0.0,0.0,0.0,0.0,0.0,0.0,0.0,0.0,0.0,0.0,0.0,0.0,0.0,0.0,3.3598,3.3356,3.3124,3.3124,3.3124,3.3124,3.3124,3.2516,3.1386,3.1386,3.0834,2.9792,2.9792,3.0357,3.1386,3.2453,3.2315,3.1323,3.1323,3.0721,2.9792,2.9792,2.9792,2.9792,2.9792,2.9792,2.9792,2.9792,2.9792,2.9792,2.9792,2.9792,2.9792,2.9792,2.9792,2.9792,2.9792,2.9792,2.9792,2.9792,2.9792,2.9792,2.9792,2.9792,2.9792,2.9792,2.9792,2.9792,2.9792,2.9792,2.9792,2.9792,2.9792,2.9792,2.9792,2.9792,2.9792,2.9792,2.9792,2.9792,2.9792,2.9792,2.9578,2.9013,2.8963,2.875,2.8298,2.826,2.826,2.826,2.865,2.8612,2.8047,2.8537,2.8574,2.8109,2.8574,2.8863,2.8988,2.9553,2.9792,2.3976,2.5294,2.6465,2.6797,2.8038,2.963,3.1338,3.2768,3.4433,3.7046,3.7349,3.7224,3.7337,3.6857,3.6267,3.5793,0.0,0.0,0.0,0.0,0.0,0.0,0.0,0.0,0.0,0.0,0.0,0.0,0.0,0.0,3.4511,3.4134,3.3709,3.3124,3.3124,3.3124,3.3124,3.3124,3.2516,0.0,3.1386,3.0834,2.9792,2.9792,3.0156,3.0821,3.1474,3.1386,3.0783,3.0783,3.0394,2.9792,2.9792,2.9792,2.9792,2.9792,2.9792,2.9792,2.9792,2.9792,2.9792,2.9792,2.9792,2.9792,2.9792,2.9792,2.9792,2.9792,2.9792,2.9792,2.9792,2.9792,2.9792,2.9792,2.9792,2.9792,2.9792,2.9792,2.9792,2.9792,2.9792,2.9792,2.9792,2.9792,2.9792,2.9792,2.9792,2.9792,2.9792,2.9792,2.9792,2.9792,2.9792,2.9741,2.9616,2.9603,2.9553,2.944,2.9428,2.9428,2.9428,2.9101,2.8461,2.7482,2.7996,2.8222,2.8109,2.8222,2.8737,2.9616,2.9729,2.9792,2.347,2.5177,2.6836,2.7471,2.8485,2.9638,3.0753,3.1819,3.3139,3.5042,3.607,3.6741,3.7136,3.6782,3.6182,0.0,0.0,0.0,0.0,0.0,0.0,0.0,0.0,0.0,0.0,0.0,0.0,0.0,0.0,3.5963,3.5359,3.4827,3.4189,3.3398,3.3283,3.3197,3.3124,3.2805,3.224,3.1386,3.1135,3.0583,2.9804,3.0068,3.0344,3.0645,3.1173,3.1097,3.062,3.062,3.0281,2.9792,2.9792,2.9792,2.9792,2.9792,2.9792,2.9792,2.9792,2.9792,2.9792,2.9792,2.9792,2.9792,2.9792,2.9792,2.9792,2.9792,2.9591,2.9377,2.9377,2.9176,2.9051,2.9315,2.9591,2.9792,2.9792,2.9792,2.9792,2.9792,2.9792,2.9792,2.9792,2.9792,2.9792,2.9792,2.9792,2.9792,2.9792,2.9792,2.9792,2.9792,2.9792,2.9792,2.9792,2.9792,2.9792,2.9792,2.9792,2.9792,2.9792,2.9503,2.8938,2.8084,2.8348,2.8373,2.8109,2.8373,2.88,2.939,2.9666,2.9792,2.2898,2.5069,2.7217,2.8076,2.8664,2.9227,2.9964,3.1,3.2079,3.3046,3.4594,3.593,3.6649,3.6395,3.5931,0.0,0.0,0.0,0.0,0.0,0.0,0.0,0.0,0.0,0.0,0.0,0.0,0.0,0.0,3.6919,3.6168,3.5601,3.4855,3.3911,3.3641,3.336,3.293,3.2453,3.1888,3.1248,3.0721,3.0231,2.9817,3.0269,3.047,3.0507,3.0934,3.0871,3.047,3.047,3.0206,2.9792,2.9792,2.9792,2.9792,2.9792,2.9792,2.9792,2.9792,2.9792,2.9792,2.9792,2.9729,2.9641,2.9641,2.9578,2.9528,2.9616,2.9227,2.8762,2.8863,2.8511,2.8247,2.8762,2.9289,2.9666,2.9779,2.9792,2.9792,2.9792,2.9792,2.9792,2.9792,2.9792,2.9792,2.9792,2.9792,2.9792,2.9792,2.9792,2.9792,2.9792,2.9792,2.9792,2.9792,2.9792,2.9792,2.9792,2.9792,2.9792,2.9792,2.9792,2.9566,2.9089,2.8938,2.8662,2.8247,2.8662,2.8938,2.9051,2.9566,2.9792,2.2474,2.4905,2.7217,2.8076,2.8514,2.8877,2.9481,3.0307,3.12,0.0,3.348,3.4691,3.499,3.4989,0.0,0.0,0.0,0.0,0.0,0.0,0.0,0.0,0.0,0.0,0.0,0.0,0.0,0.0,3.8458,3.7986,3.6748,3.6497,3.5856,3.4594,3.4217,3.3453,3.2328,3.2252,3.1712,3.0708,3.0168,2.9867,2.9792,2.9867,2.9905,2.9905,2.998,2.9967,2.9905,2.9905,2.9854,2.9792,2.9792,2.9792,2.9792,2.9792,2.9792,2.9792,2.9792,2.9792,2.9792,2.9792,2.9453,2.9001,2.9001,2.8712,2.8436,2.8875,2.8649,2.8323,2.8762,2.8511,2.8247,2.8762,2.895,2.9176,2.9679,2.9792,2.9792,2.9792,2.9792,2.9792,2.9792,2.9792,2.9792,2.9792,2.9792,2.9792,2.9792,2.9792,2.9792,2.9792,2.9792,2.9792,2.9792,2.9792,2.9792,2.9792,2.9792,2.9792,2.9792,2.9792,2.9754,2.9679,2.9189,2.885,2.8787,2.8863,2.9189,2.9679,2.9754,2.9792,2.3733,2.5542,2.6816,2.7422,2.7682,2.7786,2.8036,2.8645,2.9255,2.9791,3.0914,3.2336,3.3995,0.0,0.0,0.0,0.0,0.0,0.0,0.0,0.0,0.0,0.0,0.0,0.0,0.0,0.0,0.0,3.8523,3.8341,3.7252,3.7059,3.6387,3.5074,3.4538,3.3624,3.2215,3.1901,3.121,3.0156,2.9905,2.9792,2.9792,2.9792,2.9792,2.9792,2.9792,2.9792,2.9792,2.9792,2.9792,2.9792,2.9792,2.9792,2.9792,2.9792,2.9792,2.9792,2.9792,2.9792,2.9792,2.9792,2.9402,2.8888,2.8888,2.8549,2.8222,2.8737,2.8499,2.816,2.8398,2.8285,2.816,2.8411,2.8662,2.9089,2.9666,2.9792,2.9792,2.9792,2.9792,2.9792,2.9792,2.9792,2.9792,2.9792,2.9792,2.9792,2.9792,2.9792,2.9792,2.9792,2.9792,2.9792,2.9792,2.9792,2.9792,2.9792,2.9792,2.9792,2.9792,2.9792,2.9792,2.9792,2.9541,2.9415,2.9415,2.9415,2.9541,2.9792,2.9792,2.9792,2.4363,2.5577,2.6132,2.6719,2.6855,2.6885,2.6992,0.0,2.7774,0.0,2.885,3.0305,3.2697,0.0,0.0,0.0,0.0,0.0,0.0,0.0,0.0,0.0,0.0,0.0,0.0,0.0,0.0,0.0,3.7966,3.8215,3.7517,3.7492,3.6897,3.5574,3.4896,3.3755,3.2014,3.1323,3.0583,2.9792,2.9792,2.9792,2.9792,2.9792,2.9792,2.9792,2.9792,2.9792,2.9792,2.9792,2.9792,2.9792,2.9792,2.9792,2.9792,2.9792,2.9792,2.9792,2.9792,2.9792,2.9792,2.9792,2.9302,2.8687,2.8687,2.8235,2.7833,2.8524,2.8323,2.7959,2.8247,2.821,2.8134,2.8285,2.8599,2.9089,2.9666,2.9792,2.9792,2.9792,2.9792,2.9792,2.9792,2.9792,2.9792,2.9792,2.9792,2.9792,2.9792,2.9792,2.9792,2.9792,2.9792,2.9792,2.9792,2.9792,2.9792,2.9792,2.9792,2.9792,2.9792,2.9792,2.9792,2.9792,2.9792,2.9792,2.9792,2.9792,2.9792,2.9792,2.9792,2.9792,2.3289,2.4278,2.5044,2.6152,2.6426,2.6523,0.0,0.0,2.7412,2.7506,2.832,2.9365,0.0,0.0,0.0,0.0,0.0,0.0,0.0,0.0,0.0,0.0,0.0,0.0,0.0,0.0,0.0,0.0,3.6726,3.7573,3.7425,3.7886,3.7539,3.6212,3.54,3.3822,3.1477,3.0394,2.9854,2.9792,2.9792,2.9792,2.9792,2.9792,2.9792,2.9792,2.9792,2.9792,2.9792,2.9792,2.9792,2.9792,2.9792,2.9792,2.9792,2.9792,2.9792,2.9792,2.9792,2.9792,2.9792,2.9792,2.9051,2.8147,2.8147,2.7394,2.6801,2.7846,2.7758,2.757,2.8574,2.8461,2.8235,2.8725,2.8863,2.9089,2.9666,2.9792,2.9792,2.9792,2.9792,2.9792,2.9792,2.9792,2.9792,2.9792,2.9792,2.9792,2.9792,2.9792,2.9792,2.9792,2.9792,2.9792,2.9792,2.9792,2.9792,2.9792,2.9792,2.9792,2.9792,2.9792,2.9792,2.9792,2.9792,2.9792,2.9792,2.9792,2.9792,2.9792,2.9792,2.9792,2.1535,2.2681,2.3661,2.4499,2.5137,2.5576,2.5732,2.6026,2.634,2.6319,2.7132,2.8337,0.0,0.0,0.0,0.0,0.0,0.0,0.0,0.0,0.0,0.0,0.0,0.0,0.0,0.0,0.0,0.0,0.0,3.7222,3.7385,3.7605,3.7425,3.6657,3.5514,3.3661,3.1084,3.0234,2.9792,2.9792,2.9792,2.9792,2.9792,2.9792,2.9792,2.9792,2.9792,2.9792,2.9792,2.9792,2.9792,2.9792,2.9792,2.9792,2.9792,2.9792,2.9792,2.9792,2.9792,2.9792,2.9792,2.9792,2.9264,2.8599,2.8599,2.8109,2.767,2.8423,2.8499,2.8436,2.8787,2.9051,2.9239,2.9428,2.9202,2.9089,2.9666,2.9792,2.9792,2.9792,2.9792,2.9792,2.9792,2.9792,2.9792,2.9792,2.9792,2.9792,2.9792,2.9792,2.9792,2.9792,2.9792,2.9792,2.9792,2.9792,2.9792,2.9792,2.9792,2.9792,2.9792,2.9792,2.9792,2.9792,2.9792,2.9792,2.9792,2.9792,2.9792,2.9792,2.9792,2.9792,2.0391,2.1456,2.2489,2.3363,2.4004,2.4587,2.5018,2.5293,2.5557,2.5654,2.6438,2.7636,0.0,0.0,0.0,0.0,0.0,0.0,0.0,0.0,0.0,0.0,0.0,0.0,0.0,0.0,0.0,0.0,0.0,0.0,3.737,3.7526,3.7242,3.6532,3.5008,3.3198,3.1096,3.0401,2.998,2.9792,2.998,2.9967,2.9792,2.9792,2.9792,2.9792,2.9792,2.9792,2.9792,2.9792,2.9792,2.9792,2.9792,2.9792,2.9792,2.9792,2.9792,2.9792,2.9792,2.9792,2.9792,2.9792,2.9402,2.8888,2.8888,2.8549,2.8222,2.8737,2.8888,2.8938,2.9126,2.9365,2.9453,2.9264,2.9076,2.9001,2.9415,2.9654,2.9792,2.9792,2.9792,2.9792,2.9792,2.9792,2.9792,2.9792,2.9792,2.9792,2.9792,2.9792,2.9792,2.9792,2.9792,2.9792,2.9792,2.9792,2.9792,2.9792,2.9792,2.9792,2.9792,2.9792,2.9792,2.9792,2.9792,2.9792,2.9792,2.9792,2.9792,2.9792,2.9792,2.9792,0.0,0.0,0.0,2.2741,0.0,0.0,2.4773,0.0,2.5195,2.5577,2.6332,0.0,0.0,0.0,0.0,0.0,0.0,0.0,0.0,0.0,0.0,0.0,0.0,0.0,0.0,0.0,0.0,0.0,3.5034,3.6139,3.734,3.7647,3.7128,3.5687,3.3917,3.2489,3.1487,3.0887,3.0319,2.9804,3.0331,3.0306,2.9792,2.9792,2.9792,2.9792,2.9792,2.9792,2.9792,2.9792,2.9792,2.9792,2.9792,2.9792,2.9792,2.9792,2.9792,2.9792,2.9792,2.9792,2.9792,2.9792,2.9415,2.8913,2.8913,2.8549,2.826,2.8762,2.8913,2.9076,2.9628,2.9327,2.8712,2.8235,2.8499,2.885,2.8888,2.9365,2.9779,2.9792,2.9792,2.9792,2.9792,2.9792,2.9792,2.9792,2.9792,2.9792,2.9792,2.9792,2.9792,2.9792,2.9792,2.9792,2.9792,2.9792,2.9792,2.9792,2.9792,2.9792,2.9792,2.9792,2.9792,2.9792,2.9792,2.9792,2.9792,2.9792,2.9792,2.9792,2.9792,2.9792,1.916,0.0,0.0,0.0,0.0,0.0,0.0,0.0,0.0,2.5225,2.5978,0.0,0.0,0.0,0.0,0.0,0.0,0.0,0.0,0.0,0.0,0.0,0.0,0.0,0.0,0.0,0.0,0.0,3.5837,3.6793,3.737,3.7526,3.6722,3.4913,3.3496,3.2241,3.1146,3.0393,2.9942,2.9792,2.9942,2.9942,2.9792,2.9792,2.9792,2.9792,2.9792,2.9792,2.9792,2.9792,2.9792,2.9792,2.9792,2.9792,2.9792,2.9792,2.9792,2.9792,2.9792,2.9792,2.9792,2.9792,2.9679,2.9553,2.9553,2.9453,2.9365,2.9515,2.9553,2.949,2.9239,2.8461,2.7795,2.8047,2.7921,2.7959,2.8712,2.9013,2.9289,2.9716,2.9792,2.9792,2.9792,2.9792,2.9792,2.9792,2.9792,2.9792,2.9792,2.9792,2.9792,2.9792,2.9792,2.9792,2.9792,2.9792,2.9792,2.9792,2.9792,2.9792,2.9792,2.9792,2.9792,2.9792,2.9792,2.9792,2.9792,2.9792,2.9792,2.9792,2.9792,2.9792,1.9139,1.9776,2.0429,2.1061,0.0,0.0,2.3027,2.373,0.0,0.0,0.0,0.0,0.0,0.0,0.0,0.0,0.0,0.0,0.0,0.0,0.0,0.0,0.0,0.0,0.0,3.5183,3.5276,3.5375,3.621,3.6936,3.737,3.7703,3.6957,3.4952,3.3692,3.2462,3.1222,3.0496,3.0018,2.9792,3.003,3.0018,2.9792,2.9792,2.9792,2.9792,2.9792,2.9792,2.9792,2.9792,2.9792,2.9792,2.9792,2.9792,2.9792,2.9792,2.9792,2.9792,2.9792,2.9792,2.9792,2.9792,2.9792,2.9792,2.9792,2.9792,2.9792,2.9792,2.9792,2.9666,2.9076,2.8285,2.7657,2.7745,2.7519,2.7519,2.8398,2.8725,2.9063,2.9679,2.9792,2.9792,2.9792,2.9792,2.9792,2.9792,2.9792,2.9792,2.9792,2.9792,2.9792,2.9792,2.9792,2.9792,2.9792,2.9792,2.9792,2.9792,2.9792,2.9792,2.9792,2.9792,2.9792,2.9792,2.9792,2.9792,2.9792,2.9792,2.9792,2.9792,2.9792,2.9792,1.9648,2.001,2.0478,2.0985,2.1161,0.0,2.2623,2.2955,2.3237,0.0,0.0,0.0,0.0,0.0,0.0,0.0,0.0,0.0,0.0,0.0,0.0,0.0,0.0,0.0,3.4583,3.4821,3.5203,3.5711,3.6222,3.6696,3.7233,3.7819,3.7222,3.5215,3.4028,3.2809,3.1442,3.0829,3.0281,2.9804,3.0281,3.0269,2.9792,2.9792,2.9792,2.9792,2.9792,2.9792,2.9792,2.9792,2.9792,2.9792,2.9792,2.9792,2.9792,2.9792,2.9792,2.9792,2.9792,2.9792,2.9792,2.9792,2.9792,2.9792,2.9792,2.9792,2.9792,2.9792,2.9741,2.9578,2.9026,2.8511,2.7984,2.7494,2.7369,2.7519,2.8084,2.8549,2.9063,2.9679,2.9792,2.9792,2.9792,2.9792,2.9792,2.9792,2.9792,2.9792,2.9792,2.9792,2.9792,2.9792,2.9792,2.9792,2.9792,2.9792,2.9792,2.9792,2.9792,2.9792,2.9792,2.9792,2.9792,2.9792,2.9792,2.9792,2.9792,2.9792,2.9792,2.9792,2.9792,2.9792,2.0401,2.0489,2.0586,2.0674,0.0,0.0,2.1512,2.2097,2.2685,0.0,0.0,0.0,0.0,0.0,0.0,0.0,0.0,0.0,0.0,0.0,0.0,0.0,0.0,0.0,3.4804,3.4916,3.4966,3.4957,3.5805,3.6408,3.6514,3.6631,3.5788,3.3775,3.2842,3.199,3.1123,3.0343,2.9892,2.9792,2.9905,2.9892,2.9792,2.9792,2.9792,2.9792,2.9792,2.9792,2.9792,2.9792,2.9792,2.9792,2.9792,2.9792,2.9792,2.9792,2.9792,2.9792,2.9792,2.9792,2.9792,2.9792,2.9792,2.9792,2.9792,2.9792,2.9792,2.9792,2.9453,2.9026,2.8913,2.8511,2.8084,2.7971,2.7946,2.8097,2.8612,2.8813,2.9063,2.9679,2.9792,2.9792,2.9792,2.9792,2.9792,2.9792,2.9792,2.9792,2.9792,2.9792,2.9792,2.9792,2.9792,2.9792,2.9792,2.9792,2.9792,2.9792,2.9792,2.9792,2.9792,2.9792,2.9792,2.9792,2.9792,2.9792,2.9792,2.9792,2.9792,2.9792,2.9792,2.9792,2.0898,2.0732,2.0605,2.0605,0.0,0.0,0.0,2.1522,2.1943,2.2158,2.2373,2.251,0.0,0.0,0.0,0.0,0.0,0.0,0.0,0.0,0.0,0.0,0.0,0.0,3.4028,3.4218,3.4534,3.4958,3.5511,3.5702,3.5362,3.5348,3.4528,3.2753,3.2001,3.1392,3.0797,3.0152,2.9792,2.9792,2.9792,2.9792,2.9792,2.9792,2.9792,2.9792,2.9792,2.9792,2.9792,2.9792,2.9792,2.9792,2.9792,2.9792,2.9792,2.9792,2.9792,2.9792,2.9792,2.9792,2.9792,2.9792,2.9792,2.9792,2.9792,2.9792,2.9792,2.9792,2.9578,2.9365,2.9365,2.8938,2.8511,2.8511,2.8298,2.826,2.8775,2.8888,2.9063,2.9679,2.9792,2.9792,2.9792,2.9792,2.9792,2.9792,2.9792,2.9792,2.9792,2.9792,2.9792,2.9792,2.9792,2.9792,2.9792,2.9792,2.9792,2.9792,2.9792,2.9792,2.9792,2.9792,2.9792,2.9792,2.9792,2.9792,2.9792,2.9792,2.9792,2.9792,2.9792,2.9792,0.0,0.0,0.0,0.0,0.0,2.0703,0.0,0.0,0.0,2.1553,0.0,0.0,0.0,0.0,0.0,0.0,0.0,0.0,0.0,0.0,0.0,0.0,0.0,0.0,0.0,3.328,3.3877,3.4901,3.4988,3.4722,3.4053,3.4135,3.3469,3.1946,3.1378,3.0895,3.0507,3.0037,2.9792,2.9792,2.9792,2.9792,2.9792,2.9792,2.9792,2.9792,2.9792,2.9792,2.9792,2.9792,2.9792,2.9792,2.9792,2.9792,2.9792,2.9792,2.9792,2.9792,2.9792,2.9792,2.9792,2.9792,2.9792,2.9792,2.9792,2.9792,2.9792,2.9792,2.9792,2.9792,2.9792,2.9453,2.9051,2.9051,2.875,2.8549,2.8963,2.9051,2.9239,2.9704,2.9792,2.9792,2.9792,2.9792,2.9792,2.9792,2.9792,2.9792,2.9792,2.9792,2.9792,2.9792,2.9792,2.9792,2.9792,2.9792,2.9792,2.9792,2.9792,2.9792,2.9792,2.9792,2.9792,2.9792,2.9792,2.9792,2.9792,2.9792,2.9792,2.9792,2.9792,2.9792,0.0,0.0,0.0,0.0,2.0605,0.0,0.0,0.0,2.0693,2.0742,0.0,0.0,0.0,0.0,0.0,0.0,0.0,0.0,0.0,0.0,0.0,0.0,0.0,0.0,0.0,3.2692,3.2836,3.3709,3.3635,3.3282,3.2769,3.3148,3.2716,3.1163,3.0822,3.052,3.0152,2.9934,2.9792,2.9792,2.9792,2.9792,2.9792,2.9792,2.9792,2.9792,2.9792,2.9792,2.9792,2.9792,2.9792,2.9792,2.9792,2.9792,2.9792,2.9792,2.9792,2.9792,2.9792,2.9792,2.9792,2.9792,2.9792,2.9792,2.9792,2.9792,2.9792,2.9792,2.9792,2.9792,2.9792,2.9741,2.9691,2.9691,2.9641,2.9616,2.9679,2.9691,2.9716,2.9779,2.9792,2.9792,2.9792,2.9792,2.9792,2.9792,2.9792,2.9792,2.9792,2.9792,2.9792,2.9792,2.9792,2.9792,2.9792,2.9792,2.9792,2.9792,2.9792,2.9792,2.9792,2.9792,2.9792,2.9792,2.9792,2.9792,2.9792,2.9792,2.9792,2.9792,2.9792,2.9792,0.0,0.0,0.0,0.0,0.0,0.0,2.0605,0.0,2.0674,0.0,0.0,0.0,0.0,0.0,0.0,0.0,0.0,0.0,0.0,0.0,0.0,0.0,0.0,0.0,0.0,0.0,0.0,0.0,3.214,3.1615,3.1422,3.1589,3.1279,3.0343,3.0177,3.0062,2.9934,2.983,2.9792,2.9792,2.9792,2.9792,2.9792,2.9792,2.9792,2.9792,2.9792,2.9792,2.9792,2.9792,2.9792,2.9792,2.9792,2.9792,2.9792,2.9792,2.9792,2.9792,2.9792,2.9792,2.9792,2.9792,2.9792,2.9792,2.9792,2.9792,2.9792,2.9792,2.9792,2.9792,2.9792,2.9792,2.9792,2.9792,2.9792,2.9792,2.9792,2.9792,2.9792,2.9792,2.9792,2.9792,2.9792,2.9792,2.9792,2.9792,2.9792,2.9792,2.9792,2.9792,2.9792,2.9792,2.9792,2.9792,2.9792,2.9792,2.9792,2.9792,2.9792,2.9792,2.9792,2.9792,2.9792,2.9792,2.9792,2.9792,2.9792,2.9792,2.9792,2.9792,2.9792,2.9792,2.1738,0.0,0.0,0.0,0.0,0.0,0.0,0.0,0.0,0.0,0.0,0.0,0.0,0.0,0.0,0.0,0.0,0.0,0.0,0.0,0.0,0.0,0.0,0.0,0.0,0.0,0.0,0.0,0.0,3.0557,3.0407,3.0532,3.0357,2.9817,2.9792,2.9792,2.9792,2.9792,2.9792,2.9792,2.9792,2.9792,2.9792,2.9792,2.9792,2.9792,2.9792,2.9792,2.9792,2.9792,2.9792,2.9792,2.9792,2.9792,2.9792,2.9792,2.9792,2.9792,2.9792,2.9792,2.9792,2.9792,2.9792,2.9792,2.9792,2.9792,2.9792,2.9792,2.9792,2.9792,2.9792,2.9792,2.9792,2.9792,2.9792,2.9792,2.9792,2.9792,2.9792,2.9792,2.9792,2.9792,2.9792,2.9792,2.9792,2.9792,2.9792,2.9792,2.9792,2.9792,2.9792,2.9792,2.9792,2.9792,2.9792,2.9792,2.9792,2.9792,2.9792,2.9792,2.9792,2.9792,2.9792,2.9792,2.9792,2.9792,2.9792,2.9792,2.9792,2.9792,2.9792,2.988,0.0,0.0,0.0,2.0713,0.0,0.0,0.0,0.0,2.1181,0.0,0.0,0.0,0.0,0.0,0.0,0.0,0.0,0.0,0.0,0.0,0.0,0.0,0.0,0.0,0.0,0.0,0.0,0.0,0.0,0.0,2.9842,3.0331,3.0357,2.9817,2.9792,2.9792,2.9792,2.9792,2.9792,2.9792,2.9792,2.9792,2.9792,2.9792,2.9792,2.9792,2.9792,2.9792,2.9792,2.9792,2.9792,2.9792,2.9792,2.9792,2.9792,2.9792,2.9792,2.9792,2.9792,2.9792,2.9792,2.9792,2.9792,2.9792,2.9792,2.9792,2.9792,2.9792,2.9792,2.9792,2.9792,2.9792,2.9792,2.9792,2.9792,2.9792,2.9792,2.9792,2.9792,2.9792,2.9792,2.9792,2.9792,2.9792,2.9792,2.9792,2.9792,2.9792,2.9792,2.9792,2.9792,2.9792,2.9792,2.9792,2.9792,2.9792,2.9792,2.9792,2.9792,2.9792,2.9792,2.9792,2.9792,2.9792,2.9792,2.9792,2.9792,2.9792,2.9792,2.9792,2.9792,3.008,0.0,0.0,2.0752,2.0644,0.0,0.0,0.0,0.0,0.0,0.0,0.0,0.0,0.0,0.0,0.0,0.0,0.0,0.0,0.0,0.0,0.0,0.0,0.0,0.0,0.0,0.0,0.0,0.0,3.0281,0.0,0.0,2.9967,3.0156,3.0331,3.0331,3.0331,3.0331,3.0331,3.0156,2.9792,2.9792,2.9792,2.9792,2.9792,2.9792,2.9792,2.9792,2.9792,2.9792,2.9792,2.9792,2.9792,2.9792,2.9792,2.9792,2.9792,2.9792,2.9792,2.9792,2.9792,2.9792,2.9792,2.9792,2.9792,2.9792,2.9792,2.9792,2.9792,2.9792,2.9792,2.9792,2.9792,2.9792,2.9792,2.9792,2.9792,2.9792,2.9792,2.9792,2.9792,2.9792,2.9792,2.9792,2.9792,2.9792,2.9792,2.9792,2.9792,2.9792,2.9792,2.9792,2.9792,2.9792,2.9792,2.9792,2.9792,2.9792,2.9792,2.9792,2.9792,2.9792,2.9792,2.9792,2.9792,2.9792,2.9792,2.9792,2.9792,2.998,3.0331,3.0331,3.0432,2.0996,2.0781,0.0,2.0605,2.0723,0.0,2.1132,0.0,0.0,0.0,0.0,0.0,0.0,0.0,0.0,0.0,0.0,0.0,0.0,2.3378,0.0,0.0,0.0,0.0,0.0,0.0,3.0333,3.0201,2.9941,0.0,0.0,0.0,3.0043,3.0595,3.062,3.062,3.062,3.062,3.0331,2.9792,2.9792,2.9792,2.9792,2.9792,2.9792,2.9792,2.9792,2.9792,2.9792,2.9792,2.9792,2.9792,2.9792,2.9792,2.9792,2.9792,2.9792,2.9792,2.9792,2.9792,2.9792,2.9792,2.9792,2.9792,2.9792,2.9792,2.9792,2.9792,2.9792,2.9792,2.9792,2.9792,2.9792,2.9792,2.9792,2.9792,2.9792,2.9792,2.9792,2.9792,2.9628,2.9553,2.9754,2.9616,2.9553,2.9767,2.9792,2.9792,2.9792,2.9792,2.9792,2.9792,2.9792,2.9792,2.9792,2.9792,2.9792,2.9792,2.9792,2.9792,2.9792,2.9792,2.9792,2.9792,2.9792,2.9792,2.9792,2.9993,3.0269,3.062,3.1009,3.1185]}]]